[[{"header":{"parameterUnit":"m.s-1","parameterCategory":1,"la1":30.6,"la2":29.2853,"lo1":-89.7004,"lo2":-87.6739,"dx":0.0162,"dy":0.0183,"nx":112,"ny":82,"refTime":"2022-11-22T18:00:00:Z","depth":0,"parameterNumber":2,"parameterNumberName":"U-component_of_WINDS"},"data":[0.0,0.0,0.0,0.0,0.0,0.0,0.0,0.0,0.0,0.0,0.0,0.0,0.0,0.0,0.0,0.0,0.0,0.0,0.0,0.0,0.0,0.0,0.0,0.0,0.0,0.0,0.0,0.0,0.0,0.0,0.0,0.0,0.0,0.0,0.0,0.0,0.0,0.0,0.0,0.0,0.0,0.0,0.0,0.0,0.0,0.0,0.0,0.0,0.0,0.0,0.0,0.0,0.0,0.0,0.0,0.0,0.0,0.0,0.0,0.0,0.0,0.0,0.0,0.0,0.0,0.0,0.0,0.0,0.0,0.0,0.0,0.0,0.0,0.0,0.0,0.0,0.0,0.0,0.0,0.0,0.0,0.0,0.0,0.0,0.0,0.0,0.0,0.0,0.0,0.0,-0.0,-0.0,-0.0,-0.0,-0.0,-0.0,-0.0,-0.0,0.0,0.0,0.0,0.0,0.0,0.0,0.0,0.0,0.0,0.0,0.0,0.0,0.0,0.0,0.0,0.0,0.0,0.0,0.0,0.0,0.0,0.0,0.0,0.0,0.0,0.0,0.0,0.0,0.0,0.0,0.0,0.0,0.0,0.0,0.0,0.0,0.0,0.0,0.0,0.0,0.0,0.0,0.0,0.0,0.0,0.0,0.0,0.0,0.0,0.0,0.0,0.0,0.0,0.0,0.0,0.0,0.0,0.0,0.0,0.0,0.0,0.0,0.0,0.0,0.0,0.0,0.0,0.0,0.0,0.0,0.0,0.0,0.0,0.0,0.0,0.0,0.0,0.0,0.0,0.0,0.0,0.0,0.0,0.0,0.0,0.0,0.0,0.0,0.0,0.0,0.0,0.0,0.0,0.0,0.0,0.0,0.0,0.0,0.0,0.0,0.0,0.0,0.0,0.0,-0.0,-0.0,-0.0,-0.0,-0.0,-0.0,-0.0,-0.0,0.0,0.0,0.0,0.0,0.0,0.0,0.0,0.0,0.0,0.0,0.0,0.0,0.0,0.0,0.0,0.0,0.0,0.0,0.0,0.0,0.0,0.0,0.0,0.0,0.0,0.0,0.0,0.0,0.0,0.0,0.0,0.0,0.0,0.0,0.0,0.0,0.0,0.0,0.0,0.0,0.0,0.0,0.0,0.0,0.0,0.0,0.0,0.0,0.0,0.0,0.0,0.0,0.0,0.0,0.0,0.0,0.0,0.0,0.0,0.0,0.0,0.0,0.0,0.0,0.0,0.0,0.0,0.0,0.0,0.0,0.0,0.0,0.0,0.0,0.0,0.0,0.0,0.0,0.0,0.0,0.0,0.0,0.0,0.0,0.0,0.0,0.0,0.0,0.0,0.0,0.0,0.0,0.0,0.0,0.0,0.0,0.0,0.0,0.0,0.0,0.0,0.0,0.0,-0.0,-0.0,-0.0,-0.0,-0.0,-0.0,-0.0,-0.0,-0.0,-0.0,0.0,0.0,0.0,0.0,0.0,0.0,0.0,0.0,0.0,0.0,0.0,0.0,0.0,0.0,0.0,0.0,0.0,0.0,0.0,0.0,0.0,0.0,0.0,0.0,0.0,0.0,0.0,0.0,0.0,0.0,0.0,0.0,0.0,0.0,0.0,0.0,0.0,0.0,0.0,0.0,0.0,0.0,0.0,0.0,0.0,0.0,0.0,0.0,0.0,0.0,0.0,0.0,0.0,0.0,0.0,0.0,0.0,0.0,0.0,0.0,0.0,0.0,0.0,0.0,0.0,0.0,0.0,0.0,0.0,0.0,0.0,0.0,0.0,0.0,0.0,0.0,0.0,0.0,0.0,0.0,0.0,0.0,0.0,0.0,0.0,0.0,0.0,0.0,0.0,0.0,0.0,0.0,0.0,0.0,0.0,0.0,0.0,0.0,0.0,0.0,0.0,0.0,-0.0,-0.0,-0.0,-0.0,-0.0,-0.0,-0.0,-0.0,-0.0,-0.0,0.0,0.0,0.0,0.0,0.0,0.0,0.0,0.0,0.0,0.0,0.0,0.0,0.0,0.0,0.0,0.0,0.0,0.0,0.0,0.0,0.0,0.0,0.0,0.0,0.0,0.0,0.0,0.0,0.0,0.0,0.0,0.0,0.0,0.0,0.0,0.0,0.0,0.0,0.0,0.0,0.0,0.0,0.0,0.0,0.0,0.0,0.0,0.0,0.0,0.0,0.0,0.0,0.0,0.0,0.0,0.0,0.0,0.0,0.0,0.0,0.0,0.0,0.0,0.0,0.0,0.0,0.0,0.0,0.0,0.0,0.0,0.0,0.0,0.0,0.0,0.0,0.0,0.0,0.0,0.0,0.0,0.0,0.0,0.0,0.0,0.0,0.0,0.0,0.0,0.0,0.0,0.0,0.0,0.0,0.0,0.0,0.0,0.0,0.0,0.0,0.0,0.0,-0.0,-0.0,-0.0,-0.0,-0.0,-0.0,-0.0,-0.0,-0.0,-0.0,0.0,0.0,0.0,0.0,0.0,0.0,0.0,0.0,0.0,0.0,0.0,0.0,0.0,0.0,0.0,0.0,0.0,0.0,0.0,0.0,0.0,0.0,0.0,0.0,0.0,0.0,0.0,0.0,0.0,0.0,0.0,0.0,0.0,0.0,0.0,0.0,0.0,0.0,0.0,0.0,0.0,0.0,0.0,0.0,0.0,0.0,0.0,0.0,0.0,0.0,0.0,0.0,0.0,0.0,0.0,0.0,0.0,0.0,0.0,0.0,0.0,0.0,0.0,0.0,0.0,0.0,0.0,0.0,0.0,0.0,0.0,0.0,0.0,0.0,0.0,0.0,0.0,0.0,0.0,0.0,0.0,0.0,0.0,0.0,0.0,0.0,0.0,0.0,0.0,0.0,0.0,0.0,0.0,0.0,0.0,0.0,0.0,0.0,0.0,0.0,0.0,0.0,-0.0,-0.0,-0.0,-0.0,-0.0,-0.0,-0.0,-0.0,-0.0,0.0,0.0,0.0,0.0,0.0,0.0,0.0,0.0,0.0,0.0,0.0,0.0,0.0,0.0,0.0,0.0,0.0,0.0,0.0,0.0,0.0,0.0,0.0,0.0,0.0,0.0,0.0,0.0,0.0,0.0,0.0,0.0,0.0,0.0,0.0,0.0,0.0,0.0,0.0,0.0,0.0,0.0,0.0,0.0,0.0,0.0,0.0,0.0,0.0,0.0,0.0,0.0,0.0,0.0,0.0,0.0,0.0,0.0,0.0,0.0,0.0,0.0,0.0,0.0,0.0,0.0,0.0,0.0,0.0,0.0,0.0,0.0,0.0,0.0,0.0,0.0,0.0,0.0,0.0,0.0,0.0,0.0,0.0,0.0,0.0,0.0,0.0,0.0,0.0,0.0,0.0,0.0,0.0,0.0,0.0,0.0,0.0,0.0,0.0,0.0,0.0,0.0,-0.0,-0.0,-0.0,-0.0,-0.0,-0.0,-0.0,-0.0,-0.0,-0.0,0.0,0.0,0.0,0.0,0.0,0.0,0.0,0.0,0.0,0.0,0.0,0.0,0.0,0.0,0.0,0.0,0.0,0.0,0.0,0.0,0.0,0.0,0.0,0.0,0.0,0.0,0.0,0.0,0.0,0.0,0.0,0.0,0.0,0.0,0.0,0.0,0.0,0.0,0.0,0.0,0.0,0.0,0.0,0.0,0.0,0.0,0.0,0.0,0.0,0.0,0.0,0.0,0.0,0.0,0.0,0.0,0.0,0.0,0.0,0.0,0.0,0.0,0.0,0.0,0.0,0.0,0.0,0.0,0.0,0.0,0.0,0.0,0.0,0.0,0.0,0.0,0.0,0.0,0.0,0.0,0.0,0.0,0.0,0.0,0.0,0.0,0.0,0.0,0.0,0.0,0.0,0.0,0.0,0.0,0.0,0.0,0.0,0.0,0.0,0.0,0.0,0.0,-0.0,-0.0,-0.0,-0.0,-0.0,-0.0,-0.0,-0.0,-0.0,0.0,0.0,0.0,0.0,0.0,0.0,0.0,0.0,0.0,0.0,0.0,0.0,0.0,0.0,0.0,0.0,0.0,0.0,0.0,0.0,0.0,0.0,0.0,0.0,0.0,0.0,0.0,0.0,0.0,0.0,0.0,0.0,0.0,0.0,0.0,0.0,0.0,0.0,0.0,0.0,0.0,0.0,0.0,0.0,0.0,0.0,0.0,0.0,0.0,0.0,0.0,0.0,0.0,0.0,0.0,0.0,0.0,0.0,0.0,0.0,0.0,0.0,0.0,0.0,0.0,0.0,0.0,0.0,0.0,0.0,0.0,0.0,0.0,0.0,0.0,0.0,0.0,0.0,0.0,0.0,0.0,0.0,0.0,0.0,0.0,0.0,0.0,0.0,0.0,0.0,0.0,0.0,0.0,0.0,0.0,0.0,0.0,0.0,0.0,0.0,0.0,0.0,0.0,-0.0,-0.0,-0.0,-0.0,-0.0,-0.0,-0.0,-0.0,-0.0,-0.0,0.0,0.0,0.0,0.0,0.0,0.0,0.0,0.0,0.0,0.0,0.0,0.0,0.0,0.0,0.0,0.0,0.0,0.0,0.0,0.0,0.0,0.0,0.0,0.0,0.0,0.0,0.0,0.0,0.0,0.0,0.0,0.0,0.0,0.0,0.0,0.0,0.0,0.0,0.0,0.0,0.0,0.0,0.0,0.0,0.0,0.0,0.0,0.0,0.0,0.0,0.0,0.0,0.0,0.0,0.0,0.0,0.0,0.0,0.0,0.0,0.0,0.0,0.0,0.0,0.0,0.0,0.0,0.0,0.0,0.0,0.0,0.0,0.0,0.0,0.0,0.0,0.0,0.0,0.0,0.0,0.0,0.0,0.0,0.0,0.0,0.0,0.0,0.0,0.0,0.0,0.0,0.0,0.0,0.0,0.0,0.0,0.0,0.0,0.0,0.0,0.0,0.0,-0.0,-0.0,-0.0,-0.0,-0.0,-0.0,-0.0,-0.0,-0.0,-0.0,0.0,0.0,0.0,0.0,0.0,0.0,0.0,0.0,0.0,0.0,0.0,0.0,0.0,0.0,0.0,0.0,0.0,0.0,0.0,0.0,0.0,0.0,0.0,0.0,0.0,0.0,0.0,0.0,0.0,0.0,0.0,0.0,0.0,0.0,0.0,0.0,0.0,0.0,0.0,0.0,0.0,0.0,0.0,0.0,0.0,0.0,0.0,0.0,0.0,0.0,0.0,0.0,0.0,0.0,0.0,0.0,0.0,0.0,0.0,0.0,0.0,0.0,0.0,0.0,0.0,0.0,0.0,0.0,0.0,0.0,0.0,0.0,0.0,0.0,0.0,0.0,0.0,0.0,0.0,0.0,0.0,0.0,0.0,0.0,0.0,0.0,0.0,0.0,0.0,0.0,0.0,0.0,0.0,0.0,0.0,0.0,0.0,0.0,0.0,0.0,0.0,0.0,-0.0,-0.0,-0.0,-0.0,-0.0,-0.0,-0.0,-0.0,-0.0,-0.0,0.0,0.0,0.0,0.0,0.0,0.0,0.0,0.0,0.0,0.0,0.0,0.0,0.0,0.0,0.0,0.0,0.0,0.0,0.0,0.0,0.0,0.0,0.0,0.0,0.0,0.0,0.0,0.0,0.0,0.0,0.0,0.0,0.0,0.0,0.0,0.0,0.0,0.0,0.0,0.0,0.0,0.0,0.0,0.0,0.0,0.0,0.0,0.0,0.0,0.0,0.0,0.0,0.0,0.0,0.0,0.0,0.0,0.0,0.0,0.0,-0.4138,-0.3568,0.0,0.0,0.0,0.0,0.0,0.0,0.0,0.0,0.0,0.0,0.0,0.0,0.0,0.0,0.0,0.0,0.0,0.0,0.0,0.0,0.0,0.0,0.0,0.0,0.0,0.0,0.0,0.0,0.0,0.0,0.0,0.0,0.0,0.0,0.0,0.0,0.0,0.0,0.0,0.0,-0.0,-0.0,-0.0,-0.0,-0.0,-0.0,-0.0,-0.0,-0.0,-0.0,-0.0,0.0,0.0,0.0,0.0,0.0,0.0,0.0,0.0,0.0,0.0,0.0,0.0,0.0,0.0,0.0,0.0,0.0,0.0,0.0,0.0,0.0,0.0,0.0,0.0,0.0,0.0,0.0,0.0,0.0,0.0,0.0,0.0,0.0,0.0,0.0,0.0,0.0,0.0,0.0,0.0,0.0,0.0,0.0,0.0,0.0,0.0,0.0,0.0,0.0,0.0,0.0,0.0,0.0,0.0,0.0,0.0,0.0,0.0,0.0,-0.5128,-0.4511,0.0,0.0,0.0,0.0,0.0,0.0,0.0,0.0,0.0,0.0,0.0,0.0,0.0,0.0,0.0,0.0,0.0,0.0,0.0,0.0,0.0,0.0,0.0,0.0,0.0,0.0,0.0,0.0,0.0,0.0,0.0,0.0,0.0,0.0,0.0,0.0,0.0,0.0,0.0,0.0,-0.0,-0.0,-0.0,-0.0,-0.0,-0.0,-0.0,-0.0,-0.0,-0.0,-0.0,0.0,0.0,0.0,0.0,0.0,0.0,0.0,0.0,0.0,0.0,0.0,0.0,0.0,0.0,0.0,0.0,0.0,0.0,0.0,0.0,0.0,0.0,0.0,0.0,0.0,0.0,0.0,0.0,0.0,0.0,0.0,0.0,0.0,0.0,0.0,0.0,0.0,0.0,0.0,0.0,0.0,0.0,0.0,0.0,0.0,0.0,0.0,0.0,0.0,0.0,0.0,0.0,0.0,-0.6342,-0.6458,-0.6458,-0.6539,-0.6573,-0.6559,-0.6329,-0.5752,-0.4965,-0.502,0.0,0.0,0.0,0.0,0.0,0.0,0.0,0.0,0.0,0.0,0.0,0.0,0.0,0.0,0.0,0.0,0.0,0.0,0.0,0.0,0.0,0.0,-0.0,-0.0,-0.0,-0.0,-0.0,0.0,0.0,0.0,0.0,0.0,0.0,0.0,0.0,0.0,0.0,0.0,-0.0,-0.0,-0.0,-0.0,-0.0,-0.0,-0.0,-0.0,-0.0,-0.0,-0.0,-0.0,0.0,0.0,0.0,0.0,0.0,0.0,0.0,0.0,0.0,0.0,0.0,0.0,0.0,0.0,0.0,0.0,0.0,0.0,0.0,0.0,0.0,0.0,0.0,0.0,0.0,0.0,0.0,0.0,0.0,0.0,0.0,0.0,-0.4463,-0.406,0.0,0.0,0.0,0.0,0.0,0.0,0.0,0.0,0.0,0.0,0.0,0.0,0.0,-0.6044,-0.6098,-0.6261,-0.6396,-0.6424,-0.6966,-0.7224,-0.7238,-0.7624,-0.7807,-0.7807,-0.7902,0.0,-0.6023,-0.565,0.0,0.0,0.0,0.0,0.0,0.0,0.0,0.0,0.0,0.0,0.0,0.0,0.0,0.0,0.0,0.0,0.0,0.0,0.0,0.0,0.0,0.0,-0.0,-0.0,-0.0,-0.0,-0.0,-0.0,-0.0,-0.0,-0.0,-0.0,0.0,0.0,0.0,0.0,0.0,0.0,-0.0,-0.0,-0.0,-0.0,-0.0,-0.0,-0.0,-0.0,-0.0,-0.0,-0.0,-0.0,-0.0,-0.0,0.0,0.0,0.0,0.0,0.0,0.0,0.0,0.0,0.0,0.0,0.0,0.0,0.0,0.0,0.0,0.0,0.0,0.0,0.0,0.0,0.0,0.0,0.0,0.0,0.0,0.0,0.0,0.0,0.0,-0.4165,-0.4531,-0.4113,-0.4477,-0.4511,0.0,0.0,0.0,0.0,0.0,0.0,0.0,0.0,0.0,-0.5881,-0.6451,-0.6797,-0.6885,-0.7285,-0.7482,-0.7489,-0.7916,-0.8126,-0.8133,-0.8418,-0.8547,-0.8547,-0.8615,-0.8309,-0.7712,-0.7007,-0.6519,-0.6193,0.0,0.0,0.0,0.0,-0.5748,-0.5597,-0.5532,-0.5661,-0.5674,-0.4654,0.0,0.0,0.0,0.0,0.0,0.0,0.0,-0.0,-0.0,-0.0,-0.0,-0.0,-0.0,-0.0,-0.0,-0.0,-0.0,-0.0,-0.0,-0.0,-0.0,-0.0,0.0,0.0,0.0,-0.0,-0.0,-0.0,-0.0,-0.0,-0.0,-0.0,-0.0,-0.0,-0.0,-0.0,-0.0,-0.0,-0.0,-0.0,-0.0,0.0,0.0,0.0,0.0,0.0,0.0,0.0,0.0,0.0,0.0,0.0,0.0,0.0,0.0,0.0,0.0,0.0,0.0,0.0,0.0,0.0,0.0,0.0,0.0,0.0,0.0,0.0,0.0,-0.4538,-0.487,-0.4416,-0.4897,-0.504,0.0,0.0,0.0,0.0,0.0,0.0,-0.5806,-0.6315,-0.6654,-0.6756,-0.7265,-0.7597,-0.7712,-0.8235,-0.8499,-0.8499,-0.8757,-0.8879,-0.8886,-0.9001,-0.9049,-0.9049,-0.9049,-0.9049,-0.8988,-0.8126,-0.7509,-0.7088,-0.6973,-0.6932,-0.6926,-0.6885,-0.6786,-0.6616,-0.6492,-0.6837,-0.702,-0.5712,-0.3489,-0.1279,-0.1293,0.0,0.0,0.0,0.0,-0.0,-0.0,-0.0,-0.0,-0.0,-0.0,-0.0,-0.0,-0.0,-0.0,-0.0,-0.0,-0.0,-0.0,-0.0,0.0,-0.0,-0.0,-0.0,-0.0,-0.0,-0.0,-0.0,-0.0,-0.0,-0.0,-0.0,-0.0,-0.0,-0.0,-0.0,-0.0,-0.0,-0.0,-0.0,0.0,0.0,0.0,0.0,0.0,0.0,0.0,0.0,0.0,0.0,0.0,0.0,0.0,0.0,0.0,0.0,0.0,0.0,0.0,0.0,0.0,0.0,0.0,0.0,0.0,0.0,0.0,0.0,0.0,-0.5399,-0.5827,0.0,0.0,0.0,0.0,-0.6139,-0.6315,-0.641,-0.6424,-0.7129,-0.7536,-0.7543,-0.8248,-0.8635,-0.8642,-0.8954,-0.911,-0.911,-0.9273,-0.9347,-0.9347,-0.9354,-0.9361,-0.9361,-0.9361,-0.9361,-0.93,-0.8547,-0.8221,-0.8147,-0.7719,-0.7556,-0.7536,-0.7394,-0.7339,-0.7319,-0.717,-0.7312,-0.7687,-0.7591,-0.6239,-0.4661,-0.4661,-0.2504,0.0,0.0,-0.0,-0.0,-0.0,-0.0,-0.0,-0.0,-0.0,-0.0,-0.0,-0.0,-0.0,-0.0,-0.0,-0.0,-0.0,0.0,-0.0,-0.0,-0.0,-0.0,-0.0,-0.0,-0.0,-0.0,-0.0,-0.0,-0.0,-0.0,-0.0,-0.0,-0.0,-0.0,-0.0,-0.0,-0.0,-0.0,0.6111,0.0,0.0,0.0,0.0,0.0,0.0,0.0,0.0,0.0,0.0,0.0,0.0,0.0,0.0,0.0,0.0,0.0,0.0,0.0,0.0,0.0,0.0,0.0,0.0,0.0,0.0,0.0,0.0,-0.5827,-0.6403,0.0,-0.62,-0.6159,-0.6308,-0.6661,-0.7007,-0.7278,-0.7468,-0.8011,-0.8404,-0.8594,-0.8859,-0.9089,-0.9286,-0.9395,-0.949,-0.9585,-0.9741,-0.9808,-0.9815,-0.9917,-0.9958,-0.9958,-0.9958,-0.9958,-0.9937,-0.9673,-0.9334,-0.8967,-0.8811,-0.8743,-0.8737,-0.8682,-0.8662,-0.8655,-0.8601,-0.8694,-0.8807,-0.8714,-0.8282,-0.7949,-0.8309,-0.7509,-0.5751,-0.123,-0.0,-0.0,-0.0,-0.0,-0.0,-0.0,-0.0,-0.0,-0.0,-0.0,-0.0,-0.0,-0.0,-0.0,-0.0,-0.0,-0.0,-0.0,-0.0,-0.0,-0.0,-0.0,-0.0,-0.0,-0.0,-0.0,-0.0,-0.0,-0.0,-0.0,-0.0,-0.0,-0.0,-0.0,0.2191,0.6755,0.9137,1.0329,0.0,0.0,0.0,0.0,0.0,0.0,0.0,0.0,0.0,0.0,0.0,0.0,0.0,0.0,0.0,0.0,0.0,0.0,0.0,0.0,0.0,0.0,0.0,0.0,0.0,-0.58,-0.6315,-0.6261,-0.6824,-0.7143,-0.6939,-0.6973,-0.7149,-0.7502,-0.7902,-0.8208,-0.8404,-0.8798,-0.9103,-0.93,-0.9401,-0.9551,-0.9754,-0.9808,-0.9883,-0.9978,-1.008,-1.0127,-1.0134,-1.0236,-1.0283,-1.0283,-1.0283,-1.0283,-1.0283,-1.0283,-1.0046,-0.9686,-0.9686,-0.9686,-0.968,-0.9625,-0.9605,-0.9598,-0.9551,-0.953,-0.9544,-0.9486,-0.9506,-0.9731,-1.0193,-1.0281,-0.9401,-0.48,-0.2672,-0.155,-0.0358,-0.0,-0.0,-0.0,-0.0,-0.0,-0.0,-0.0,-0.0,-0.0,-0.0,-0.0,-0.0,-0.0,-0.0,-0.0,-0.0,-0.0,-0.0,-0.0,-0.0,-0.0,-0.0,-0.0,-0.0,-0.0,-0.0,-0.0,-0.0,-0.0,-0.0,-0.0,0.228,0.6934,0.9522,1.0565,1.0276,0.0,0.0,0.0,0.0,0.0,0.0,0.0,0.0,0.0,0.0,0.0,0.0,0.0,0.0,0.0,0.0,0.0,0.0,0.0,0.0,0.0,0.0,0.0,-0.548,-0.6288,-0.6885,-0.6756,-0.7129,-0.7516,-0.7814,-0.797,-0.8241,-0.8689,-0.8988,-0.9157,-0.9171,-0.9456,-0.9618,-0.9632,-0.991,-1.0059,-1.0066,-1.0215,-1.029,-1.0297,-1.0297,-1.0297,-1.0297,-1.0297,-1.0297,-1.0297,-1.0297,-1.0297,-1.0297,-1.0297,-1.0297,-1.029,-1.0283,-1.0283,-1.0263,-1.0114,-1.0059,-1.0032,-0.9883,-0.9836,-0.9863,-1.0012,-1.0059,-1.0086,-1.0243,-1.0304,-1.0452,-1.0458,-0.8114,-0.4756,-0.1286,-0.0129,-0.0,-0.0,-0.0,-0.0,-0.0,-0.0,-0.0,-0.0,-0.0,-0.0,-0.0,-0.0,-0.0,-0.0,-0.0,0.0,-0.0,-0.0,-0.0,-0.0,-0.0,-0.0,-0.0,-0.0,-0.0,-0.0,-0.0,-0.0,-0.0,-0.0,-0.0,-0.0,0.6788,1.034,1.0189,0.0,0.0,0.0,0.0,0.0,0.0,0.0,0.0,0.0,0.0,0.0,0.0,0.0,0.0,0.0,0.0,0.0,0.0,0.0,0.0,0.0,-0.6227,-0.6742,-0.6525,-0.6837,-0.7231,-0.7624,-0.7882,-0.814,-0.8438,-0.8499,-0.8669,-0.9008,-0.911,-0.9293,-0.9618,-0.972,-0.9863,-1.0086,-1.0175,-1.0263,-1.0371,-1.0412,-1.0487,-1.0602,-1.0602,-1.0602,-1.0602,-1.0602,-1.0602,-1.0602,-1.0602,-1.0602,-1.0602,-1.0602,-1.0602,-1.0575,-1.0365,-1.0283,-1.0276,-1.0236,-1.0215,-1.0209,-1.0168,-1.0154,-1.0161,-1.0202,-1.0215,-1.0243,-1.0392,-1.0439,-1.0473,-1.0602,-0.9977,-0.9059,-0.8,-0.3855,-0.0,-0.0,-0.0,-0.0,-0.0,-0.0,-0.0,-0.0,-0.0,-0.0,-0.0,-0.0,-0.0,-0.0,-0.0,-0.0,-0.0,-0.0,-0.0,-0.0,-0.0,-0.0,-0.0,-0.0,-0.0,-0.0,-0.0,-0.0,-0.0,-0.0,-0.0,-0.0,0.1873,0.4155,0.0,0.0,0.0,0.0,0.0,0.0,0.0,0.0,0.0,0.0,0.0,0.0,0.0,0.0,0.0,0.0,0.0,0.0,0.0,0.0,0.0,0.0,-0.6851,-0.7495,-0.757,-0.7651,-0.7834,-0.818,-0.8364,-0.8574,-0.8866,-0.8954,-0.9089,-0.9327,-0.9456,-0.9639,-0.9903,-1.0032,-1.0181,-1.0365,-1.0432,-1.0507,-1.0588,-1.0588,-1.0629,-1.0717,-1.0717,-1.0717,-1.0717,-1.0717,-1.0717,-1.0717,-1.0717,-1.0717,-1.0717,-1.0717,-1.0717,-1.0704,0.0,0.0,0.0,0.0,-1.0466,-1.0466,-1.0466,-1.0466,-1.0466,-1.0466,-1.0466,-1.048,-1.0561,-1.0595,-1.0636,-1.0665,-1.0739,-1.065,-1.073,-0.7556,-0.3698,-0.0685,-0.0,-0.0,-0.0,-0.0,-0.0,-0.0,-0.0,0.0,-0.0,-0.0,-0.0,-0.0,-0.0,-0.0,-0.0,-0.0,-0.0,-0.0,-0.0,-0.0,-0.0,-0.0,0.0,0.0,0.0,-0.0,-0.0,-0.0,0.0,0.0,0.0,0.1762,0.5437,0.5434,0.0,0.0,1.0826,1.0337,0.0,0.0,0.0,0.0,0.0,0.0,0.0,0.0,0.0,0.0,0.0,0.0,0.0,0.0,0.0,0.0,-0.7326,-0.7929,-0.8438,-0.8554,-0.8567,-0.854,-0.8655,-0.8852,-0.915,-0.93,-0.9449,-0.9618,-0.9876,-1.0046,-1.01,-1.0351,0.0,0.0,0.0,-1.0717,-1.0717,-1.0717,-1.0717,-1.0717,-1.0717,-1.0731,-1.0744,-1.0744,-1.0758,-1.0772,-1.0772,-1.0772,-1.0772,-1.0772,-1.0772,-1.0765,-1.0731,-1.0731,-1.0744,-1.0744,-1.0758,-1.0772,-1.0772,0.0,0.0,-1.0772,-1.0778,-1.0778,-1.0645,-1.0658,-1.0564,-1.0276,-1.034,-1.0679,-1.0689,-1.015,-0.7879,-0.1543,-0.0,-0.0,-0.0,-0.0,-0.0,-0.0,-0.0,-0.0,-0.0,-0.0,-0.0,-0.0,-0.0,-0.0,-0.0,-0.0,-0.0,-0.0,-0.0,0.0,-0.0,-0.0,-0.0,-0.0,-0.0,-0.0,-0.0,-0.0,-0.0,-0.0,-0.0,0.164,0.4732,0.4849,0.6602,0.9887,1.0365,1.0677,0.0,0.0,0.0,0.0,0.0,0.0,0.0,0.0,0.0,0.0,0.0,0.0,0.0,0.0,0.0,-0.7163,-0.8052,-0.8676,-0.8669,-0.8981,-0.9117,-0.8879,-0.8879,-0.9015,-0.9306,-0.9361,-0.949,-0.9761,-0.9836,-1.0025,-1.0385,-1.046,-1.0548,-1.067,-1.0704,-1.0717,-1.0717,-1.0717,-1.0717,-1.0717,-1.0717,0.0,-1.0907,-1.0907,-1.0968,-1.1077,-1.1077,-1.1077,-1.1077,-1.1077,-1.1077,-1.105,-1.0812,-1.0799,-1.0907,-1.0907,-1.0975,-1.1077,-1.1077,-1.1077,-1.1084,-1.0967,-1.0973,-1.098,-1.0718,-1.0724,0.0,-0.723,-0.8521,-1.0683,-1.0715,-0.6461,-0.1683,-0.0281,-0.0,-0.0,-0.0,-0.0,-0.0,-0.0,-0.0,-0.0,-0.0,-0.0,-0.0,-0.0,-0.0,-0.0,-0.0,-0.0,-0.0,-0.0,-0.0,-0.0,-0.0,-0.0,-0.0,-0.0,-0.0,-0.0,-0.0,-0.0,-0.0,-0.0,-0.0,0.0412,0.1096,0.1083,0.148,0.2289,0.513,0.8231,0.0,0.0,0.0,0.0,0.0,0.0,0.0,0.0,0.0,0.0,0.0,-0.5881,-0.6105,0.0,-0.7556,-0.7787,-0.8574,-0.9157,-0.9157,-0.9286,-0.9273,-0.8974,-0.9069,-0.9245,-0.9476,-0.9557,-0.9693,-0.9917,-1.0073,-1.0256,-1.048,-1.0561,-1.0643,-1.0717,-1.0717,-1.0717,-1.0717,-1.0799,-1.0833,-1.0833,-1.0907,-1.0982,-1.1056,-1.1056,-1.1097,-1.1165,-1.1165,-1.1165,-1.1165,-1.1165,-1.1165,-1.1151,-1.1002,-1.0989,-1.1056,-1.1056,-1.1097,-1.1165,-1.1165,-1.1165,-1.1165,-1.1179,-1.1047,-1.1054,-1.0935,-0.9527,-0.799,-0.8057,-0.6803,-0.5395,-0.5292,-0.2718,-0.0,-0.0,-0.0,-0.0,-0.0,-0.0,-0.0,-0.0,-0.0,-0.0,-0.0,-0.0,-0.0,-0.0,-0.0,-0.0,-0.0,-0.0,-0.0,-0.0,-0.0,-0.0,-0.0,-0.0,-0.0,-0.0,-0.0,-0.0,-0.0,-0.0,-0.0,-0.0,-0.0,-0.0,-0.0,-0.0,-0.0,-0.0,0.1921,0.3702,0.0,0.0,0.0,0.0,0.0,0.0,0.0,-0.7458,-0.6944,-0.6655,-0.6661,-0.6844,-0.7027,-0.7726,-0.8296,-0.8384,-0.9001,-0.951,-0.9632,-0.9598,-0.9456,-0.9184,-0.934,-0.953,-0.968,-0.9829,-0.9971,-1.012,-1.0358,-1.0507,-1.0534,-1.0656,-1.0717,-1.0717,-1.0751,-1.0765,-1.0765,-1.0914,-1.0989,-1.0989,-1.1104,-1.1179,-1.1206,-1.1206,-1.1219,-1.1253,-1.1253,-1.1253,-1.1253,-1.1253,-1.1253,-1.1253,-1.1253,-1.1253,-1.1246,-1.1219,-1.1226,-1.1253,-1.1253,-1.1253,-1.1253,-1.126,-1.126,-1.1267,-1.1154,-0.7888,-0.4938,-0.7884,-0.4453,-0.0,-0.0,-0.0,-0.0,-0.0,-0.0,-0.0,-0.0,-0.0,-0.0,-0.0,-0.0,-0.0,-0.0,-0.0,-0.0,-0.0,-0.0,-0.0,-0.0,-0.0,-0.0,-0.0,-0.0,-0.0,-0.0,-0.0,-0.0,-0.0,-0.0,-0.0,-0.0,-0.0,-0.0,-0.0,-0.0,-0.0,-0.0,-0.0,-0.0,-0.0,-0.0,-0.0,-0.9005,-0.9659,-1.0698,-1.0591,-1.0349,-1.004,0.0,-0.8389,-0.7473,-0.6826,-0.6898,-0.7177,-0.7468,-0.7936,-0.8397,-0.8798,-0.9374,-0.9774,-0.9795,-1.0019,-1.0114,-0.9944,-0.9836,-0.9829,-0.9985,-1.0141,-1.029,-1.0432,-1.0473,-1.0555,-1.0683,-1.0711,-1.0717,-1.0717,-1.0853,-1.0921,-1.0921,-1.1063,-1.1138,-1.1138,-1.1158,-1.1233,-1.1362,-1.1362,-1.1443,-1.1565,-1.1565,-1.1565,-1.1565,-1.1565,-1.1565,-1.1565,-1.1565,-1.1565,-1.1552,-1.1416,-1.145,-1.1565,-1.1565,-1.1565,-1.1572,-1.1592,-1.1599,-1.1606,-1.1496,-0.6372,-0.0724,-0.1015,-0.0581,-0.0,-0.0,-0.0,-0.0,-0.0,-0.0,-0.0,-0.0,-0.0,-0.0,-0.0,-0.0,-0.0,-0.0,-0.0,-0.0,-0.0,-0.0,-0.0,-0.0,-0.0,-0.0,-0.0,-0.0,-0.0,-0.0,-0.0,-0.0,-0.0,-0.0,-0.0,-0.0,-0.0,-0.0,-0.0,-0.0,-0.0,-0.0,-0.0,-0.0,-0.0,-0.0,-0.0,-1.2091,-1.1984,-1.1814,-1.1552,-1.1605,-1.127,-0.9283,-0.8694,-0.8444,-0.7987,-0.8038,-0.8248,-0.8465,-0.8804,-0.9137,-0.9408,-0.9734,-1.0019,-1.0188,-1.0249,-1.029,-1.0304,-1.0249,-1.0202,-1.0188,-1.0317,-1.0426,-1.0487,-1.0575,-1.0656,-1.0717,-1.0806,-1.0853,-1.0853,-1.0995,-1.107,-1.107,-1.1219,-1.1294,-1.1294,-1.1389,-1.1463,-1.1525,-1.1525,-1.1558,-1.1619,-1.1619,-1.1619,-1.1619,-1.1619,-1.1619,-1.1619,-1.1619,-1.1619,-1.1613,-1.1545,-1.1565,-1.1619,-1.1619,-1.1619,-1.1619,-1.1633,-1.1633,-1.1647,-1.1549,-0.934,-0.5818,-0.131,-0.0,-0.0,-0.0,-0.0,-0.0,-0.0,-0.0,-0.0,-0.0,-0.0,-0.0,-0.0,-0.0,-0.0,-0.0,-0.0,-0.0,-0.0,-0.0,-0.0,-0.0,-0.0,-0.0,-0.0,-0.0,-0.0,-0.0,-0.0,-0.0,-0.0,-0.0,-0.0,-0.0,-0.0,-0.0,-0.0,-0.0,-0.0,-0.0,-0.0,-0.0,-0.0,-0.0,-0.0,-1.3427,-1.3333,-1.2949,-1.2783,-1.2721,-1.2172,-1.0135,-0.9316,-0.8895,-0.8783,-0.8893,-0.9055,-0.9245,-0.9462,-0.9673,-0.9856,-1.0012,-1.0202,-1.046,-1.0439,-1.0439,-1.0541,-1.0555,-1.0514,-1.0412,-1.0493,-1.0555,-1.0555,-1.0656,-1.0738,-1.0778,-1.0887,-1.0968,-1.1002,-1.1151,-1.1226,-1.1226,-1.1375,-1.1457,-1.1457,-1.1565,-1.1619,-1.1619,-1.1619,-1.1619,-1.1619,-1.1619,-1.1619,-1.1619,-1.1619,-1.1619,-1.1619,-1.1619,-1.1619,-1.1619,-1.1619,-1.1619,-1.1619,-1.1619,-1.1619,-1.1619,-1.1619,-1.1619,-1.1633,-1.1569,-1.1147,-0.9383,-0.3233,-0.089,-0.0,-0.0,-0.0,-0.0,-0.0,-0.0,-0.0,-0.0,-0.0,-0.0,-0.0,-0.0,-0.0,-0.0,-0.0,-0.0,-0.0,-0.0,-0.0,-0.0,-0.0,-0.0,-0.0,-0.0,-0.0,-0.0,-0.0,-0.0,-0.0,-0.0,-0.0,-0.0,-0.0,-0.0,-0.0,-0.0,-0.0,-0.0,-0.0,-0.0,-0.0,-0.0,-0.0,-1.1276,-1.2545,-1.3678,-1.4276,-1.3472,-1.2557,-1.2547,-1.0548,-0.873,-0.8899,-0.9049,-0.9239,-0.9537,-0.9605,-0.9707,-0.9992,-1.0175,-1.0324,-1.0473,-1.0616,-1.0711,-1.0711,-1.0711,-1.0711,-1.0711,-1.0711,-1.0711,-1.0711,-1.0717,-1.0785,-1.0934,-1.0948,-1.1016,-1.1151,-1.1307,-1.1382,-1.1382,-1.1538,-1.1613,-1.1613,-1.1619,-1.1619,-1.1619,-1.1619,-1.1619,-1.1619,-1.1619,-1.1619,-1.1619,-1.1619,-1.1619,-1.1619,-1.1619,-1.1619,-1.1619,-1.1619,-1.1619,-1.1619,-1.1619,-1.1619,-1.1619,-1.1619,-1.1619,-1.1647,-1.1782,-1.0046,-0.7699,-0.6148,-0.2862,-0.0,-0.0,-0.0,-0.0,-0.0,-0.0,-0.0,-0.0,-0.0,-0.0,-0.0,-0.0,-0.0,-0.0,-0.0,-0.0,-0.0,-0.0,-0.0,-0.0,-0.0,-0.0,-0.0,-0.0,-0.0,-0.0,-0.0,-0.0,-0.0,-0.0,-0.0,-0.0,-0.0,-0.0,-0.0,-0.0,-0.0,-0.0,-0.0,-0.0,-0.0,-0.0,-0.0,-1.2946,-1.3988,-1.481,-1.4709,-1.3746,-1.2506,-1.1668,-1.0217,-0.9022,-0.9069,-0.9042,-0.9069,-0.9273,-0.9306,-0.9435,-0.9836,-1.0114,-1.0365,-1.0609,-1.069,-1.0717,-1.0717,-1.0717,-1.0717,-1.0717,-1.0717,-1.0717,-1.0717,-1.0812,-1.0894,-1.0948,-1.1131,-1.1267,-1.1314,-1.1463,-1.1545,-1.1545,-1.1592,-1.1619,-1.1619,-1.1619,-1.1619,-1.1619,-1.1619,-1.1619,-1.1619,-1.1619,-1.1619,-1.1619,-1.1619,-1.1619,-1.1626,-1.1721,-1.1762,-1.1775,-1.1877,-1.1911,-1.1898,-1.1796,-1.1823,-1.1911,-1.1911,-1.1911,-1.1925,-1.1709,-1.1282,-1.0697,-1.0329,-0.5334,-0.0,-0.0,-0.0,-0.0,-0.0,-0.0,-0.0,-0.0,-0.0,-0.0,-0.0,-0.0,-0.0,-0.0,-0.0,-0.0,-0.0,-0.0,-0.0,-0.0,-0.0,-0.0,-0.0,-0.0,-0.0,-0.0,-0.0,-0.0,-0.0,-0.0,-0.0,-0.0,-0.0,-0.0,-0.0,-0.0,-0.0,-0.0,-0.0,-0.0,-0.0,-0.0,-0.0,-1.4376,-1.5204,-1.5695,-1.5645,-1.4353,-1.2733,-1.1986,-1.0351,-0.9103,-0.9211,-0.9035,-0.892,-0.9117,-0.9022,-0.9042,-0.9442,-0.9673,-0.9958,-1.0419,-1.048,-1.0541,-1.0704,-1.0717,-1.0717,-1.0717,-1.0717,-1.0744,-1.0799,-1.0894,-1.0995,-1.1104,-1.1287,-1.1416,-1.147,-1.1565,-1.1619,-1.1619,-1.1619,-1.1619,-1.1619,-1.1619,-1.1619,-1.1619,-1.1619,-1.1619,-1.1619,-1.1619,-1.1647,-1.1694,-1.1694,-1.1728,-1.1789,-1.1877,-1.1911,-1.1925,-1.2026,-1.2094,-1.2121,-1.1965,-1.1986,-1.2074,-1.2067,-1.2074,-1.2094,-1.1874,-1.1901,-1.2237,-1.2359,-0.8674,-0.3725,-0.0776,-0.0,-0.0,-0.0,-0.0,-0.0,-0.0,-0.0,-0.0,-0.0,-0.0,-0.0,-0.0,-0.0,-0.0,-0.0,-0.0,-0.0,-0.0,-0.0,-0.0,-0.0,-0.0,-0.0,-0.0,-0.0,-0.0,-0.0,-0.0,-0.0,-0.0,-0.0,-0.0,-0.0,-0.0,-0.0,-0.0,-0.0,-0.0,-0.0,-0.0,-0.0,-1.5391,-1.6086,-1.6473,-1.7034,-1.5247,-1.3264,-1.3264,-1.1008,-0.9022,-0.9279,-0.8988,-0.8771,-0.9035,-0.8757,-0.8581,-0.8893,-0.8974,-0.9259,-0.9971,-1.008,-1.0243,-1.067,-1.0717,-1.0717,-1.0717,-1.0717,-1.0785,-1.0948,-1.0962,-1.1084,-1.1375,-1.1396,-1.147,-1.1613,-1.1619,-1.1619,-1.1619,-1.1619,-1.1619,-1.1619,-1.1619,-1.1619,-1.1619,-1.1619,-1.1619,-1.1619,-1.1626,-1.1708,-1.183,-1.1837,-1.1932,-1.206,-1.2074,-1.2074,-1.2074,-1.2081,-1.2176,-1.2277,-1.2135,-1.2101,-1.1971,-1.2094,-1.2108,-1.2162,-1.2146,-1.2186,-1.2226,-1.1947,-1.1842,-1.0085,-0.2042,-0.0,-0.0,-0.0,-0.0,-0.0,-0.0,-0.0,-0.0,-0.0,-0.0,-0.0,-0.0,-0.0,-0.0,-0.0,-0.0,-0.0,-0.0,-0.0,-0.0,-0.0,-0.0,-0.0,-0.0,-0.0,-0.0,-0.0,-0.0,-0.0,-0.0,-0.0,-0.0,-0.0,-0.0,-0.0,-0.0,-0.0,-0.0,-0.0,-0.0,-0.0,-1.5979,-1.67,-1.7288,-1.7435,-1.5376,-1.3264,-1.3264,-1.1101,-0.9028,-0.8764,-0.8533,-0.8336,-0.818,-0.8336,-0.8581,-0.8893,-0.9503,-1.0039,-1.0337,-1.048,-1.0595,-1.0704,-1.0717,-1.0717,-1.0717,-1.0717,-1.0826,-1.109,-1.1104,-1.1192,-1.1382,-1.1497,-1.1579,-1.1619,-1.1619,-1.1619,-1.1619,-1.1619,-1.1619,-1.1619,-1.1619,-1.1619,-1.1619,-1.1619,-1.1619,-1.1626,-1.1728,-1.1796,-1.1837,-1.1952,-1.2026,-1.2074,-1.2189,-1.223,-1.2244,-1.2352,-1.2413,-1.244,-1.2406,-1.2393,-1.2406,-1.242,-1.2433,-1.2454,-1.238,-1.24,-1.1137,-0.4863,-0.314,-0.2669,-0.0628,-0.0,-0.0,-0.0,-0.0,-0.0,-0.0,-0.0,-0.0,-0.0,-0.0,-0.0,-0.0,-0.0,-0.0,-0.0,-0.0,-0.0,-0.0,-0.0,-0.0,-0.0,-0.0,-0.0,-0.0,-0.0,-0.0,-0.0,-0.0,-0.0,-0.0,-0.0,-0.0,-0.0,-0.0,-0.0,-0.0,-0.0,-0.0,-0.0,-0.0,-0.0,-1.666,-1.7208,-1.7477,-1.6817,-1.4984,-1.3086,-1.2269,-1.0396,-0.8655,-0.8269,-0.7963,-0.774,-0.7638,-0.7929,-0.8241,-0.8418,-0.9198,-0.9883,-1.0161,-1.0331,-1.05,-1.0697,-1.0717,-1.0717,-1.0717,-1.0717,-1.0846,-1.1138,-1.1165,-1.126,-1.1477,-1.1572,-1.1619,-1.1619,-1.1619,-1.1619,-1.1619,-1.1619,-1.1619,-1.1619,-1.1619,-1.1619,-1.1619,-1.1619,-1.1653,-1.1714,-1.1796,-1.1904,-1.204,-1.2128,-1.2196,-1.2264,-1.2352,-1.2393,-1.2413,-1.2494,-1.2535,-1.2549,-1.2549,-1.2549,-1.2549,-1.2549,-1.0019,-0.7669,-1.1348,-1.2481,-1.0722,-0.2356,-0.0,-0.0,-0.0,-0.0,-0.0,-0.0,-0.0,-0.0,-0.0,-0.0,-0.0,-0.0,-0.0,-0.0,-0.0,-0.0,-0.0,-0.0,-0.0,-0.0,-0.0,-0.0,-0.0,-0.0,-0.0,-0.0,-0.0,-0.0,-0.0,-0.0,-0.0,-0.0,-0.0,-0.0,-0.0,-0.0,-0.0,-0.0,-0.0,-0.0,-0.0,-0.0,-0.0,-0.0,-1.7235,-1.7555,-1.7252,-1.5743,-1.4363,-1.2812,-1.0808,-0.9274,-0.8153,-0.7746,-0.7353,-0.7102,-0.7177,-0.7482,-0.7753,-0.7855,-0.8594,-0.9334,-0.9836,-1.0025,-1.0256,-1.067,-1.0717,-1.0717,-1.0717,-1.0717,-1.0846,-1.1138,-1.1165,-1.1294,-1.1606,-1.1619,-1.1619,-1.1619,-1.1619,-1.1619,-1.1619,-1.1619,-1.1619,-1.1619,-1.1619,-1.1619,-1.1619,-1.164,-1.1714,-1.183,-1.187,-1.204,-1.2291,-1.2311,-1.2393,-1.2501,-1.2501,-1.2522,-1.2556,-1.2549,-1.2096,-1.1804,-1.2284,-1.2447,-1.2447,-1.2576,-0.7513,-0.2817,-0.8968,-1.0878,-0.9291,-0.2042,-0.0,-0.0,-0.0,-0.0,-0.0,-0.0,-0.0,-0.0,-0.0,-0.0,-0.0,-0.0,-0.0,-0.0,-0.0,-0.0,-0.0,-0.0,-0.0,-0.0,-0.0,-0.0,-0.0,-0.0,-0.0,-0.0,-0.0,-0.0,-0.0,-0.0,-0.0,-0.0,-0.0,-0.0,-0.0,-0.0,-0.0,-0.0,-0.0,-0.0,-0.0,-0.0,-0.0,-0.0,-1.7101,-1.7395,-1.7252,-1.5743,-1.4386,-1.2891,-1.0843,-0.9274,-0.8011,-0.7082,-0.6831,-0.6675,-0.6329,-0.681,-0.7461,-0.8085,-0.873,-0.9435,-1.0263,-1.0399,-1.0493,-1.0697,-1.0717,-1.0717,-1.0717,-1.0717,-1.0846,-1.1138,-1.1165,-1.1294,-1.1606,-1.1619,-1.1619,-1.1619,-1.1619,-1.1619,-1.1619,-1.1619,-1.1619,-1.1619,-1.1619,-1.1619,-1.1619,-1.1742,-1.1809,-1.1843,-1.2101,-1.2244,-1.2298,-1.242,-1.2481,-1.2501,-1.2501,-1.2522,-1.2549,-1.2522,-1.0319,-0.7829,-1.1293,-1.2434,-1.2474,-1.2467,-1.151,-0.9286,-0.3768,-0.2199,-0.1885,-0.0471,-0.0,-0.0,-0.0,-0.0,-0.0,-0.0,-0.0,-0.0,-0.0,-0.0,-0.0,-0.0,-0.0,-0.0,-0.0,-0.0,-0.0,-0.0,-0.0,-0.0,-0.0,-0.0,-0.0,-0.0,-0.0,-0.0,-0.0,-0.0,-0.0,-0.0,-0.0,-0.0,-0.0,-0.0,-0.0,-0.0,-0.0,-0.0,-0.0,-0.0,-0.0,-0.0,-0.0,-0.0,-1.6834,-1.7021,-1.6639,-1.4545,-1.3602,-1.2327,-0.9527,-0.8275,-0.7502,-0.6451,-0.6234,-0.6166,-0.5949,-0.6525,-0.7149,-0.7516,-0.8526,-0.9422,-0.9856,-1.0317,-1.0636,-1.0711,-1.0717,-1.0717,-1.0717,-1.0717,-1.0846,-1.1138,-1.1165,-1.1294,-1.1606,-1.1619,-1.1619,-1.1619,-1.1619,-1.1619,-1.1619,-1.1619,-1.1619,-1.1619,-1.1619,-1.1619,-1.1626,-1.1769,-1.1877,-1.1965,-1.2189,-1.2332,-1.2406,-1.2474,-1.2501,-1.2501,-1.2501,-1.2522,-1.2393,-1.0785,-1.0019,-0.9745,-1.1804,-1.2467,-1.2507,-1.2507,-0.962,-0.5184,-0.1256,-0.0,-0.0,-0.0,-0.0,-0.0,-0.0,-0.0,-0.0,-0.0,-0.0,-0.0,-0.0,-0.0,-0.0,-0.0,-0.0,-0.0,-0.0,-0.0,-0.0,-0.0,-0.0,-0.0,-0.0,-0.0,-0.0,-0.0,-0.0,-0.0,-0.0,-0.0,-0.0,-0.0,-0.0,-0.0,-0.0,-0.0,-0.0,-0.0,-0.0,-0.0,-0.0,-0.0,-0.0,-0.0,-0.0,-0.0,-1.658,-1.6539,-1.5833,-1.3477,-1.2723,-1.1548,-0.8102,-0.7319,-0.7007,-0.5888,-0.5637,-0.561,-0.561,-0.6152,-0.6654,-0.6851,-0.7991,-0.8981,-0.9334,-0.9992,-1.0493,-1.0649,-1.0704,-1.0717,-1.0717,-1.0717,-1.0846,-1.1138,-1.1226,-1.1362,-1.1606,-1.1619,-1.1619,-1.1619,-1.1619,-1.1619,-1.1619,-1.1619,-1.1619,-1.1619,-1.1619,-1.1619,-1.1626,-1.1803,-1.1945,-1.2074,-1.2257,-1.24,-1.2501,-1.2501,-1.2501,-1.2501,-1.2501,-1.2522,-1.2232,-1.0008,-1.067,-1.2481,-1.2481,-1.1378,-0.9798,-0.9798,-0.535,-0.0,-0.0,-0.0,-0.0,-0.0,-0.0,-0.0,-0.0,-0.0,-0.0,-0.0,-0.0,-0.0,-0.0,-0.0,-0.0,-0.0,-0.0,-0.0,-0.0,-0.0,-0.0,-0.0,-0.0,-0.0,-0.0,-0.0,-0.0,-0.0,-0.0,-0.0,-0.0,-0.0,-0.0,-0.0,-0.0,-0.0,-0.0,-0.0,-0.0,-0.0,-0.0,-0.0,-0.0,-0.0,-0.0,-0.0,-0.0,-0.0,-1.6406,-1.596,-1.485,-1.3612,-1.2293,-1.0683,-0.7823,-0.7163,-0.6783,-0.546,-0.5087,-0.4999,-0.4999,-0.5277,-0.5772,-0.6586,-0.6966,-0.7672,-0.9171,-0.9449,-0.9754,-1.0432,-1.0636,-1.0717,-1.0717,-1.0717,-1.0846,-1.1138,-1.1423,-1.1592,-1.1619,-1.1619,-1.1619,-1.1619,-1.1619,-1.1619,-1.1619,-1.1619,-1.1619,-1.1619,-1.1619,-1.1619,-1.1626,-1.1911,-1.2047,-1.2081,-1.2359,-1.2488,-1.2501,-1.2501,-1.2501,-1.2501,-1.2501,-1.2522,-1.2393,-1.2232,-1.2271,-1.2481,-1.2481,-0.755,-0.1099,-0.1099,-0.0628,-0.0,-0.0,-0.0,-0.0,-0.0,-0.0,-0.0,-0.0,-0.0,-0.0,-0.0,-0.0,-0.0,-0.0,-0.0,-0.0,-0.0,-0.0,-0.0,-0.0,-0.0,-0.0,-0.0,-0.0,-0.0,-0.0,-0.0,-0.0,-0.0,-0.0,-0.0,-0.0,-0.0,-0.0,-0.0,-0.0,-0.0,-0.0,-0.0,-0.0,-0.0,-0.0,-0.0,-0.0,-0.0,-0.0,-0.0,-0.0,-0.0,-1.3785,-1.3689,-1.3205,-1.2065,-1.0984,-0.9649,-0.7457,-0.6661,-0.6078,-0.5189,-0.4958,-0.4918,-0.4918,-0.5087,-0.5372,-0.582,-0.6478,-0.7217,-0.8052,-0.8716,-0.9354,-1.0012,-1.0222,-1.0426,-1.069,-1.0717,-1.0846,-1.1138,-1.1443,-1.1619,-1.1619,-1.1619,-1.1619,-1.1619,-1.1619,-1.1619,-1.1619,-1.1619,-1.1619,-1.1619,-1.1619,-1.1619,-1.1633,-1.1925,-1.206,-1.2081,-1.2372,-1.2501,-1.2501,-1.2501,-1.2501,-1.2501,-1.2501,-1.2508,-1.2522,-1.2549,-1.0981,-0.911,-1.1673,-0.7076,-0.0,-0.0,-0.0,-0.0,-0.0,-0.0,-0.0,-0.0,-0.0,-0.0,-0.0,-0.0,-0.0,-0.0,-0.0,-0.0,-0.0,-0.0,-0.0,-0.0,-0.0,-0.0,-0.0,-0.0,-0.0,-0.0,-0.0,-0.0,-0.0,-0.0,-0.0,-0.0,-0.0,-0.0,-0.0,-0.0,-0.0,-0.0,-0.0,-0.0,-0.0,-0.0,-0.0,-0.0,-0.0,-0.0,-0.0,-0.0,-0.0,-0.0,-0.0,-0.0,-1.1854,-1.1934,-1.1531,-1.0906,-0.9788,-0.8535,-0.7083,-0.6247,-0.5555,-0.4918,-0.4782,-0.4782,-0.4782,-0.4904,-0.5067,-0.5264,-0.5989,-0.6715,-0.7231,-0.8052,-0.8845,-0.9483,-0.9734,-1.0025,-1.048,-1.0724,-1.0941,-1.1145,-1.1443,-1.1619,-1.1619,-1.1619,-1.1619,-1.1619,-1.1619,-1.1619,-1.1619,-1.1619,-1.1619,-1.1619,-1.1619,-1.1619,-1.1633,-1.1925,-1.206,-1.2081,-1.2372,-1.2501,-1.2501,-1.2501,-1.2501,-1.2501,-1.2501,-1.2501,-1.2508,-1.2542,-0.9864,-0.6573,-0.8163,-0.4865,-0.0,-0.0,-0.0,-0.0,-0.0,-0.0,-0.0,-0.0,-0.0,-0.0,-0.0,-0.0,-0.0,-0.0,-0.0,-0.0,-0.0,-0.0,-0.0,-0.0,-0.0,-0.0,-0.0,-0.0,-0.0,-0.0,-0.0,-0.0,-0.0,-0.0,-0.0,-0.0,-0.0,-0.0,-0.0,-0.0,-0.0,-0.0,-0.0,-0.0,-0.0,-0.0,-0.0,-0.0,-0.0,-0.0,-0.0,-0.0,-0.0,-0.0,-0.0,-0.0,-1.1347,-1.1,-1.0306,-1.0595,-0.9114,-0.74,-0.6647,-0.6017,-0.5379,-0.4676,-0.4525,-0.4525,-0.4525,-0.4592,-0.4789,-0.5087,-0.5399,-0.5962,-0.7,-0.7536,-0.8099,-0.8859,-0.9205,-0.9564,-1.0012,-1.0724,-1.1158,-1.1165,-1.1443,-1.1619,-1.1619,-1.1619,-1.1619,-1.1619,-1.1619,-1.1619,-1.1619,-1.1619,-1.1619,-1.1619,-1.1619,-1.1619,-1.1633,-1.1925,-1.206,-1.2081,-1.2372,-1.2501,-1.2501,-1.2501,-1.2501,-1.2501,-1.2501,-1.2501,-1.2508,-1.2542,-0.9864,-0.5786,-0.1564,-0.0,-0.0,-0.0,-0.0,-0.0,-0.0,-0.0,-0.0,-0.0,-0.0,-0.0,-0.0,-0.0,-0.0,-0.0,-0.0,-0.0,-0.0,-0.0,-0.0,-0.0,-0.0,-0.0,-0.0,-0.0,-0.0,-0.0,-0.0,-0.0,-0.0,-0.0,-0.0,-0.0,-0.0,-0.0,-0.0,-0.0,-0.0,-0.0,-0.0,-0.0,-0.0,-0.0,-0.0,-0.0,-0.0,-0.0,-0.0,-0.0,-0.0,-0.0,-0.0,-0.0,-0.7983,-0.7943,-0.7819,-0.796,-0.7069,-0.6166,-0.5922,-0.5325,-0.4807,-0.4567,-0.4519,-0.4519,-0.4519,-0.4674,-0.4877,-0.4972,-0.5406,-0.5922,-0.6464,-0.7272,-0.8092,-0.8852,-0.9741,-1.0351,-1.0493,-1.0907,-1.1165,-1.1165,-1.1443,-1.1619,-1.1619,-1.1619,-1.1619,-1.1619,-1.1619,-1.1619,-1.1619,-1.1619,-1.1619,-1.1619,-1.1619,-1.1619,-1.1633,-1.1925,-1.206,-1.2081,-1.2372,-1.2501,-1.2501,-1.2501,-1.2501,-1.2501,-1.2501,-1.2501,-1.2508,-1.2542,-1.1616,-0.9573,-0.2502,-0.0,-0.0,-0.0,-0.0,-0.0,-0.0,-0.0,-0.0,-0.0,-0.0,-0.0,-0.0,-0.0,-0.0,-0.0,-0.0,-0.0,-0.0,-0.0,-0.0,-0.0,-0.0,-0.0,-0.0,-0.0,-0.0,-0.0,-0.0,-0.0,-0.0,-0.0,-0.0,-0.0,-0.0,-0.0,-0.0,-0.0,-0.0,-0.0,-0.0,-0.0,-0.0,-0.0,-0.0,-0.0,-0.0,-0.0,-0.0,-0.0,-0.0,-0.0,-0.0,-0.0,-0.5983,-0.6335,-0.6532,-0.6532,-0.6017,-0.5501,-0.5501,-0.4965,-0.4519,-0.4519,-0.4519,-0.4519,-0.4519,-0.4667,-0.487,-0.4979,-0.5406,-0.5922,-0.6512,-0.7299,-0.8133,-0.9001,-0.991,-1.0466,-1.0466,-1.0887,-1.1165,-1.1165,-1.1443,-1.1619,-1.1619,-1.1619,-1.1619,-1.1619,-1.1619,-1.1619,-1.1619,-1.1619,-1.1619,-1.1619,-1.1619,-1.1619,-1.1626,-1.1864,-1.2006,-1.2074,-1.2318,-1.2454,0.0,-1.2501,-1.2501,-1.2501,-1.2501,-1.2501,-1.2508,-1.2528,-1.2556,-1.1473,-0.4691,-0.1409,-0.0,-0.0,-0.0,-0.0,-0.0,-0.0,-0.0,-0.0,-0.0,-0.0,-0.0,-0.0,-0.0,-0.0,-0.0,-0.0,-0.0,-0.0,-0.0,-0.0,-0.0,-0.0,-0.0,-0.0,-0.0,-0.0,-0.0,-0.0,-0.0,-0.0,-0.0,-0.0,-0.0,-0.0,-0.0,-0.0,-0.0,-0.0,-0.0,-0.0,-0.0,-0.0,-0.0,-0.0,-0.0,-0.0,-0.0,-0.0,-0.0,-0.0,-0.0,-0.0,0.0,-0.5813,-0.6208,-0.6208,-0.5782,-0.5363,-0.5363,-0.4924,0.0,-0.4519,-0.4519,-0.4519,-0.4532,-0.4606,-0.4802,-0.5101,-0.5413,-0.5976,-0.7,-0.7604,-0.8323,-0.9354,-0.9842,-1.01,-1.01,-1.0744,-1.1165,-1.1165,-1.1443,-1.1619,-1.1619,-1.1619,-1.1619,-1.1619,-1.1619,-1.1619,-1.1619,-1.1619,-1.1619,-1.1619,-1.1619,-1.1619,-1.1626,-1.1769,-1.1918,-1.2074,-1.2223,-1.2372,-1.2501,-1.2501,-1.2501,-1.2501,-1.2501,-1.2501,-1.2501,-1.2501,-1.2528,-1.1921,-0.8136,-0.3751,-0.0,-0.0,-0.0,-0.0,-0.0,-0.0,-0.0,-0.0,-0.0,-0.0,-0.0,-0.0,-0.0,-0.0,-0.0,-0.0,-0.0,-0.0,-0.0,-0.0,-0.0,-0.0,-0.0,-0.0,-0.0,-0.0,-0.0,-0.0,-0.0,-0.0,-0.0,-0.0,-0.0,-0.0,-0.0,-0.0,-0.0,-0.0,-0.0,-0.0,-0.0,-0.0,-0.0,-0.0,-0.0,-0.0,-0.0,-0.0,-0.0,-0.0,-0.0,-0.0,-0.4646,0.0,-0.4944,-0.4944,-0.4834,-0.4731,0.0,-0.4622,-0.4519,-0.4519,0.0,0.0,-0.4613,-0.4762,-0.4958,-0.5257,-0.5657,-0.6207,-0.7027,-0.8323,-0.949,-1.031,-1.05,-1.0561,-1.0561,-1.0928,-1.1165,-1.1165,-1.1443,-1.1619,-1.1619,-1.1619,-1.1619,-1.1619,-1.1619,-1.1619,-1.1619,-1.1619,-1.1619,-1.1619,-1.1619,-1.1619,-1.1626,-1.1769,-1.1918,-1.2074,-1.2223,-1.2372,-1.2501,-1.2501,-1.2501,-1.2501,-1.2501,-1.2501,-1.2501,-1.2501,-1.2542,-1.2427,-1.1454,-0.6261,-0.0,-0.0,-0.0,-0.0,-0.0,-0.0,-0.0,-0.0,-0.0,-0.0,-0.0,-0.0,-0.0,-0.0,-0.0,-0.0,-0.0,-0.0,-0.0,-0.0,-0.0,-0.0,-0.0,-0.0,-0.0,-0.0,-0.0,-0.0,-0.0,-0.0,-0.0,-0.0,-0.0,-0.0,-0.0,-0.0,-0.0,-0.0,-0.0,-0.0,-0.0,-0.0,-0.0,-0.0,-0.0,-0.0,-0.0,-0.0,-0.0,-0.0,-0.0,-0.0,-0.4321,-0.4409,-0.4519,-0.4519,-0.4519,-0.4519,-0.4519,-0.4519,-0.4519,-0.4519,0.0,0.0,-0.4674,-0.4925,-0.5196,-0.5426,-0.6017,-0.6776,-0.7726,-0.875,-0.9652,-1.0331,-1.0412,-1.0493,-1.0704,-1.0989,-1.1165,-1.1165,-1.1443,-1.1619,-1.1619,-1.1619,-1.1619,-1.1619,-1.1619,-1.1619,-1.1619,-1.1619,-1.1619,-1.1619,-1.1619,-1.1619,-1.1619,-1.1701,-1.1816,-1.1965,-1.2121,-1.2271,-1.2413,-1.2474,-1.2501,-1.2501,-1.2501,-1.2501,-1.2501,-1.2501,-1.2528,-1.2238,-1.0342,-0.548,-0.0,-0.0,-0.0,-0.0,-0.0,-0.0,-0.0,-0.0,-0.0,-0.0,-0.0,-0.0,-0.0,-0.0,-0.0,-0.0,-0.0,-0.0,-0.0,-0.0,-0.0,-0.0,-0.0,-0.0,-0.0,-0.0,-0.0,-0.0,-0.0,-0.0,-0.0,-0.0,-0.0,-0.0,-0.0,-0.0,-0.0,-0.0,-0.0,-0.0,-0.0,-0.0,-0.0,-0.0,-0.0,-0.0,-0.0,-0.0,-0.0,-0.0,-0.0,-0.0,-0.4153,-0.4436,-0.4663,-0.4546,-0.4519,-0.4519,-0.4519,-0.4519,-0.4525,-0.4546,0.0,-0.4714,-0.4782,-0.5101,-0.5433,-0.5657,-0.6525,-0.7563,-0.8689,-0.9144,-0.9557,-1.0086,-1.0154,-1.0304,-1.0683,-1.0989,-1.1165,-1.1165,-1.1443,-1.1619,-1.1619,-1.1619,-1.1619,-1.1619,-1.1619,-1.1619,-1.1619,-1.1619,-1.1619,-1.1619,-1.1619,-1.1619,-1.1619,-1.1619,-1.1694,-1.1837,-1.1993,-1.2149,-1.2298,-1.244,-1.2501,-1.2501,-1.2501,-1.2501,-1.2501,-1.2501,-1.2508,-1.1882,-0.703,-0.376,-0.1728,-0.0471,-0.0,-0.0,-0.0,-0.0,-0.0,-0.0,-0.0,-0.0,-0.0,-0.0,-0.0,-0.0,-0.0,-0.0,-0.0,-0.0,-0.0,-0.0,-0.0,-0.0,-0.0,-0.0,-0.0,-0.0,-0.0,-0.0,-0.0,-0.0,-0.0,-0.0,-0.0,-0.0,-0.0,-0.0,-0.0,-0.0,-0.0,-0.0,-0.0,-0.0,-0.0,-0.0,-0.0,-0.0,-0.0,-0.0,-0.0,-0.0,-0.0,-0.0,-0.4153,-0.4823,-0.5264,-0.4676,-0.4519,-0.4519,-0.4519,-0.4519,-0.4553,-0.4626,-0.4674,-0.4809,-0.5189,-0.5384,-0.5603,-0.6071,-0.7333,-0.8533,-0.9354,-0.9944,-1.0371,-1.0588,-1.0616,-1.0643,-1.0711,-1.0989,-1.1165,-1.1165,-1.1443,-1.1619,-1.1619,-1.1619,-1.1619,-1.1619,-1.1619,-1.1619,-1.1619,-1.1619,-1.1619,-1.1619,-1.1619,-1.1619,-1.1619,-1.1619,-1.1694,-1.1837,-1.1993,-1.2149,-1.2298,-1.244,-1.2501,-1.2501,-1.2501,-1.2501,-1.2501,-1.2501,-1.2522,-1.1436,-0.3593,-0.517,-0.9448,-0.2356,-0.0,-0.0,-0.0,-0.0,-0.0,-0.0,-0.0,-0.0,-0.0,-0.0,-0.0,-0.0,-0.0,-0.0,-0.0,-0.0,-0.0,-0.0,-0.0,-0.0,-0.0,-0.0,-0.0,-0.0,-0.0,-0.0,-0.0,-0.0,-0.0,-0.0,-0.0,-0.0,-0.0,-0.0,-0.0,-0.0,-0.0,-0.0,-0.0,-0.0,-0.0,-0.0,-0.0,-0.0,-0.0,-0.0,-0.0,-0.0,-0.0,-0.0,-0.4033,-0.4484,-0.4877,-0.4931,-0.5311,-0.565,-0.5569,-0.561,-0.5596,-0.5345,-0.542,-0.5501,-0.5452,-0.5827,-0.6566,-0.7645,-0.8262,-0.8866,-0.9618,-0.9822,-1.0005,-1.0324,-1.0358,-1.0453,-1.0697,-1.0989,-1.1165,-1.1165,-1.1443,-1.1619,-1.1619,-1.1619,-1.1619,-1.1619,-1.1619,-1.1619,-1.1619,-1.1619,-1.1619,-1.1619,-1.1619,-1.1619,-1.1619,-1.1619,-1.1653,-1.1728,-1.187,-1.2026,-1.2176,-1.2325,-1.2433,-1.2501,-1.2501,-1.2501,-1.2501,-1.2501,-1.2522,-1.1604,-0.5471,-0.4381,-0.5173,-0.1256,-0.0,-0.0,-0.0,-0.0,-0.0,-0.0,-0.0,-0.0,-0.0,-0.0,-0.0,-0.0,-0.0,-0.0,-0.0,-0.0,-0.0,-0.0,-0.0,-0.0,-0.0,-0.0,-0.0,-0.0,-0.0,-0.0,-0.0,-0.0,-0.0,-0.0,-0.0,-0.0,-0.0,-0.0,-0.0,-0.0,-0.0,-0.0,-0.0,-0.0,-0.0,-0.0,-0.0,-0.0,-0.0,-0.0,-0.0,-0.0,-0.0,-0.0,-0.4029,-0.4261,-0.4701,-0.527,-0.5827,-0.6274,-0.6437,-0.6512,-0.6464,-0.6173,-0.6329,-0.6369,-0.5867,-0.6525,-0.7543,-0.8791,-0.8981,-0.9205,-0.9883,-0.9815,-0.9822,-1.0168,-1.0209,-1.0344,-1.0683,-1.0989,-1.1165,-1.1165,-1.1443,-1.1619,-1.1619,-1.1619,-1.1619,-1.1619,-1.1619,-1.1619,-1.1619,-1.1619,-1.1619,-1.1619,-1.1619,-1.1619,-1.1619,-1.1619,-1.1619,-1.1626,-1.1769,-1.1918,-1.2074,-1.223,-1.2372,-1.2501,-1.2501,-1.2501,-1.2501,-1.2501,-1.2522,-1.2076,-0.8929,-0.4378,-0.0,-0.0,-0.0,-0.0,-0.0,-0.0,-0.0,-0.0,-0.0,-0.0,-0.0,-0.0,-0.0,-0.0,-0.0,-0.0,-0.0,-0.0,-0.0,-0.0,-0.0,-0.0,-0.0,-0.0,-0.0,-0.0,-0.0,-0.0,-0.0,-0.0,-0.0,-0.0,-0.0,-0.0,-0.0,-0.0,-0.0,-0.0,-0.0,-0.0,-0.0,-0.0,-0.0,-0.0,-0.0,-0.0,-0.0,-0.0,-0.0,-0.0,-0.0,-0.0,-0.414,-0.485,-0.5508,-0.5562,-0.5203,-0.5121,-0.622,-0.6268,-0.6261,-0.6912,-0.7177,-0.7231,-0.7048,-0.7414,-0.7916,-0.8445,-0.9211,-0.9903,-1.0378,-1.0548,-1.0636,-1.067,-1.067,-1.0683,-1.0717,-1.0989,-1.1165,-1.1165,-1.1443,-1.1619,-1.1619,-1.1619,-1.1619,-1.1619,-1.1619,-1.1619,-1.1619,-1.1619,-1.1619,-1.1619,-1.1619,-1.1619,-1.1619,-1.1619,-1.1619,-1.1626,-1.1769,-1.1918,-1.2074,-1.223,-1.2372,-1.2501,-1.2501,-1.2501,-1.2501,-1.2501,-1.2522,-1.24,-1.2115,-0.6736,-0.0,-0.0,-0.0,-0.0,-0.0,-0.0,-0.0,-0.0,-0.0,-0.0,-0.0,-0.0,-0.0,-0.0,-0.0,-0.0,-0.0,-0.0,-0.0,-0.0,-0.0,-0.0,-0.0,-0.0,-0.0,-0.0,-0.0,-0.0,-0.0,-0.0,-0.0,-0.0,-0.0,-0.0,-0.0,-0.0,-0.0,-0.0,-0.0,-0.0,-0.0,-0.0,-0.0,-0.0,-0.0,-0.0,-0.0,-0.0,-0.0,-0.0,-0.0,-0.0,-0.4153,-0.4836,-0.5467,-0.5562,-0.5555,-0.5861,-0.7156,-0.7434,-0.7529,-0.7896,-0.8099,-0.816,-0.8004,-0.8343,-0.8791,-0.9239,-0.9836,-1.0331,-1.0595,-1.0683,-1.0717,-1.0717,-1.0717,-1.0717,-1.0717,-1.0989,-1.1165,-1.1165,-1.1443,-1.1619,-1.1619,-1.1619,-1.1619,-1.1619,-1.1619,-1.1619,-1.1619,-1.1619,-1.1619,-1.1619,-1.1619,-1.1619,-1.1619,-1.1619,-1.1619,-1.1619,-1.1674,-1.1782,-1.1932,-1.2088,-1.2237,-1.2379,-1.2467,-1.2501,-1.2501,-1.2501,-1.2508,-1.2528,-1.2427,-0.8783,-0.3441,-0.0784,-0.0,-0.0,-0.0,-0.0,-0.0,-0.0,-0.0,-0.0,-0.0,-0.0,-0.0,-0.0,-0.0,-0.0,-0.0,-0.0,-0.0,-0.0,-0.0,-0.0,-0.0,-0.0,-0.0,-0.0,-0.0,-0.0,-0.0,-0.0,-0.0,-0.0,-0.0,-0.0,-0.0,-0.0,-0.0,-0.0,-0.0,-0.0,-0.0,-0.0,-0.0,-0.0,-0.0,-0.0,-0.0,-0.0,-0.0,-0.0,-0.0,-0.0,-0.426,-0.4721,-0.523,-0.5569,-0.5881,-0.6458,-0.7807,-0.8085,-0.8208,-0.873,-0.8886,-0.8893,-0.8784,-0.9096,-0.9462,-0.9774,-1.0236,-1.0602,-1.0704,-1.0717,-1.0717,-1.0717,-1.0717,-1.0717,-1.0717,-1.0989,-1.1165,-1.1165,-1.1443,-1.1619,-1.1619,-1.1619,-1.1619,-1.1619,-1.1619,-1.1619,-1.1619,-1.1619,-1.1619,-1.1619,-1.1619,-1.1619,-1.1619,-1.1619,-1.1619,-1.1619,-1.1619,-1.1701,-1.1843,-1.1999,-1.2176,-1.2366,-1.2461,-1.2501,-1.2501,-1.2501,-1.2501,-1.2515,-1.2427,-0.9729,-0.5633,-0.1412,-0.0,-0.0,-0.0,-0.0,-0.0,-0.0,-0.0,-0.0,-0.0,-0.0,-0.0,-0.0,-0.0,-0.0,-0.0,-0.0,-0.0,-0.0,-0.0,-0.0,-0.0,-0.0,-0.0,-0.0,-0.0,-0.0,-0.0,-0.0,-0.0,-0.0,-0.0,-0.0,-0.0,-0.0,-0.0,-0.0,-0.0,-0.0,-0.0,-0.0,-0.0,-0.0,-0.0,-0.0,-0.0,-0.0,-0.0,-0.0,-0.0,-0.0,-0.4436,-0.4579,-0.4884,-0.5616,-0.6044,-0.6627,-0.7963,-0.7929,-0.7991,-0.9334,-0.9496,-0.9388,-0.9388,-0.9625,-0.9829,-0.9822,-1.0324,-1.0717,-1.0717,-1.0717,-1.0717,-1.0717,-1.0717,-1.0717,-1.0717,-1.0989,-1.1158,-1.1165,-1.1443,-1.1619,-1.1619,-1.1619,-1.1619,-1.1619,-1.1619,-1.1619,-1.1619,-1.1619,-1.1619,-1.1619,-1.1619,-1.1619,-1.1619,-1.1619,-1.1619,-1.1619,-1.1619,-1.1701,-1.1843,-1.1999,-1.2237,-1.2501,-1.2501,-1.2501,-1.2501,-1.2501,-1.2501,-1.2515,-1.2427,-0.9735,-0.563,-0.1412,-0.0,-0.0,-0.0,-0.0,-0.0,-0.0,-0.0,-0.0,-0.0,-0.0,-0.0,-0.0,-0.0,-0.0,-0.0,-0.0,-0.0,-0.0,-0.0,-0.0,-0.0,-0.0,-0.0,-0.0,-0.0,-0.0,-0.0,-0.0,-0.0,-0.0,-0.0,-0.0,-0.0,-0.0,-0.0,-0.0,-0.0,-0.0,-0.0,-0.0,-0.0,-0.0,-0.0,-0.0,-0.0,-0.0,-0.0,-0.0,-0.0,-0.0,-0.4436,-0.5189,-0.5922,-0.5827,-0.6661,-0.7645,-0.8153,-0.8411,-0.8804,-0.9727,-0.9883,-0.9788,-0.9578,-0.9951,-1.0222,-1.0019,-1.0399,-1.0717,-1.0717,-1.0717,-1.0717,-1.0717,-1.0717,-1.0717,-1.0717,-1.0894,-1.1056,-1.1158,-1.1348,-1.1504,-1.1613,-1.1619,-1.1619,-1.1619,-1.1619,-1.1619,-1.1619,-1.1619,-1.1619,-1.1619,-1.1619,-1.1619,-1.1619,-1.1619,-1.1619,-1.1619,-1.1619,-1.1647,-1.1701,-1.1959,-1.2176,-1.2366,-1.2461,-1.2501,-1.2501,-1.2501,-1.2515,-1.2542,-1.2562,-1.1629,-0.9417,-0.2348,-0.0,-0.0,-0.0,-0.0,-0.0,-0.0,-0.0,-0.0,-0.0,-0.0,-0.0,-0.0,-0.0,-0.0,-0.0,-0.0,-0.0,-0.0,-0.0,-0.0,-0.0,-0.0,-0.0,-0.0,-0.0,-0.0,-0.0,-0.0,-0.0,-0.0,-0.0,-0.0,-0.0,-0.0,-0.0,-0.0,-0.0,-0.0,-0.0,-0.0,-0.0,-0.0,-0.0,-0.0,-0.0,-0.0,-0.0,-0.0,-0.0,-0.0,-0.4674,-0.5501,-0.6254,-0.6464,-0.7333,-0.8262,-0.8771,-0.9055,-0.9347,-0.9856,-1.0053,-1.0107,-0.9985,-1.0304,-1.0527,-1.0344,-1.0541,-1.0717,-1.0717,-1.0717,-1.0717,-1.0717,-1.0717,-1.0717,-1.0717,-1.086,-1.1009,-1.1151,-1.1307,-1.1457,-1.1613,-1.1619,-1.1619,-1.1619,-1.1619,-1.1619,-1.1619,-1.1619,-1.1619,-1.1619,-1.1619,-1.1619,-1.1619,-1.1619,-1.1619,-1.1619,-1.1619,-1.1653,-1.1721,-1.1965,-1.2149,-1.2305,-1.2447,-1.2501,-1.2501,-1.2501,-1.2515,-1.2373,-1.1268,-1.161,-1.1635,-0.6584,-0.2661,-0.0,-0.0,-0.0,-0.0,-0.0,-0.0,-0.0,-0.0,-0.0,-0.0,-0.0,-0.0,-0.0,-0.0,-0.0,-0.0,-0.0,-0.0,-0.0,-0.0,-0.0,-0.0,-0.0,-0.0,-0.0,-0.0,-0.0,-0.0,-0.0,-0.0,-0.0,-0.0,-0.0,-0.0,-0.0,-0.0,-0.0,-0.0,-0.0,-0.0,-0.0,-0.0,-0.0,-0.0,-0.0,-0.0,-0.0,-0.0,-0.0,-0.5155,-0.5677,-0.6247,-0.7346,-0.7977,-0.8587,-0.9557,-0.968,-0.9639,-0.9822,-1.0086,-1.0324,-1.0466,-1.0616,-1.0717,-1.0717,-1.0717,-1.0717,-1.0717,-1.0717,-1.0717,-1.0717,-1.0717,-1.0717,-1.0717,-1.0846,-1.0989,-1.1131,-1.128,-1.1436,-1.1592,-1.1613,-1.1619,-1.1619,-1.1619,-1.1619,-1.1619,-1.1619,-1.1619,-1.1619,-1.1619,-1.1619,-1.1619,-1.1619,-1.1619,-1.1619,-1.1619,-1.1694,-1.1823,-1.1979,-1.2135,-1.2284,-1.2427,-1.2488,-1.2501,-1.2501,-1.2501,-1.2192,-0.9521,-1.0325,-1.2562,-1.246,-0.7377,-0.0939,-0.0157,-0.0,-0.0,-0.0,-0.0,-0.0,-0.0,-0.0,-0.0,-0.0,-0.0,-0.0,-0.0,-0.0,-0.0,-0.0,-0.0,-0.0,-0.0,-0.0,-0.0,-0.0,-0.0,-0.0,-0.0,-0.0,-0.0,-0.0,-0.0,-0.0,-0.0,-0.0,-0.0,-0.0,-0.0,-0.0,-0.0,-0.0,-0.0,-0.0,-0.0,-0.0,-0.0,-0.0,-0.0,-0.0,-0.0,-0.0,-0.542,-0.6437,0.0,-0.7699,-0.8282,-0.8913,-0.9374,-0.9449,-0.9571,-1.008,-1.0236,-1.0324,-1.0466,-1.0616,-1.0717,-1.0717,-1.0717,-1.0717,-1.0717,-1.0717,-1.0717,-1.0717,-1.0717,-1.0717,-1.0717,-1.0751,-1.0833,-1.0982,-1.1131,-1.128,-1.143,-1.1552,-1.1619,-1.1619,-1.1619,-1.1619,-1.1619,-1.1619,-1.1619,-1.1619,-1.1619,-1.1619,-1.1619,-1.1619,-1.1619,-1.1619,-1.1619,-1.164,-1.1674,-1.1823,-1.1972,-1.2128,-1.2277,-1.2406,-1.2501,-1.2501,-1.2522,-1.238,-1.1882,-1.207,-1.2434,-1.2576,-1.1323,-0.8646,-0.2036,-0.0,-0.0,-0.0,-0.0,-0.0,-0.0,-0.0,-0.0,-0.0,-0.0,-0.0,-0.0,-0.0,-0.0,-0.0,-0.0,-0.0,-0.0,-0.0,-0.0,-0.0,-0.0,-0.0,-0.0,-0.0,-0.0,-0.0,-0.0,-0.0,-0.0,-0.0,-0.0,-0.0,-0.0,-0.0,-0.0,-0.0,-0.0,-0.0,-0.0,-0.0,-0.0,-0.0,-0.0,-0.0,-0.0,-0.0,0.0,0.0,0.0,-0.8153,-0.8703,-0.9117,-0.9422,-0.949,-0.9639,-1.0168,-1.0283,-1.0344,-1.0561,-1.0663,-1.0717,-1.0717,-1.0717,-1.0717,-1.0717,-1.0717,-1.0717,-1.0717,-1.0717,-1.0717,-1.0717,-1.0717,-1.0785,-1.0934,-1.1084,-1.1226,-1.1382,-1.1538,-1.1619,-1.1619,-1.1619,-1.1619,-1.1619,-1.1619,-1.1619,-1.1619,-1.1619,-1.1619,-1.1619,-1.1619,-1.1619,-1.1619,-1.1619,-1.1619,-1.1633,-1.1775,-1.1925,-1.2081,-1.223,-1.2379,-1.2501,-1.2501,-1.2515,-1.2528,-1.2508,-1.2528,-1.2238,-1.0958,-1.1454,-1.1323,-0.5006,-0.2974,-0.2664,-0.0627,-0.0,-0.0,-0.0,-0.0,-0.0,-0.0,-0.0,-0.0,-0.0,-0.0,-0.0,-0.0,-0.0,-0.0,-0.0,-0.0,-0.0,-0.0,-0.0,-0.0,-0.0,-0.0,-0.0,-0.0,-0.0,-0.0,-0.0,-0.0,-0.0,-0.0,-0.0,-0.0,-0.0,-0.0,-0.0,-0.0,-0.0,-0.0,-0.0,-0.0,-0.0,-0.0,-0.0,-0.0,0.0,0.0,-0.7061,-0.856,-0.9028,-0.9198,-0.9503,-0.9571,-0.97,-1.0148,-1.0263,-1.0371,-1.0663,-1.0717,-1.0717,-1.0717,-1.0717,-1.0717,-1.0717,-1.0717,-1.0717,-1.0717,-1.0717,-1.0717,-1.0717,-1.0717,-1.0772,-1.09,-1.1043,-1.1192,-1.1341,-1.1497,-1.1592,-1.1619,-1.1619,-1.1619,-1.1619,-1.1619,-1.1619,-1.1619,-1.1619,-1.1619,-1.1619,-1.1619,-1.1619,-1.1619,-1.1619,-1.1619,-1.1626,-1.1748,-1.1898,-1.2074,-1.2203,-1.2352,-1.2501,-1.2501,-1.2501,-1.2501,-1.2501,-1.2508,-1.2192,-0.9837,-1.0641,-1.1927,-0.8453,-0.7353,-0.6573,-0.3128,-0.1095,-0.0,-0.0,-0.0,-0.0,-0.0,-0.0,-0.0,-0.0,-0.0,-0.0,-0.0,-0.0,-0.0,-0.0,-0.0,-0.0,-0.0,-0.0,-0.0,-0.0,-0.0,-0.0,-0.0,-0.0,-0.0,-0.0,-0.0,-0.0,-0.0,-0.0,-0.0,-0.0,-0.0,-0.0,-0.0,-0.0,-0.0,-0.0,-0.0,-0.0,-0.0,-0.0,-0.0,0.0,0.0,-0.7841,0.0,-0.8954,-0.9042,-0.9347,-0.9408,-0.9537,-0.9985,-1.0188,-1.0371,-1.0663,-1.0717,-1.0717,-1.0717,-1.0717,-1.0717,-1.0717,-1.0717,-1.0717,-1.0717,-1.0717,-1.0717,-1.0717,-1.0717,-1.0731,-1.0751,-1.0894,-1.1043,-1.1185,-1.1341,-1.1484,-1.1613,-1.1619,-1.1619,-1.1619,-1.1619,-1.1619,-1.1619,-1.1619,-1.1619,-1.1619,-1.1619,-1.1619,-1.1619,-1.1619,-1.1619,-1.1619,-1.164,-1.1809,-1.206,-1.2088,-1.2264,-1.2501,-1.2501,-1.2501,-1.2501,-1.2501,-1.2522,-1.2387,-1.2037,-1.2232,-1.2434,-1.1772,-1.1622,-1.1491,-1.1029,-0.5642,-0.0,-0.0,-0.0,-0.0,-0.0,-0.0,-0.0,-0.0,-0.0,-0.0,-0.0,-0.0,-0.0,-0.0,-0.0,-0.0,-0.0,-0.0,-0.0,-0.0,-0.0,-0.0,-0.0,-0.0,-0.0,-0.0,-0.0,-0.0,-0.0,-0.0,-0.0,-0.0,-0.0,-0.0,-0.0,-0.0,-0.0,-0.0,-0.0,-0.0,-0.0,-0.0,-0.0,-0.5596,-0.6817,-0.7991,0.0,-0.9001,-0.9117,-0.9334,-0.9449,-0.9585,-0.9863,-1.0114,-1.0344,-1.0555,-1.0663,-1.0717,-1.0717,-1.0717,-1.0717,-1.0717,-1.0717,-1.0717,-1.0717,-1.0717,-1.0717,-1.0717,-1.0717,-1.0717,-1.0717,-1.086,-1.1009,-1.1158,-1.1307,-1.1463,-1.1613,-1.1619,-1.1619,-1.1619,-1.1619,-1.1619,-1.1619,-1.1619,-1.1619,-1.1619,-1.1619,-1.1619,-1.1619,-1.1619,-1.1619,-1.1619,-1.1619,-1.1742,-1.1938,-1.2026,-1.2196,-1.2393,-1.2474,-1.2501,-1.2501,-1.2501,-1.2515,-1.2522,-1.2508,-1.2522,-1.2542,-1.2528,-1.2535,-1.2556,-1.2427,-0.8769,-0.3903,-0.0783,-0.0,-0.1272,-0.6324,-0.3596,-0.0,-0.0,-0.0,-0.0,-0.0,-0.0,-0.0,-0.0,-0.0,-0.0,-0.0,-0.0,-0.0,-0.0,-0.0,-0.0,-0.0,-0.0,-0.0,-0.0,-0.0,-0.0,-0.0,-0.0,-0.0,-0.0,-0.4883,-0.5222,-0.0168,-0.0,-0.0,-0.0,-0.0,-0.0,-0.0,-0.0,-0.0,0.0,0.0,-0.7421,-0.8404,-0.873,-0.8913,-0.9293,-0.9442,-0.9557,-0.9774,-1.0005,-1.0209,-1.0351,-1.0568,-1.0717,-1.0717,-1.0717,-1.0717,-1.0717,-1.0717,-1.0717,-1.0717,-1.0717,-1.0717,-1.0717,-1.0717,-1.0717,-1.0717,-1.0826,-1.0955,-1.1097,-1.1253,-1.1402,-1.1558,-1.1599,-1.1619,-1.1619,-1.1619,-1.1619,-1.1619,-1.1619,-1.1619,-1.1619,-1.1619,-1.1619,-1.1619,-1.1619,-1.1619,-1.1619,-1.1619,-1.1701,-1.1843,-1.1999,-1.2155,-1.2311,-1.2447,-1.2501,-1.2501,-1.2501,-1.2501,-1.2501,-1.2501,-1.2501,-1.2501,-1.2501,-1.2501,-1.2508,-1.2542,-1.0958,-0.8434,-0.422,-0.2366,-0.3353,-1.0072,-0.7386,-0.3483,-0.335,-0.1681,-0.0,-0.0,-0.0,-0.0,-0.0,-0.1852,-0.2694,-0.0337,-0.0,-0.0,-0.0,-0.0,-0.0842,-0.3199,-0.3367,-0.2861,-0.1849,-0.0673,-0.0505,-0.1681,-0.2692,-0.2861,-0.1681,-0.8085,-0.91,-0.3532,-0.2354,-0.1178,-0.0,-0.0,-0.0,-0.0,-0.0,-0.0,-0.5178,-0.5514,0.0,-0.7468,-0.7875,-0.8147,-0.915,-0.9273,-0.93,-0.9734,-0.9836,-0.989,-1.0046,-1.0426,-1.0717,-1.0717,-1.0717,-1.0717,-1.0717,-1.0717,-1.0717,-1.0717,-1.0717,-1.0717,-1.0717,-1.0717,-1.0717,-1.0717,-1.0724,-1.0799,-1.0955,-1.1097,-1.1246,-1.1396,-1.1545,-1.1619,-1.1619,-1.1619,-1.1619,-1.1619,-1.1619,-1.1619,-1.1619,-1.1619,-1.1619,-1.1619,-1.1619,-1.1619,-1.1619,-1.1619,-1.1701,-1.1843,-1.1999,-1.2155,-1.2311,-1.2447,-1.2501,-1.2501,-1.2501,-1.2501,-1.2501,-1.2501,-1.2501,-1.2501,-1.2501,-1.2501,-1.2508,-1.2542,-1.2393,-1.2245,-1.1959,-0.9174,-0.6543,-0.6945,-0.9998,-1.2656,-1.2656,-0.6065,-0.0,-0.0,-0.0,-0.0,-0.0,-0.7077,-0.9795,-0.1347,-0.0,-0.0,-0.0,-0.0,-0.3199,-1.1843,-1.2701,-1.097,-0.6707,-0.2514,-0.1844,-0.6032,-1.0283,-1.0797,-0.6536,-0.6871,-0.8896,-1.265,-0.8562,-0.4195,-0.0,-0.0,-0.0,-0.0,-0.0,-0.0,-0.4952,0.0,0.0,-0.681,-0.7529,-0.8031,-0.8309,-0.8927,-0.9462,-0.9523,-0.9768,-0.9985,-1.0039,-1.0337,-1.0575,-1.0575,-1.0656,-1.0717,-1.0717,-1.0717,-1.0717,-1.0717,-1.0717,-1.0717,-1.0717,-1.0717,-1.0717,-1.0717,-1.0717,-1.0785,-1.0941,-1.0995,-1.1138,-1.1382,-1.1443,-1.1518,-1.1619,-1.1619,-1.1619,-1.1619,-1.1619,-1.1619,-1.1619,-1.1619,-1.1619,-1.1619,-1.1619,-1.1619,-1.1619,-1.1619,-1.1647,-1.1721,-1.1965,-1.2094,-1.2176,-1.2413,-1.2501,-1.2501,-1.2501,-1.2501,-1.2501,-1.2501,-1.2501,-1.2501,-1.2501,-1.2501,-1.2508,-1.2515,-1.2522,-1.2528,-1.2562,-1.1396,-1.0577,-1.0964,-1.2275,-1.341,-1.3471,-1.0942,-0.7733,-0.486,-0.4358,-0.436,-0.436,-0.7052,-0.8914,-0.8584,-0.6208,-0.4356,-0.436,-0.436,-0.5538,-0.8742,-1.1634,-1.283,-1.1109,-0.9584,-0.806,-0.6703,-1.0948,-1.2663,-1.1104,-1.092,-1.1772,-1.3338,-1.1772,-0.872,-0.436,-0.436,-0.436,-0.436,-0.436,-0.2684,-0.4504,-0.4796,-0.5128,-0.603,-0.6736,-0.7333,-0.7787,-0.8465,-0.9089,-0.9395,-0.9652,-0.9856,-0.9951,-1.0175,-1.0378,-1.0473,-1.0575,-1.0663,-1.0711,-1.0717,-1.0717,-1.0717,-1.0717,-1.0717,-1.0717,-1.0717,-1.0717,-1.0717,-1.0717,-1.0765,-1.0867,-1.0921,-1.1084,-1.1382,-1.1389,-1.1463,-1.1619,-1.1619,-1.1619,-1.1619,-1.1619,-1.1619,-1.1619,-1.1619,-1.1619,-1.1619,-1.1619,-1.1619,-1.1619,-1.1619,-1.1619,-1.1647,-1.1891,-1.2013,-1.2094,-1.2338,-1.2461,-1.2501,-1.2501,-1.2501,-1.2501,-1.2501,-1.2501,-1.2501,-1.2501,-1.2501,-1.2501,-1.2501,-1.2501,-1.2508,-1.2528,-1.2527,-1.2749,-1.318,-1.3342,-1.3437,-1.3437,-1.3471,-1.247,-0.9564,-0.8892,-0.8896,-0.8896,-0.8892,-0.9903,-1.2991,-1.0926,-0.8887,-0.8896,-0.8896,-0.8896,-0.8887,-1.1605,-1.3478,-1.3471,-1.3478,-1.2111,-0.9212,-1.1766,-1.3478,-1.3471,-1.3444,-1.3444,-1.3471,-1.3444,-1.1908,-0.8874,-0.8892,-0.8896,-0.8896,-0.8896,-0.654,0.0,0.0,0.0,-0.5108,-0.546,-0.601,-0.7604,-0.7875,-0.8126,-0.932,-0.9456,-0.9456,-0.9761,-0.9937,-1.0141,-1.0432,-1.048,-1.0541,-1.069,-1.0711,-1.0717,-1.0717,-1.0717,-1.0717,-1.0717,-1.0717,-1.0717,-1.0717,-1.0717,-1.0717,-1.0717,-1.0867,-1.1084,-1.1369,-1.1389,-1.1463,-1.1613,-1.1619,-1.1619,-1.1619,-1.1619,-1.1619,-1.1619,-1.1619,-1.1619,-1.1619,-1.1619,-1.1619,-1.1619,-1.1619,-1.1619,-1.1633,-1.1775,-1.1925,-1.2081,-1.2237,-1.2379,-1.2501,-1.2501,-1.2501,-1.2501,-1.2501,-1.2501,-1.2501,-1.2501,-1.2501,-1.2501,-1.2501,-1.2501,-1.2501,-1.2508,-1.2739,-1.3003,-1.3139,-1.3288,-1.3403,-1.3403,-1.3451,-1.3325,-1.3458,-1.3478,-1.3331,-1.3331,-1.3471,-1.3464,-1.3325,-1.3471,-1.3464,-1.3331,-1.3331,-1.3318,-1.3451,-1.3451,-1.3437,-1.3403,-1.3431,-1.3437,-1.3403,-1.3431,-1.3437,-1.3403,-1.3403,-1.3403,-1.3403,-1.3403,-1.3403,-1.3403,-1.3464,-1.3331,-1.3331,-1.3331,-1.1104,-0.3751,0.0,0.0,0.0,0.0,0.0,-0.6166,-0.6817,-0.7543,-0.8316,-0.8703,-0.9055,-0.9571,-0.9788,-0.9944,-1.0141,-1.0263,-1.0392,-1.0534,-1.0555,-1.0595,-1.0711,-1.0717,-1.0717,-1.0717,-1.0717,-1.0717,-1.0717,-1.0717,-1.0717,-1.0717,-1.0867,-1.0989,-1.107,-1.128,-1.1409,-1.1457,-1.1565,-1.1619,-1.1619,-1.1619,-1.1619,-1.1619,-1.1619,-1.1619,-1.1619,-1.1619,-1.1619,-1.1619,-1.1619,-1.1619,-1.1633,-1.1775,-1.1925,-1.2081,-1.2237,-1.2379,-1.2501,-1.2501,-1.2501,-1.2501,-1.2501,-1.2501,-1.2501,-1.2501,-1.2501,-1.2501,-1.2501,-1.2501,-1.2528,-1.2637,-1.2888,-1.3125,-1.3166,-1.3288,-1.3403,-1.3403,-1.3417,-1.3424,-1.3417,-1.3424,-1.3431,-1.3431,-1.3424,-1.3417,-1.3431,-1.3424,-1.3417,-1.3431,-1.3431,-1.3424,-1.3417,-1.3417,-1.341,-1.3403,-1.341,-1.341,-1.3403,-1.341,-1.341,-1.3403,-1.3403,-1.3403,-1.3403,-1.3403,-1.3403,-1.3403,-1.3417,-1.3431,-1.3431,-1.3458,-1.2778,-0.3697,-0.3812,-0.3961,-0.4066,0.0,0.0,-0.5895,-0.6525,-0.7272,-0.837,-0.8804,-0.9117,-0.9537,-0.9727,-0.9829,-0.9863,-0.9992,-1.0181,-1.0453,-1.0548,-1.0622,-1.0711,-1.0778,-1.0792,-1.0724,-1.0778,-1.0785,-1.0724,-1.0717,-1.0717,-1.0717,-1.0806,-1.088,-1.0948,-1.1172,-1.1328,-1.1389,-1.1545,-1.1619,-1.1619,-1.1619,-1.1619,-1.1619,-1.1619,-1.1619,-1.1619,-1.1619,-1.1619,-1.1619,-1.1619,-1.1619,-1.1626,-1.1708,-1.183,-1.1986,-1.2142,-1.2284,-1.242,-1.2481,-1.2501,-1.2501,-1.2501,-1.2501,-1.2501,-1.2501,-1.2501,-1.2501,-1.2501,-1.2549,-1.2617,-1.2705,-1.2949,-1.3173,-1.3173,-1.3288,-1.3403,-1.3403,-1.3403,-1.3403,-1.3403,-1.3403,-1.3403,-1.3403,-1.3403,-1.3403,-1.3403,-1.3403,-1.3403,-1.3403,-1.3403,-1.3403,-1.3403,-1.3403,-1.3403,-1.3403,-1.3403,-1.3403,-1.3403,-1.3403,-1.3403,-1.3403,-1.3403,-1.3403,-1.3403,-1.3403,-1.3403,-1.3403,-1.3403,-1.3403,-1.3403,-1.3424,-1.3431,-0.3663,-0.3697,-0.3826,-0.3982,-0.4086,0.0,-0.6112,-0.6464,-0.6946,-0.8615,-0.8988,-0.9076,-0.9293,-0.9456,-0.951,-0.9401,-0.9578,-0.989,-1.0378,-1.0575,-1.0677,-1.0697,-1.0833,-1.0867,-1.0731,-1.0846,-1.0867,-1.0731,-1.0717,-1.0717,-1.0717,-1.0717,-1.0785,-1.0921,-1.1063,-1.1212,-1.1362,-1.1518,-1.1599,-1.1619,-1.1619,-1.1619,-1.1619,-1.1619,-1.1619,-1.1619,-1.1619,-1.1619,-1.1619,-1.1619,-1.1619,-1.1619,-1.1619,-1.1708,-1.185,-1.2006,-1.2155,-1.2311,-1.2454,-1.2501,-1.2501,-1.2501,-1.2501,-1.2501,-1.2501,-1.2501,-1.2501,-1.2501,-1.261,-1.2732,-1.2752,-1.2963,-1.3173,-1.3193,-1.3302,-1.3403,-1.3403,-1.3403,-1.3403,-1.3403,-1.3403,-1.3403,-1.3403,-1.3403,-1.3403,-1.3403,-1.3403,-1.3403,-1.3403,-1.3403,-1.3403,-1.3403,-1.3403,-1.3403,-1.3403,-1.3403,-1.3403,-1.3403,-1.3403,-1.3403,-1.3403,-1.3403,-1.3403,-1.3403,-1.3403,-1.3403,-1.3403,-1.3403,-1.3403,-1.3403,-1.3403,-1.3403,-0.3921,-0.3771,-0.3826,-0.3982,-0.4086,0.0,-0.4802,-0.4992,-0.5318,-0.6159,-0.6519,-0.6878,-0.7502,-0.7746,-0.7882,-0.7977,-0.8621,-0.9354,-1.0039,-1.027,-1.0412,-1.0521,-1.067,-1.0751,-1.0724,-1.0744,-1.0751,-1.0724,-1.0717,-1.0717,-1.0717,-1.0717,-1.0731,-1.0765,-1.0914,-1.1063,-1.1206,-1.1362,-1.1497,-1.1619,-1.1619,-1.1619,-1.1619,-1.1619,-1.1619,-1.1619,-1.1619,-1.1619,-1.1619,-1.1619,-1.1619,-1.1619,-1.1619,-1.1708,-1.185,-1.2006,-1.2155,-1.2311,-1.2454,-1.2501,-1.2501,-1.2501,-1.2501,-1.2501,-1.2501,-1.2501,-1.2501,-1.2501,-1.261,-1.2759,-1.2881,-1.3044,-1.3207,-1.3329,-1.3376,-1.3403,-1.3403,-1.3403,-1.3403,-1.3403,-1.3403,-1.3403,-1.3403,-1.3403,-1.3403,-1.3403,-1.3403,-1.3403,-1.3403,-1.3403,-1.3403,-1.3403,-1.3403,-1.3403,-1.3403,-1.3403,-1.3403,-1.3403,-1.3403,-1.3403,-1.3403,-1.3403,-1.3403,-1.3403,-1.3403,-1.3403,-1.3403,-1.3403,-1.3403,-1.3403,-1.3403,-1.3403,-0.4151,-0.3907,-0.3941,-0.4046,-0.414,0.0,0.0,-0.5087,-0.5352,-0.6105,-0.6376,-0.6593,-0.6966,-0.7156,-0.7258,-0.7265,-0.8079,-0.871,-0.8716,-0.9618,-1.0304,-1.0378,-1.0582,-1.069,-1.0616,-1.0744,-1.0833,-1.0833,-1.09,-1.0941,-1.0941,-1.0873,-1.0867,-1.0941,-1.0948,-1.1056,-1.1274,-1.1355,-1.147,-1.1619,-1.1619,-1.1653,-1.1721,-1.1653,-1.166,-1.1721,-1.1647,-1.1619,-1.1619,-1.1619,-1.1619,-1.1619,-1.1619,-1.166,-1.1755,-1.1979,-1.2108,-1.221,-1.2427,-1.2501,-1.2501,-1.2501,-1.2501,-1.2501,-1.2501,-1.2501,-1.2501,-1.2501,-1.2664,-1.2861,-1.2942,-1.3125,-1.3308,-1.3383,-1.3403,-1.3403,-1.3403,-1.3403,-1.3403,-1.3403,-1.3403,-1.3403,-1.3403,-1.3403,-1.3403,-1.3403,-1.3403,-1.3403,-1.3403,-1.3403,-1.3403,-1.3403,-1.3403,-1.3403,-1.3403,-1.3403,-1.3403,-1.3403,-1.3403,-1.3403,-1.3403,-1.3403,-1.3403,-1.3403,-1.3403,-1.3403,-1.3403,-1.3403,-1.3403,-1.3403,-1.3403,-1.3403,-0.4416,-0.4063,-0.4056,-0.416,-0.4194,-0.4388,0.0,0.0,0.0,-0.6308,-0.6451,-0.6464,-0.6491,-0.6593,-0.662,-0.6478,-0.7333,-0.778,-0.7122,-0.8554,-0.9707,-0.9795,-1.0297,-1.0527,-1.0256,-1.0507,-1.0765,-1.0934,-1.0948,-1.1009,-1.1158,-1.105,-1.1043,-1.1158,-1.105,-1.1118,-1.1389,-1.1389,-1.147,-1.1619,-1.1619,-1.1694,-1.1823,-1.1687,-1.1714,-1.1864,-1.1694,-1.1633,-1.166,-1.1633,-1.1619,-1.1619,-1.1619,-1.1619,-1.1653,-1.1918,-1.204,-1.2101,-1.2366,-1.2481,-1.2501,-1.2501,-1.2501,-1.2501,-1.2501,-1.2501,-1.2508,-1.2535,-1.2725,-1.2929,-1.299,-1.318,-1.3363,-1.3397,-1.3403,-1.3403,-1.3403,-1.3403,-1.3403,-1.3403,-1.3403,-1.3403,-1.3403,-1.3403,-1.3403,-1.3403,-1.3403,-1.3403,-1.3403,-1.3403,-1.3403,-1.3403,-1.3403,-1.3403,-1.3403,-1.3403,-1.3403,-1.3403,-1.3403,-1.3403,-1.3403,-1.3403,-1.3403,-1.3403,-1.3403,-1.3403,-1.3403,-1.3403,-1.3403,-1.3403,-1.337,-1.337,-0.4802,-0.4219,-0.4056,-0.416,-0.4194,-0.4254,-0.4538,0.0,-0.4676,-0.4779,0.0,-0.4782,-0.4918,0.0,0.0,-0.4769,-0.5623,-0.6186,-0.584,-0.6776,-0.7645,-0.8045,-0.9415,-1.0059,-0.9374,-0.9585,-1.0093,-1.0887,-1.0473,-1.0466,-1.1124,-1.1145,-1.1145,-1.1165,-1.1145,-1.1219,-1.1389,-1.1389,-1.147,-1.1619,-1.1619,-1.1694,-1.1823,-1.1687,-1.1769,-1.202,-1.1742,-1.1687,-1.1796,-1.1674,-1.1619,-1.1619,-1.1619,-1.1619,-1.164,-1.1796,-1.1945,-1.2088,-1.2257,-1.2393,-1.2501,-1.2501,-1.2501,-1.2501,-1.2501,-1.2501,-1.2528,-1.2664,-1.2725,-1.2813,-1.3078,-1.3173,-1.3234,-1.337,-1.3403,-1.3403,-1.3403,-1.3403,-1.3403,-1.3403,-1.3403,-1.3403,-1.3403,-1.3403,-1.3403,-1.3403,-1.3403,-1.3403,-1.3403,-1.3403,-1.3403,-1.3403,-1.3403,-1.3403,-1.3403,-1.3403,-1.3403,-1.3403,-1.3403,-1.3403,-1.3403,-1.3403,-1.3403,-1.3403,-1.3403,-1.3403,-1.3403,-1.3403,-1.3403,-1.3397,-1.3261,-1.3268,-0.5162,-0.5013,-0.5074,-0.4619,-0.483,-0.5026,-0.4565,-0.4519,-0.4519,-0.4519,0.0,0.0,0.0,0.0,0.0,0.0,-0.527,-0.5705,-0.5148,-0.6268,-0.721,-0.74,-0.8194,-0.8838,-0.9123,-0.9503,-1.0032,-1.0765,-1.05,-1.0595,-1.126,-1.1294,-1.1335,-1.1423,-1.1253,-1.128,-1.1518,-1.1525,-1.1558,-1.1619,-1.1796,-1.1904,-1.1965,-1.1904,-1.1993,-1.2182,-1.1972,-1.1857,-1.1823,-1.1769,-1.1694,-1.1619,-1.1619,-1.1619,-1.164,-1.1775,-1.1932,-1.2081,-1.2237,-1.2386,-1.2501,-1.2501,-1.2501,-1.2501,-1.2501,-1.2501,-1.2515,-1.2576,-1.2725,-1.2895,-1.3017,-1.318,-1.3322,-1.3383,-1.3403,-1.3403,-1.3403,-1.3403,-1.3403,-1.3403,-1.3403,-1.3403,-1.3403,-1.3403,-1.3403,-1.3403,-1.3403,-1.3403,-1.3403,-1.3403,-1.3403,-1.3403,-1.3403,-1.3403,-1.3403,-1.3403,-1.3403,-1.3403,-1.3403,-1.3403,-1.3403,-1.3403,-1.3403,-1.3403,-1.3403,-1.3403,-1.3403,-1.3403,-1.3356,-1.3268,-1.3295,-1.3295,-0.5732,-0.5725,-0.5827,-0.4965,-0.5128,-0.5325,-0.4674,-0.4546,-0.4519,-0.4519,-0.4519,0.0,0.0,0.0,-0.4491,-0.4355,0.0,-0.5169,-0.4585,-0.5569,-0.639,-0.6519,-0.6946,-0.7638,-0.8682,-0.8967,-0.9469,-1.0405,-1.0222,-1.0453,-1.1341,-1.1389,-1.1463,-1.1613,-1.1402,-1.1396,-1.1619,-1.1619,-1.1619,-1.1619,-1.1877,-1.202,-1.206,-1.206,-1.2169,-1.2338,-1.2142,-1.1999,-1.1891,-1.185,-1.1748,-1.1619,-1.1619,-1.1619,-1.1633,-1.1735,-1.187,-1.202,-1.2176,-1.2345,-1.2501,-1.2501,-1.2501,-1.2501,-1.2501,-1.2528,-1.2562,-1.2562,-1.2759,-1.2969,-1.301,-1.318,-1.3349,-1.339,-1.3403,-1.3403,-1.3403,-1.3403,-1.3403,-1.3403,-1.3403,-1.3403,-1.3403,-1.3403,-1.3403,-1.3403,-1.3403,-1.3403,-1.3403,-1.3403,-1.3403,-1.3403,-1.3403,-1.3403,-1.3403,-1.3403,-1.3403,-1.3403,-1.3403,-1.3403,-1.3403,-1.3403,-1.3403,-1.3403,-1.3403,-1.3403,-1.3403,-1.3403,-1.3322,-1.3173,-1.3247,-1.322,-0.6627,-0.6132,-0.5847,-0.5101,-0.4816,-0.4721,-0.4694,-0.4572,-0.4519,-0.4519,-0.4519,-0.4519,-0.4519,-0.4519,-0.4368,-0.4077,-0.4133,0.0,0.0,-0.416,-0.4448,-0.4938,-0.5766,-0.6709,-0.7753,-0.7475,-0.7957,-0.9713,-0.9313,-0.9693,-1.1307,-1.1389,-1.1463,-1.1613,-1.1613,-1.1606,-1.1619,-1.1619,-1.1619,-1.1619,-1.1769,-1.1918,-1.206,-1.206,-1.2223,-1.2481,-1.2189,-1.206,-1.204,-1.1891,-1.1748,-1.1619,-1.1619,-1.1619,-1.1619,-1.1626,-1.1714,-1.1864,-1.2013,-1.2257,-1.2501,-1.2501,-1.2501,-1.2501,-1.2501,-1.2603,-1.2725,-1.2725,-1.284,-1.299,-1.3132,-1.3173,-1.3214,-1.3363,-1.3403,-1.3403,-1.3403,-1.3403,-1.3403,-1.3403,-1.3403,-1.3403,-1.3403,-1.3403,-1.3403,-1.3403,-1.3403,-1.3403,-1.3403,-1.3403,-1.3403,-1.3403,-1.3403,-1.3403,-1.3403,-1.3403,-1.3403,-1.3403,-1.3403,-1.3403,-1.3403,-1.3403,-1.3403,-1.3403,-1.3403,-1.3403,-1.3403,-1.3403,-1.3322,-1.3166,-1.3037,-1.2976,-0.7577,-0.7617,-0.7482,-0.6139,-0.6139,-0.6179,-0.5087,-0.4721,-0.4613,-0.4613,-0.4587,-0.4519,-0.4519,-0.4519,-0.4484,-0.4328,-0.428,-0.418,0.0,-0.416,-0.4254,-0.4401,-0.5352,0.0,0.0,0.0,0.0,0.0,-0.9564,0.0,-1.1185,-1.1335,-1.1463,-1.1613,-1.1619,-1.1619,-1.1619,-1.1714,-1.1755,-1.1762,-1.1911,-1.2067,-1.221,-1.221,-1.2318,-1.2494,-1.2393,-1.2244,-1.206,-1.2006,-1.1843,-1.1619,-1.1619,-1.1619,-1.1619,-1.1619,-1.1708,-1.187,-1.2121,-1.2338,-1.2522,-1.2617,-1.2725,-1.2807,-1.2807,-1.284,-1.2881,-1.2881,-1.299,-1.3112,-1.3159,-1.3247,-1.3336,-1.339,-1.3403,-1.3403,-1.3403,-1.3403,-1.3403,-1.3403,-1.3403,-1.3403,-1.3403,-1.3403,-1.3403,-1.3403,-1.3403,-1.3403,-1.3403,-1.3403,-1.3403,-1.3403,-1.3403,-1.3403,-1.3403,-1.3403,-1.3403,-1.3403,-1.3403,-1.3403,-1.3403,-1.3403,-1.3403,-1.3403,-1.3403,-1.3349,-1.3247,-1.3247,-1.3125,-1.2881,-1.2834,-1.2807,-0.9661,-0.9595,-0.9474,-0.8113,-0.757,-0.7102,-0.5772,-0.5311,-0.5108,-0.4891,-0.4687,-0.4558,-0.4613,-0.4538,-0.4532,-0.4587,-0.4375,-0.4194,0.0,-0.4241,-0.4328,-0.4328,0.0,0.0,0.0,0.0,0.0,0.0,0.0,0.0,0.0,-1.1084,-1.1382,-1.1531,-1.1592,-1.1619,-1.1619,-1.1708,-1.1782,-1.183,-1.1986,-1.2142,-1.2291,-1.2345,-1.2413,-1.2501,-1.2501,-1.2366,-1.2142,-1.2142,-1.1965,-1.1694,-1.1694,-1.166,-1.1619,-1.1619,-1.1708,-1.1864,-1.2121,-1.2338,-1.2528,-1.2678,-1.28,-1.2881,-1.2881,-1.2915,-1.2929,-1.2766,-1.2942,-1.3146,-1.3044,-1.3166,-1.3336,-1.339,-1.3403,-1.3403,-1.3403,-1.3403,-1.3403,-1.3403,-1.3403,-1.3403,-1.3403,-1.3403,-1.3403,-1.3403,-1.3403,-1.3403,-1.3403,-1.3403,-1.3403,-1.3403,-1.3403,-1.3403,-1.3403,-1.3403,-1.3403,-1.3403,-1.3403,-1.3403,-1.3403,-1.3403,-1.3403,-1.3403,-1.3349,-1.3268,-1.3173,-1.3119,-1.2969,-1.2732,-1.2732,-1.2698]},{"header":{"parameterUnit":"m.s-1","parameterCategory":1,"la1":30.6,"la2":29.2853,"lo1":-89.7004,"lo2":-87.6739,"dx":0.0162,"dy":0.0183,"nx":112,"ny":82,"refTime":"2022-11-22T18:00:00:Z","depth":0,"parameterNumber":3,"parameterNumberName":"V-component_of_WINDS"},"data":[0.0,0.0,0.0,0.0,0.0,0.0,0.0,0.0,0.0,0.0,0.0,0.0,0.0,0.0,0.0,0.0,0.0,0.0,0.0,0.0,0.0,0.0,0.0,0.0,0.0,0.0,0.0,0.0,0.0,0.0,0.0,0.0,0.0,0.0,0.0,0.0,0.0,0.0,0.0,0.0,0.0,0.0,0.0,0.0,0.0,0.0,0.0,0.0,0.0,0.0,0.0,0.0,0.0,0.0,0.0,0.0,0.0,0.0,0.0,0.0,0.0,0.0,0.0,0.0,0.0,0.0,0.0,0.0,0.0,0.0,0.0,0.0,0.0,0.0,0.0,0.0,0.0,0.0,0.0,0.0,0.0,0.0,0.0,0.0,0.0,0.0,0.0,0.0,0.0,0.0,-4.2266,-4.2383,-4.168,-4.1484,-4.2148,-4.1719,-4.0273,-3.7656,0.0,0.0,0.0,0.0,0.0,0.0,0.0,0.0,0.0,0.0,0.0,0.0,0.0,0.0,0.0,0.0,0.0,0.0,0.0,0.0,0.0,0.0,0.0,0.0,0.0,0.0,0.0,0.0,0.0,0.0,0.0,0.0,0.0,0.0,0.0,0.0,0.0,0.0,0.0,0.0,0.0,0.0,0.0,0.0,0.0,0.0,0.0,0.0,0.0,0.0,0.0,0.0,0.0,0.0,0.0,0.0,0.0,0.0,0.0,0.0,0.0,0.0,0.0,0.0,0.0,0.0,0.0,0.0,0.0,0.0,0.0,0.0,0.0,0.0,0.0,0.0,0.0,0.0,0.0,0.0,0.0,0.0,0.0,0.0,0.0,0.0,0.0,0.0,0.0,0.0,0.0,0.0,0.0,0.0,0.0,0.0,0.0,0.0,0.0,0.0,0.0,0.0,0.0,0.0,-4.1641,-4.2344,-4.168,-4.125,-4.1367,-4.1914,-4.1133,-3.8555,0.0,0.0,0.0,0.0,0.0,0.0,0.0,0.0,0.0,0.0,0.0,0.0,0.0,0.0,0.0,0.0,0.0,0.0,0.0,0.0,0.0,0.0,0.0,0.0,0.0,0.0,0.0,0.0,0.0,0.0,0.0,0.0,0.0,0.0,0.0,0.0,0.0,0.0,0.0,0.0,0.0,0.0,0.0,0.0,0.0,0.0,0.0,0.0,0.0,0.0,0.0,0.0,0.0,0.0,0.0,0.0,0.0,0.0,0.0,0.0,0.0,0.0,0.0,0.0,0.0,0.0,0.0,0.0,0.0,0.0,0.0,0.0,0.0,0.0,0.0,0.0,0.0,0.0,0.0,0.0,0.0,0.0,0.0,0.0,0.0,0.0,0.0,0.0,0.0,0.0,0.0,0.0,0.0,0.0,0.0,0.0,0.0,0.0,0.0,0.0,0.0,0.0,0.0,-4.1641,-4.2187,-4.3008,-4.1953,-4.1211,-4.1211,-4.1523,-4.0859,-3.8711,-3.8242,0.0,0.0,0.0,0.0,0.0,0.0,0.0,0.0,0.0,0.0,0.0,0.0,0.0,0.0,0.0,0.0,0.0,0.0,0.0,0.0,0.0,0.0,0.0,0.0,0.0,0.0,0.0,0.0,0.0,0.0,0.0,0.0,0.0,0.0,0.0,0.0,0.0,0.0,0.0,0.0,0.0,0.0,0.0,0.0,0.0,0.0,0.0,0.0,0.0,0.0,0.0,0.0,0.0,0.0,0.0,0.0,0.0,0.0,0.0,0.0,0.0,0.0,0.0,0.0,0.0,0.0,0.0,0.0,0.0,0.0,0.0,0.0,0.0,0.0,0.0,0.0,0.0,0.0,0.0,0.0,0.0,0.0,0.0,0.0,0.0,0.0,0.0,0.0,0.0,0.0,0.0,0.0,0.0,0.0,0.0,0.0,0.0,0.0,0.0,0.0,0.0,0.0,-4.3008,-4.2969,-4.3633,-4.2383,-4.1484,-4.1484,-4.1484,-4.0742,-3.9023,-3.8711,0.0,0.0,0.0,0.0,0.0,0.0,0.0,0.0,0.0,0.0,0.0,0.0,0.0,0.0,0.0,0.0,0.0,0.0,0.0,0.0,0.0,0.0,0.0,0.0,0.0,0.0,0.0,0.0,0.0,0.0,0.0,0.0,0.0,0.0,0.0,0.0,0.0,0.0,0.0,0.0,0.0,0.0,0.0,0.0,0.0,0.0,0.0,0.0,0.0,0.0,0.0,0.0,0.0,0.0,0.0,0.0,0.0,0.0,0.0,0.0,0.0,0.0,0.0,0.0,0.0,0.0,0.0,0.0,0.0,0.0,0.0,0.0,0.0,0.0,0.0,0.0,0.0,0.0,0.0,0.0,0.0,0.0,0.0,0.0,0.0,0.0,0.0,0.0,0.0,0.0,0.0,0.0,0.0,0.0,0.0,0.0,0.0,0.0,0.0,0.0,0.0,0.0,-4.3164,-4.3633,-4.3672,-4.2851,-4.2305,-4.2305,-4.2305,-4.1601,-3.9922,-3.9062,0.0,0.0,0.0,0.0,0.0,0.0,0.0,0.0,0.0,0.0,0.0,0.0,0.0,0.0,0.0,0.0,0.0,0.0,0.0,0.0,0.0,0.0,0.0,0.0,0.0,0.0,0.0,0.0,0.0,0.0,0.0,0.0,0.0,0.0,0.0,0.0,0.0,0.0,0.0,0.0,0.0,0.0,0.0,0.0,0.0,0.0,0.0,0.0,0.0,0.0,0.0,0.0,0.0,0.0,0.0,0.0,0.0,0.0,0.0,0.0,0.0,0.0,0.0,0.0,0.0,0.0,0.0,0.0,0.0,0.0,0.0,0.0,0.0,0.0,0.0,0.0,0.0,0.0,0.0,0.0,0.0,0.0,0.0,0.0,0.0,0.0,0.0,0.0,0.0,0.0,0.0,0.0,0.0,0.0,0.0,0.0,0.0,0.0,0.0,0.0,0.0,0.0,-4.3516,-4.3906,-4.4453,-4.3711,-4.3203,-4.3203,-4.2695,-4.1914,-4.0781,0.0,0.0,0.0,0.0,0.0,0.0,0.0,0.0,0.0,0.0,0.0,0.0,0.0,0.0,0.0,0.0,0.0,0.0,0.0,0.0,0.0,0.0,0.0,0.0,0.0,0.0,0.0,0.0,0.0,0.0,0.0,0.0,0.0,0.0,0.0,0.0,0.0,0.0,0.0,0.0,0.0,0.0,0.0,0.0,0.0,0.0,0.0,0.0,0.0,0.0,0.0,0.0,0.0,0.0,0.0,0.0,0.0,0.0,0.0,0.0,0.0,0.0,0.0,0.0,0.0,0.0,0.0,0.0,0.0,0.0,0.0,0.0,0.0,0.0,0.0,0.0,0.0,0.0,0.0,0.0,0.0,0.0,0.0,0.0,0.0,0.0,0.0,0.0,0.0,0.0,0.0,0.0,0.0,0.0,0.0,0.0,0.0,0.0,0.0,0.0,0.0,0.0,-4.3398,-4.3945,-4.4531,-4.5703,-4.4805,-4.4101,-4.4101,-4.3555,-4.2851,-4.2031,0.0,0.0,0.0,0.0,0.0,0.0,0.0,0.0,0.0,0.0,0.0,0.0,0.0,0.0,0.0,0.0,0.0,0.0,0.0,0.0,0.0,0.0,0.0,0.0,0.0,0.0,0.0,0.0,0.0,0.0,0.0,0.0,0.0,0.0,0.0,0.0,0.0,0.0,0.0,0.0,0.0,0.0,0.0,0.0,0.0,0.0,0.0,0.0,0.0,0.0,0.0,0.0,0.0,0.0,0.0,0.0,0.0,0.0,0.0,0.0,0.0,0.0,0.0,0.0,0.0,0.0,0.0,0.0,0.0,0.0,0.0,0.0,0.0,0.0,0.0,0.0,0.0,0.0,0.0,0.0,0.0,0.0,0.0,0.0,0.0,0.0,0.0,0.0,0.0,0.0,0.0,0.0,0.0,0.0,0.0,0.0,0.0,0.0,0.0,0.0,0.0,0.0,-4.3476,-4.4492,-4.5703,-4.7422,-4.6055,-4.5039,-4.5039,-4.5039,-4.4648,0.0,0.0,0.0,0.0,0.0,0.0,0.0,0.0,0.0,0.0,0.0,0.0,0.0,0.0,0.0,0.0,0.0,0.0,0.0,0.0,0.0,0.0,0.0,0.0,0.0,0.0,0.0,0.0,0.0,0.0,0.0,0.0,0.0,0.0,0.0,0.0,0.0,0.0,0.0,0.0,0.0,0.0,0.0,0.0,0.0,0.0,0.0,0.0,0.0,0.0,0.0,0.0,0.0,0.0,0.0,0.0,0.0,0.0,0.0,0.0,0.0,0.0,0.0,0.0,0.0,0.0,0.0,0.0,0.0,0.0,0.0,0.0,0.0,0.0,0.0,0.0,0.0,0.0,0.0,0.0,0.0,0.0,0.0,0.0,0.0,0.0,0.0,0.0,0.0,0.0,0.0,0.0,0.0,0.0,0.0,0.0,0.0,0.0,0.0,0.0,0.0,0.0,0.0,-4.3711,-4.6055,-4.7695,-4.7617,-4.7695,-4.7734,-4.7734,-4.6601,-4.6055,-4.6445,0.0,0.0,0.0,0.0,0.0,0.0,0.0,0.0,0.0,0.0,0.0,0.0,0.0,0.0,0.0,0.0,0.0,0.0,0.0,0.0,0.0,0.0,0.0,0.0,0.0,0.0,0.0,0.0,0.0,0.0,0.0,0.0,0.0,0.0,0.0,0.0,0.0,0.0,0.0,0.0,0.0,0.0,0.0,0.0,0.0,0.0,0.0,0.0,0.0,0.0,0.0,0.0,0.0,0.0,0.0,0.0,0.0,0.0,0.0,0.0,0.0,0.0,0.0,0.0,0.0,0.0,0.0,0.0,0.0,0.0,0.0,0.0,0.0,0.0,0.0,0.0,0.0,0.0,0.0,0.0,0.0,0.0,0.0,0.0,0.0,0.0,0.0,0.0,0.0,0.0,0.0,0.0,0.0,0.0,0.0,0.0,0.0,0.0,0.0,0.0,0.0,0.0,-4.4766,-4.7187,-4.8945,-4.9101,-4.8984,-4.8906,-4.8906,-4.793,-4.7578,-4.8086,0.0,0.0,0.0,0.0,0.0,0.0,0.0,0.0,0.0,0.0,0.0,0.0,0.0,0.0,0.0,0.0,0.0,0.0,0.0,0.0,0.0,0.0,0.0,0.0,0.0,0.0,0.0,0.0,0.0,0.0,0.0,0.0,0.0,0.0,0.0,0.0,0.0,0.0,0.0,0.0,0.0,0.0,0.0,0.0,0.0,0.0,0.0,0.0,0.0,0.0,0.0,0.0,0.0,0.0,0.0,0.0,0.0,0.0,0.0,0.0,0.0,0.0,0.0,0.0,0.0,0.0,0.0,0.0,0.0,0.0,0.0,0.0,0.0,0.0,0.0,0.0,0.0,0.0,0.0,0.0,0.0,0.0,0.0,0.0,0.0,0.0,0.0,0.0,0.0,0.0,0.0,0.0,0.0,0.0,0.0,0.0,0.0,0.0,0.0,0.0,0.0,0.0,-4.6367,-4.8164,-4.9922,-5.1367,-5.0234,-4.9375,-4.9375,-4.9219,-4.9219,-4.9375,0.0,0.0,0.0,0.0,0.0,0.0,0.0,0.0,0.0,0.0,0.0,0.0,0.0,0.0,0.0,0.0,0.0,0.0,0.0,0.0,0.0,0.0,0.0,0.0,0.0,0.0,0.0,0.0,0.0,0.0,0.0,0.0,0.0,0.0,0.0,0.0,0.0,0.0,0.0,0.0,0.0,0.0,0.0,0.0,0.0,0.0,0.0,0.0,0.0,0.0,0.0,0.0,0.0,0.0,0.0,0.0,0.0,0.0,0.0,0.0,-2.3466,-2.0235,0.0,0.0,0.0,0.0,0.0,0.0,0.0,0.0,0.0,0.0,0.0,0.0,0.0,0.0,0.0,0.0,0.0,0.0,0.0,0.0,0.0,0.0,0.0,0.0,0.0,0.0,0.0,0.0,0.0,0.0,0.0,0.0,0.0,0.0,0.0,0.0,0.0,0.0,0.0,0.0,-4.7578,-5.0586,-5.2773,-5.2461,-5.2734,-5.2891,-5.2891,-5.1641,-5.1445,-5.2812,-5.0391,0.0,0.0,0.0,0.0,0.0,0.0,0.0,0.0,0.0,0.0,0.0,0.0,0.0,0.0,0.0,0.0,0.0,0.0,0.0,0.0,0.0,0.0,0.0,0.0,0.0,0.0,0.0,0.0,0.0,0.0,0.0,0.0,0.0,0.0,0.0,0.0,0.0,0.0,0.0,0.0,0.0,0.0,0.0,0.0,0.0,0.0,0.0,0.0,0.0,0.0,0.0,0.0,0.0,0.0,0.0,0.0,0.0,0.0,0.0,-2.9083,-2.5582,0.0,0.0,0.0,0.0,0.0,0.0,0.0,0.0,0.0,0.0,0.0,0.0,0.0,0.0,0.0,0.0,0.0,0.0,0.0,0.0,0.0,0.0,0.0,0.0,0.0,0.0,0.0,0.0,0.0,0.0,0.0,0.0,0.0,0.0,0.0,0.0,0.0,0.0,0.0,0.0,-4.9648,-5.2109,-5.3984,-5.3945,-5.3984,-5.3984,-5.3984,-5.3164,-5.2851,-5.3359,-5.2109,0.0,0.0,0.0,0.0,0.0,0.0,0.0,0.0,0.0,0.0,0.0,0.0,0.0,0.0,0.0,0.0,0.0,0.0,0.0,0.0,0.0,0.0,0.0,0.0,0.0,0.0,0.0,0.0,0.0,0.0,0.0,0.0,0.0,0.0,0.0,0.0,0.0,0.0,0.0,0.0,0.0,0.0,0.0,0.0,0.0,0.0,0.0,0.0,0.0,0.0,0.0,0.0,0.0,-3.5968,-3.6622,-3.6622,-3.7084,-3.7276,-3.7199,-3.5892,-3.2622,-2.8159,-2.8467,0.0,0.0,0.0,0.0,0.0,0.0,0.0,0.0,0.0,0.0,0.0,0.0,0.0,0.0,0.0,0.0,0.0,0.0,0.0,0.0,0.0,0.0,-3.8008,-4.4219,-4.6797,-4.6875,-4.332,0.0,0.0,0.0,0.0,0.0,0.0,0.0,0.0,0.0,0.0,0.0,-5.2226,-5.3711,-5.5117,-5.5703,-5.5234,-5.4922,-5.4922,-5.4648,-5.4219,-5.3633,-5.3867,-5.3281,0.0,0.0,0.0,0.0,0.0,0.0,0.0,0.0,0.0,0.0,0.0,0.0,0.0,0.0,0.0,0.0,0.0,0.0,0.0,0.0,0.0,0.0,0.0,0.0,0.0,0.0,0.0,0.0,0.0,0.0,0.0,0.0,-2.5313,-2.3321,0.0,0.0,0.0,0.0,0.0,0.0,0.0,0.0,0.0,0.0,0.0,0.0,0.0,-3.4276,-3.4147,-3.5507,-3.6276,-3.643,-3.9508,-4.0969,-4.1046,-4.3239,-4.4278,-4.4278,-4.4816,0.0,-3.416,-3.2045,0.0,0.0,0.0,0.0,0.0,0.0,0.0,0.0,0.0,0.0,0.0,0.0,0.0,0.0,0.0,0.0,0.0,0.0,0.0,0.0,0.0,0.0,-3.9961,-4.6758,-4.8555,-4.8555,-4.8008,-4.7305,-4.6992,-4.7734,-4.9258,-5.0703,0.0,0.0,0.0,0.0,0.0,0.0,-5.5,-5.6953,-5.8281,-5.7617,-5.8125,-5.8515,-5.8515,-5.7148,-5.6523,-5.7187,-5.5195,-5.3555,-5.2578,-5.1719,0.0,0.0,0.0,0.0,0.0,0.0,0.0,0.0,0.0,0.0,0.0,0.0,0.0,0.0,0.0,0.0,0.0,0.0,0.0,0.0,0.0,0.0,0.0,0.0,0.0,0.0,0.0,0.0,0.0,-2.362,-2.5697,-2.3629,-2.539,-2.5582,0.0,0.0,0.0,0.0,0.0,0.0,0.0,0.0,0.0,-3.3353,-3.6584,-3.8546,-3.9046,-4.1316,-4.2431,-4.247,-4.4893,-4.6086,-4.6124,-4.774,-4.8471,-4.8471,-4.8856,-4.7124,-4.3739,-3.9738,-3.6969,-3.5122,0.0,0.0,0.0,0.0,-3.3019,-3.3005,-3.262,-3.2519,-3.2596,-3.2599,0.0,0.0,0.0,0.0,0.0,0.0,0.0,-3.3164,-3.8633,-4.1484,-4.4297,-4.9726,-5.1406,-5.1758,-5.1758,-5.1484,-5.0742,-4.9219,-5.0234,-5.1992,-5.3828,-5.5195,0.0,0.0,0.0,-5.8008,-5.625,-5.789,-5.9062,-5.8672,-5.8984,-5.9219,-5.9219,-5.8515,-5.8008,-5.789,-5.7265,-5.6328,-5.4961,-5.3594,-5.1992,0.0,0.0,0.0,0.0,0.0,0.0,0.0,0.0,0.0,0.0,0.0,0.0,0.0,0.0,0.0,0.0,0.0,0.0,0.0,0.0,0.0,0.0,0.0,0.0,0.0,0.0,0.0,0.0,-2.5736,-2.7621,-2.5043,-2.7775,-2.8582,0.0,0.0,0.0,0.0,0.0,0.0,-3.2929,-3.5815,-3.7738,-3.8315,-4.12,-4.3085,-4.3739,-4.6701,-4.8202,-4.8202,-4.9663,-5.0356,-5.0394,-5.1048,-5.1318,-5.1318,-5.1318,-5.1318,-5.0971,-4.6086,-4.2585,-4.02,-3.9546,-3.9315,-3.9277,-3.9046,-3.8984,-3.9013,-3.8796,-3.8777,-3.8823,-3.88,-3.8906,-3.9081,-3.951,0.0,0.0,0.0,0.0,-3.7969,-4.2109,-4.5078,-4.8047,-5.2344,-5.3867,-5.4375,-5.4609,-5.4687,-5.3867,-5.1055,-5.1523,-5.3164,-5.5547,-5.6875,0.0,-5.875,-5.9609,-5.9609,-5.8086,-5.9023,-5.9765,-5.9531,-5.9726,-5.9844,-5.9844,-5.9648,-5.9219,-5.8594,-5.8945,-5.8633,-5.7305,-5.582,-5.4687,-5.4023,0.0,0.0,0.0,0.0,0.0,0.0,0.0,0.0,0.0,0.0,0.0,0.0,0.0,0.0,0.0,0.0,0.0,0.0,0.0,0.0,0.0,0.0,0.0,0.0,0.0,0.0,0.0,0.0,0.0,-3.0621,-3.3045,0.0,0.0,0.0,0.0,-3.4814,-3.5815,-3.6353,-3.643,-4.0431,-4.2739,-4.2777,-4.6778,-4.8971,-4.9009,-5.0779,-5.1664,-5.1664,-5.2587,-5.301,-5.301,-5.3049,-5.3087,-5.3087,-5.3087,-5.3087,-5.2741,-4.8471,-4.6624,-4.6201,-4.3778,-4.2854,-4.2739,-4.1931,-4.1623,-4.1508,-4.0662,-4.0438,-4.0488,-4.0466,-4.0538,-4.0907,-4.2558,-4.2465,0.0,0.0,-4.3047,-4.4062,-4.7617,-4.8633,-4.9844,-5.4141,-5.5195,-5.5469,-5.6289,-5.6484,-5.6172,-5.5156,-5.5039,-5.5664,-5.7461,0.0,-6.0508,-6.1367,-6.2265,-6.2461,-6.1562,-6.1523,-6.125,-6.043,-6.1094,-6.1562,-6.1562,-6.082,-6.0312,-6.0273,-5.9609,-5.914,-5.9062,-5.8203,-5.6523,-5.4062,-5.3637,0.0,0.0,0.0,0.0,0.0,0.0,0.0,0.0,0.0,0.0,0.0,0.0,0.0,0.0,0.0,0.0,0.0,0.0,0.0,0.0,0.0,0.0,0.0,0.0,0.0,0.0,0.0,0.0,-3.3045,-3.6315,0.0,-3.5161,-3.493,-3.5776,-3.7777,-3.9738,-4.1277,-4.2354,-4.5432,-4.7663,-4.874,-5.024,-5.1548,-5.2664,-5.328,-5.3818,-5.4357,-5.5241,-5.5626,-5.5665,-5.6242,-5.6472,-5.6472,-5.6472,-5.6472,-5.6357,-5.4857,-5.2933,-5.0856,-4.9971,-4.9586,-4.9548,-4.924,-4.9125,-4.9086,-4.8779,-4.8683,-4.8702,-4.8798,-4.8834,-4.881,-4.8354,-4.8089,-4.7701,-4.6976,-4.8047,-4.9687,-5.1016,-5.3008,-5.5078,-5.6601,-5.7383,-5.789,-5.8203,-5.8281,-5.8164,-5.7851,-5.7344,-5.75,-5.9219,-6.0,-6.0898,-6.2305,-6.2305,-6.2031,-6.1758,-6.1719,-6.1562,-6.1289,-6.1523,-6.1719,-6.1719,-6.1406,-6.125,-6.125,-6.0976,-6.082,-6.082,-5.9961,-5.9061,-5.8164,-5.6888,-5.573,0.0,0.0,0.0,0.0,0.0,0.0,0.0,0.0,0.0,0.0,0.0,0.0,0.0,0.0,0.0,0.0,0.0,0.0,0.0,0.0,0.0,0.0,0.0,0.0,0.0,-3.2891,-3.5815,-3.5507,-3.87,-4.0508,-3.9354,-3.9546,-4.0546,-4.2547,-4.4816,-4.6547,-4.7663,-4.9894,-5.1625,-5.2741,-5.3318,-5.4164,-5.5318,-5.5626,-5.6049,-5.6588,-5.7165,-5.7434,-5.7473,-5.805,-5.8319,-5.8319,-5.8319,-5.8319,-5.8319,-5.8319,-5.6973,-5.4934,-5.4934,-5.4934,-5.4895,-5.4587,-5.4472,-5.4434,-5.4164,-5.4049,-5.4126,-5.4493,-5.4608,-5.4489,-5.3689,-5.3513,-5.3318,-5.2241,-5.3214,-5.4626,-5.4764,-5.6523,-5.832,-5.8672,-5.918,-5.9687,-5.9961,-6.0039,-6.0039,-6.0039,-5.9101,-5.8789,-6.0156,-6.0625,-6.1328,-6.2773,-6.25,-6.2148,-6.2148,-6.1875,-6.1719,-6.1719,-6.1719,-6.1719,-6.1719,-6.25,-6.2656,-6.1758,-6.2539,-6.2617,-6.1758,-6.1719,-6.1442,-6.0856,-5.9279,-5.8427,-5.828,0.0,0.0,0.0,0.0,0.0,0.0,0.0,0.0,0.0,0.0,0.0,0.0,0.0,0.0,0.0,0.0,0.0,0.0,0.0,0.0,0.0,0.0,0.0,-3.0686,-3.5661,-3.9046,-3.8315,-4.0431,-4.2624,-4.4316,-4.5201,-4.674,-4.9279,-5.0971,-5.1933,-5.201,-5.3626,-5.4549,-5.4626,-5.6203,-5.7049,-5.7088,-5.7934,-5.8357,-5.8396,-5.8396,-5.8396,-5.8396,-5.8396,-5.8396,-5.8396,-5.8396,-5.8396,-5.8396,-5.8396,-5.8396,-5.8357,-5.8319,-5.8319,-5.8204,-5.7357,-5.7049,-5.6896,-5.6049,-5.578,-5.5934,-5.678,-5.7049,-5.7203,-5.8088,-5.8434,-5.8527,-5.8566,-5.866,-5.8792,-5.8931,-5.8984,-5.9219,-6.0195,-6.043,-6.0664,-6.1562,-6.1758,-6.1758,-6.1797,-6.0508,-5.9609,-6.0312,-6.1133,-6.1992,-6.289,-6.3008,0.0,-6.3086,-6.2305,-6.1797,-6.1797,-6.1797,-6.1797,-6.1797,-6.4101,-6.4453,-6.1914,-6.4101,-6.4375,-6.1797,-6.332,-6.3437,-6.1719,-6.0755,-6.0173,-6.008,0.0,0.0,0.0,0.0,0.0,0.0,0.0,0.0,0.0,0.0,0.0,0.0,0.0,0.0,0.0,0.0,0.0,0.0,0.0,0.0,0.0,-3.5315,-3.8238,-3.7007,-3.8777,-4.1008,-4.3239,-4.4701,-4.6163,-4.7855,-4.8202,-4.9163,-5.1087,-5.1664,-5.2702,-5.4549,-5.5126,-5.5934,-5.7203,-5.7703,-5.8204,-5.8819,-5.905,-5.9473,-6.0127,-6.0127,-6.0127,-6.0127,-6.0127,-6.0127,-6.0127,-6.0127,-6.0127,-6.0127,-6.0127,-6.0127,-5.9973,-5.8781,-5.8319,-5.828,-5.805,-5.7934,-5.7896,-5.7665,-5.7588,-5.7627,-5.7857,-5.7934,-5.8088,-5.8934,-5.9204,-5.9396,-6.0127,-6.0432,-6.0616,-6.0765,-6.0854,-6.1015,-6.1289,-6.1328,-6.1562,-6.2461,-6.2656,-6.3008,-6.4297,-6.414,-6.332,-6.164,-6.1523,-6.2226,-6.3711,-6.3398,-6.3476,-6.4726,-6.4101,-6.3594,-6.3594,-6.3594,-6.3594,-6.3594,-6.4258,-6.4062,-6.2734,-6.332,-6.3125,-6.1758,-6.2148,-6.2148,-6.1562,-6.1299,-6.1344,0.0,0.0,0.0,0.0,0.0,0.0,0.0,0.0,0.0,0.0,0.0,0.0,0.0,0.0,0.0,0.0,0.0,0.0,0.0,0.0,0.0,0.0,-3.8854,-4.2508,-4.2931,-4.3393,-4.4432,-4.6394,-4.7432,-4.8625,-5.0279,-5.0779,-5.1548,-5.2895,-5.3626,-5.4664,-5.6165,-5.6896,-5.7742,-5.8781,-5.9165,-5.9588,-6.005,-6.005,-6.0281,-6.0781,-6.0781,-6.0781,-6.0781,-6.0781,-6.0781,-6.0781,-6.0781,-6.0781,-6.0781,-6.0781,-6.0781,-6.0704,0.0,0.0,0.0,0.0,-5.9358,-5.9358,-5.9358,-5.9358,-5.9358,-5.9358,-5.9358,-5.9435,-5.9896,-6.0089,-6.0319,-6.1266,-6.1689,-6.1982,-6.2444,-6.2671,-6.2703,-6.277,-6.2773,-6.293,-6.3437,-6.3555,-6.3828,-6.4844,-6.5351,0.0,-6.3594,-6.3633,-6.4101,-6.4765,-6.4726,-6.4883,-6.5508,-6.5156,-6.4687,-6.4336,-6.4297,-6.4297,-6.4297,-6.5312,0.0,0.0,0.0,-6.4609,-6.3398,-6.2969,0.0,0.0,0.0,-6.2123,-6.2145,-6.2106,0.0,0.0,-5.9134,-5.8627,0.0,0.0,0.0,0.0,0.0,0.0,0.0,0.0,0.0,0.0,0.0,0.0,0.0,0.0,0.0,0.0,-4.1546,-4.497,-4.7855,-4.8509,-4.8586,-4.8432,-4.9086,-5.0202,-5.1895,-5.2741,-5.3587,-5.4549,-5.6011,-5.6973,-5.728,-5.8704,0.0,0.0,0.0,-6.0781,-6.0781,-6.0781,-6.0781,-6.0781,-6.0781,-6.0858,-6.0935,-6.0935,-6.1012,-6.1089,-6.1089,-6.1089,-6.1089,-6.1089,-6.1089,-6.105,-6.0858,-6.0858,-6.0935,-6.0935,-6.1012,-6.1089,-6.1089,0.0,0.0,-6.1089,-6.1127,-6.1127,-6.1151,-6.1228,-6.1482,-6.2243,-6.2629,-6.2968,-6.3877,-6.4084,-6.4166,-6.4278,-6.4297,-6.4336,-6.4414,-6.4453,-6.4492,-6.4687,-6.5351,-6.5937,-6.6015,-6.6523,-6.668,-6.5976,-6.6562,-6.6797,-6.6133,-6.6015,-6.5742,-6.4961,-6.4805,0.0,-6.4726,-6.6797,-6.7031,-6.4609,-6.6523,-6.707,-6.5508,-6.4726,-6.4297,-6.4297,-6.3437,-6.2635,-6.185,-6.1606,-6.1522,-6.1555,-6.2783,-6.2136,0.0,0.0,0.0,0.0,0.0,0.0,0.0,0.0,0.0,0.0,0.0,0.0,0.0,0.0,0.0,-4.0623,-4.5663,-4.9202,-4.9163,-5.0933,-5.1702,-5.0356,-5.0356,-5.1125,-5.2779,-5.3087,-5.3818,-5.5357,-5.578,-5.6857,-5.8896,-5.9319,-5.9819,-6.0512,-6.0704,-6.0781,-6.0781,-6.0781,-6.0781,-6.0781,-6.0781,0.0,-6.1858,-6.1858,-6.2204,-6.282,-6.282,-6.282,-6.282,-6.282,-6.282,-6.2666,-6.132,-6.1243,-6.1858,-6.1858,-6.2243,-6.282,-6.282,-6.282,-6.2858,-6.2998,-6.3036,-6.3075,-6.3199,-6.3238,0.0,-6.3456,-6.3651,-6.3839,-6.4031,-6.4168,-6.4275,-6.4296,-6.4297,-6.4492,-6.5195,-6.5351,-6.5742,-6.7187,-6.7578,-6.793,-6.8633,-6.7734,-6.707,-6.7617,-6.7851,-6.8125,-6.8594,-6.8672,-6.8633,-6.8515,-6.7851,-6.7461,-6.7461,-6.7265,-6.664,-6.543,-6.5156,-6.4883,-6.457,-6.4375,-6.4297,-6.4297,-6.3437,-6.2928,-6.2764,-6.2022,-6.1662,-6.1676,-6.174,-6.1483,0.0,0.0,0.0,0.0,0.0,0.0,0.0,0.0,0.0,0.0,0.0,-3.3353,-3.4622,0.0,-4.2854,-4.4162,-4.8625,-5.1933,-5.1933,-5.2664,-5.2587,-5.0894,-5.1433,-5.2433,-5.3741,-5.4203,-5.4972,-5.6242,-5.7126,-5.8165,-5.9435,-5.9896,-6.0358,-6.0781,-6.0781,-6.0781,-6.0781,-6.1243,-6.1435,-6.1435,-6.1858,-6.2281,-6.2704,-6.2704,-6.2935,-6.332,-6.332,-6.332,-6.332,-6.332,-6.332,-6.3243,-6.2397,-6.232,-6.2704,-6.2704,-6.2935,-6.332,-6.332,-6.332,-6.332,-6.3397,-6.346,-6.3498,-6.3638,-6.3745,-6.3917,-6.4459,-6.4721,-6.4932,-6.5411,-6.5529,-6.5586,-6.5586,-6.5586,-6.5703,-6.6172,-6.625,-6.6523,-6.7383,-6.789,-6.8594,-6.9883,-6.9726,-6.9453,-6.9453,-6.9805,-7.0078,-7.0039,-7.0039,-6.9922,-6.9531,-6.9062,-6.8789,-6.8789,-6.8047,-6.7187,-6.6328,-6.5859,-6.539,-6.4961,-6.4961,-6.4765,-6.4297,-6.3867,-6.3633,-6.3633,-6.3203,-6.3008,-6.3008,-6.2861,-6.2781,0.0,0.0,0.0,0.0,0.0,0.0,0.0,-3.1673,-3.3387,-3.6349,-3.7777,-3.8815,-3.9854,-4.3816,-4.7048,-4.7548,-5.1048,-5.3933,-5.4626,-5.4434,-5.3626,-5.2087,-5.2972,-5.4049,-5.4895,-5.5742,-5.6549,-5.7396,-5.8742,-5.9588,-5.9742,-6.0435,-6.0781,-6.0781,-6.0973,-6.105,-6.105,-6.1897,-6.232,-6.232,-6.2974,-6.3397,-6.3551,-6.3551,-6.3628,-6.382,-6.382,-6.382,-6.382,-6.382,-6.382,-6.382,-6.382,-6.382,-6.3782,-6.3628,-6.3666,-6.382,-6.382,-6.382,-6.382,-6.3858,-6.3858,-6.3897,-6.4075,-6.4244,-6.4538,-6.5386,-6.5748,-6.6015,-6.6719,-6.6914,-6.6914,-6.6914,-6.7031,-6.7148,-6.7148,-6.7305,-6.7383,-6.7383,-6.7969,-6.8984,-7.0664,-7.1523,-7.1875,-7.1523,-7.207,-7.2265,-7.1562,-7.1445,-7.1211,-7.0547,-7.0273,-7.0078,-6.9922,-6.9297,-6.8633,-6.793,-6.7578,-6.707,-6.6367,-6.6015,-6.5508,-6.4805,-6.4648,-6.4531,-6.4531,-6.4375,-6.4297,-6.4297,-6.4453,-6.4414,-2.474,-2.6539,-2.9195,-2.8902,-3.1385,-3.3896,0.0,-3.5627,-3.7146,-3.7747,-3.9123,-4.07,-4.2354,-4.5009,-4.7625,-4.9894,-5.3164,-5.5434,-5.5549,-5.6819,-5.7357,-5.6395,-5.578,-5.5742,-5.6626,-5.7511,-5.8357,-5.9165,-5.9396,-5.9858,-6.0589,-6.0742,-6.0781,-6.0781,-6.155,-6.1935,-6.1935,-6.2743,-6.3166,-6.3166,-6.3281,-6.3705,-6.4436,-6.4436,-6.4897,-6.559,-6.559,-6.559,-6.559,-6.559,-6.559,-6.559,-6.559,-6.559,-6.5513,-6.4743,-6.4936,-6.559,-6.559,-6.559,-6.5628,-6.5743,-6.5782,-6.582,-6.6038,-6.6178,-6.6324,-6.6437,-6.6599,-6.6797,-6.6875,-6.6914,-6.6914,-6.6914,-6.75,-6.8047,-6.8047,-6.8672,-6.918,-6.914,-6.9219,-6.9805,-7.1562,-7.1953,-7.25,-7.3945,-7.4258,-7.4258,-7.418,-7.414,-7.414,-7.4023,-7.332,-7.2539,-7.1758,-7.164,-7.1523,-7.1445,-6.9961,-6.9062,-6.8984,-6.7539,-6.6719,-6.6601,-6.5859,-6.5469,-6.5469,-6.4687,-6.4297,-6.4336,-6.5078,-6.5039,-3.322,-3.2926,-3.2904,-3.4525,-3.6807,-3.8664,-3.8667,-4.0043,-4.1971,-4.4166,-4.5586,-4.6778,-4.8009,-4.9933,-5.1818,-5.3356,-5.5203,-5.6819,-5.778,-5.8127,-5.8357,-5.8434,-5.8127,-5.7857,-5.778,-5.8511,-5.9127,-5.9473,-5.9973,-6.0435,-6.0781,-6.1281,-6.155,-6.155,-6.2358,-6.2781,-6.2781,-6.3628,-6.4051,-6.4051,-6.4589,-6.5013,-6.5359,-6.5359,-6.5551,-6.5897,-6.5897,-6.5897,-6.5897,-6.5897,-6.5897,-6.5897,-6.5897,-6.5897,-6.5859,-6.5474,-6.559,-6.5897,-6.5897,-6.5897,-6.5897,-6.5974,-6.5974,-6.6051,-6.6346,-6.6456,-6.6504,-6.6706,-6.7187,-6.7656,-6.7656,-6.8047,-6.8398,-6.8359,-6.8672,-6.8945,-6.8906,-6.9219,-6.9648,-7.0078,-6.9765,-7.0312,-7.3047,-7.3086,-7.3515,-7.5781,-7.5234,-7.4609,-7.4609,-7.4609,-7.4609,-7.4609,-7.4258,-7.3711,-7.2812,-7.2773,-7.2539,-7.2031,-7.1328,-7.0703,-7.0195,-6.9492,-6.8906,-6.8437,-6.8047,-6.7851,-6.7812,-6.7461,-6.7578,-6.8047,-6.8398,-6.8633,-3.689,-3.6633,-3.6315,-3.8767,-4.1288,-4.316,-4.3042,-4.4304,-4.6302,-4.9183,-5.0433,-5.1356,-5.2433,-5.3664,-5.4857,-5.5895,-5.678,-5.7857,-5.9319,-5.9204,-5.9204,-5.9781,-5.9858,-5.9627,-5.905,-5.9511,-5.9858,-5.9858,-6.0435,-6.0896,-6.1127,-6.1743,-6.2204,-6.2397,-6.3243,-6.3666,-6.3666,-6.4512,-6.4974,-6.4974,-6.559,-6.5897,-6.5897,-6.5897,-6.5897,-6.5897,-6.5897,-6.5897,-6.5897,-6.5897,-6.5897,-6.5897,-6.5897,-6.5897,-6.5897,-6.5897,-6.5897,-6.5897,-6.5897,-6.5897,-6.5897,-6.5897,-6.5897,-6.5974,-6.6461,-6.6613,-6.6766,-6.7305,-6.7963,-6.8476,-6.8515,-6.8984,-6.9453,-6.9414,-6.9609,-6.9805,-6.9765,-7.0,-7.0351,-7.0937,-7.0586,-7.1133,-7.4101,-7.4062,-7.4453,-7.6836,-7.6133,-7.5312,-7.5312,-7.5312,-7.5312,-7.5312,-7.5312,-7.5078,-7.4414,-7.4375,-7.3984,-7.3125,-7.2617,-7.207,-7.1445,-7.0703,-7.0195,-6.9844,-6.9609,-6.9609,-6.9765,-6.957,-7.0039,-7.1055,-7.1055,-7.1406,-3.098,-3.4468,-3.7838,-3.9491,-4.3386,-4.6862,-4.6825,-4.8075,-4.951,-5.0471,-5.1318,-5.2395,-5.4087,-5.4472,-5.5049,-5.6665,-5.7703,-5.855,-5.9396,-6.0204,-6.0742,-6.0742,-6.0742,-6.0742,-6.0742,-6.0742,-6.0742,-6.0742,-6.0781,-6.1166,-6.2012,-6.2089,-6.2474,-6.3243,-6.4128,-6.4551,-6.4551,-6.5436,-6.5859,-6.5859,-6.5897,-6.5897,-6.5897,-6.5897,-6.5897,-6.5897,-6.5897,-6.5897,-6.5897,-6.5897,-6.5897,-6.5897,-6.5897,-6.5897,-6.5897,-6.5897,-6.5897,-6.5897,-6.5897,-6.5897,-6.5897,-6.5897,-6.5897,-6.6051,-6.6821,-6.7222,-6.757,-6.8553,-6.9003,-6.9219,-6.9336,-6.9375,-6.9414,-6.9414,-7.0039,-7.0664,-7.0664,-7.1328,-7.1914,-7.1953,-7.1953,-7.25,-7.4297,-7.457,-7.5156,-7.6914,-7.7148,-7.7109,-7.7109,-7.7109,-7.7109,-7.7109,-7.7109,-7.7109,-7.707,-7.707,-7.6719,-7.5859,-7.4219,-7.3242,-7.3203,-7.0781,-6.9844,-7.0664,-6.9883,-6.9883,-7.0664,-6.9805,-7.0273,-7.1953,-7.1953,-7.1953,-3.5569,-3.8432,-4.125,-4.3643,-4.6038,-4.7926,-4.8137,-4.9663,-5.1164,-5.1433,-5.1279,-5.1433,-5.2587,-5.2779,-5.351,-5.578,-5.7357,-5.8781,-6.0165,-6.0627,-6.0781,-6.0781,-6.0781,-6.0781,-6.0781,-6.0781,-6.0781,-6.0781,-6.132,-6.1781,-6.2089,-6.3128,-6.3897,-6.4166,-6.5013,-6.5474,-6.5474,-6.5743,-6.5897,-6.5897,-6.5897,-6.5897,-6.5897,-6.5897,-6.5897,-6.5897,-6.5897,-6.5897,-6.5897,-6.5897,-6.5897,-6.5936,-6.6474,-6.6705,-6.6782,-6.7359,-6.7552,-6.7475,-6.6898,-6.7051,-6.7552,-6.7552,-6.7552,-6.7628,-6.8142,-6.8333,-6.8506,-6.9115,-6.9718,-7.0195,-7.0234,-7.0703,-7.1133,-7.1133,-7.1367,-7.1562,-7.1562,-7.1797,-7.2187,-7.2734,-7.2383,-7.2539,-7.4297,-7.4609,-7.5195,-7.6953,-7.7187,-7.7187,-7.7187,-7.7187,-7.7187,-7.7187,-7.7187,-7.7187,-7.7187,-7.7187,-7.707,-7.6797,-7.5664,-7.4765,-7.418,-7.332,-7.2734,-7.2422,-7.2148,-7.2422,-7.3281,-7.2422,-7.289,-7.4609,-7.4609,-7.4883,-3.9496,-4.1772,-4.3713,-4.6089,-4.7691,-4.8796,-4.8984,-5.0313,-5.1625,-5.2241,-5.1241,-5.0587,-5.1702,-5.1164,-5.1279,-5.3549,-5.4857,-5.6472,-5.9088,-5.9435,-5.9781,-6.0704,-6.0781,-6.0781,-6.0781,-6.0781,-6.0935,-6.1243,-6.1781,-6.2358,-6.2974,-6.4012,-6.4743,-6.5051,-6.559,-6.5897,-6.5897,-6.5897,-6.5897,-6.5897,-6.5897,-6.5897,-6.5897,-6.5897,-6.5897,-6.5897,-6.5897,-6.6051,-6.632,-6.632,-6.6513,-6.6859,-6.7359,-6.7552,-6.7628,-6.8205,-6.859,-6.8744,-6.7859,-6.7975,-6.8475,-6.8436,-6.8475,-6.859,-6.9104,-6.9258,-6.9398,-7.009,-7.0641,-7.1074,-7.1167,-7.1562,-7.1992,-7.1992,-7.1992,-7.1992,-7.1992,-7.1992,-7.2187,-7.2734,-7.2383,-7.2539,-7.4297,-7.5117,-7.5898,-7.7031,-7.7187,-7.7187,-7.7187,-7.7187,-7.7187,-7.7187,-7.7187,-7.7187,-7.7187,-7.7187,-7.707,-7.6758,-7.6211,-7.5664,-7.5078,-7.4453,-7.414,-7.4219,-7.3633,-7.3867,-7.5078,-7.418,-7.4648,-7.6367,-7.6055,-7.6367,-4.2286,-4.4195,-4.5259,-4.6801,-4.8356,-4.9504,-4.9504,-5.0174,-5.1164,-5.2626,-5.0971,-4.974,-5.1241,-4.9663,-4.8663,-5.0433,-5.0894,-5.251,-5.6549,-5.7165,-5.8088,-6.0512,-6.0781,-6.0781,-6.0781,-6.0781,-6.1166,-6.2089,-6.2166,-6.2858,-6.4512,-6.4628,-6.5051,-6.5859,-6.5897,-6.5897,-6.5897,-6.5897,-6.5897,-6.5897,-6.5897,-6.5897,-6.5897,-6.5897,-6.5897,-6.5897,-6.5936,-6.6397,-6.709,-6.7128,-6.7667,-6.8398,-6.8475,-6.8475,-6.8475,-6.8513,-6.9052,-6.9629,-6.8821,-6.8629,-6.877,-6.859,-6.8667,-6.8975,-6.9771,-7.0002,-7.0233,-7.139,-7.1724,-7.1756,-7.1963,-7.1992,-7.1992,-7.1992,-7.1992,-7.1992,-7.1992,-7.1992,-7.1992,-7.1992,-7.2031,-7.2617,-7.4297,-7.6015,-7.7148,-7.7187,-7.7187,-7.7187,-7.7187,-7.7187,-7.7187,-7.7187,-7.7187,-7.7187,-7.7187,-7.7187,-7.6836,-7.6015,-7.5937,-7.5898,-7.5898,-7.4297,-7.4219,-7.5859,-7.4297,-7.4258,-7.5976,-7.5078,-7.5547,-7.7187,-7.6367,-7.6406,-4.3901,-4.5883,-4.7498,-4.7902,-4.8766,-4.9504,-4.9504,-5.0593,-5.1202,-4.9702,-4.8394,-4.7278,-4.6394,-4.7278,-4.8663,-5.0433,-5.3895,-5.6934,-5.8627,-5.9435,-6.0089,-6.0704,-6.0781,-6.0781,-6.0781,-6.0781,-6.1396,-6.2897,-6.2974,-6.3474,-6.4551,-6.5205,-6.5667,-6.5897,-6.5897,-6.5897,-6.5897,-6.5897,-6.5897,-6.5897,-6.5897,-6.5897,-6.5897,-6.5897,-6.5897,-6.5936,-6.6513,-6.6898,-6.7128,-6.7782,-6.8205,-6.8475,-6.9129,-6.936,-6.9436,-7.0052,-7.0398,-7.0552,-7.036,-7.0283,-7.036,-7.0437,-7.0514,-7.0629,-7.1118,-7.1233,-7.1323,-7.1788,-7.1924,-7.1943,-7.1989,-7.1992,-7.1992,-7.1992,-7.1992,-7.1992,-7.1992,-7.1992,-7.1992,-7.1992,-7.2539,-7.332,-7.4414,-7.5508,-7.6445,-7.7109,-7.7187,-7.7187,-7.7187,-7.7187,-7.7187,-7.7187,-7.7187,-7.7187,-7.7187,-7.7187,-7.7109,-7.6875,-7.625,-7.5898,-7.5898,-7.5469,-7.5469,-7.5898,-7.5469,-7.5781,-7.6875,-7.5976,-7.6133,-7.7187,-7.6953,-7.6992,-4.5773,-4.7278,-4.8344,-4.8495,-4.9011,-4.9268,-4.831,-4.8907,-4.9086,-4.6894,-4.5163,-4.3893,-4.3316,-4.497,-4.674,-4.774,-5.2164,-5.6049,-5.7627,-5.8588,-5.955,-6.0666,-6.0781,-6.0781,-6.0781,-6.0781,-6.1512,-6.3166,-6.332,-6.3858,-6.5089,-6.5628,-6.5897,-6.5897,-6.5897,-6.5897,-6.5897,-6.5897,-6.5897,-6.5897,-6.5897,-6.5897,-6.5897,-6.5897,-6.609,-6.6436,-6.6898,-6.7513,-6.8282,-6.8783,-6.9167,-6.9552,-7.0052,-7.0283,-7.0398,-7.086,-7.1091,-7.1168,-7.1168,-7.1168,-7.1168,-7.1168,-7.1291,-7.1465,-7.1646,-7.1695,-7.1742,-7.1953,-7.1992,-7.1992,-7.1992,-7.1992,-7.1992,-7.1992,-7.1992,-7.1992,-7.1992,-7.1992,-7.2109,-7.25,-7.3594,-7.4609,-7.5078,-7.5898,-7.664,-7.7148,-7.7187,-7.7187,-7.7187,-7.7187,-7.7187,-7.7187,-7.7187,-7.7187,-7.7187,-7.7187,-7.7187,-7.7187,-7.6758,-7.6484,-7.6484,-7.6094,-7.6094,-7.6445,-7.6094,-7.6328,-7.7187,-7.6719,-7.6719,-7.7226,-7.7578,-7.7773,-4.7352,-4.8233,-4.8383,-4.8813,-4.9277,-4.9098,-4.6815,-4.6626,-4.624,-4.3932,-4.17,-4.0277,-4.07,-4.2431,-4.397,-4.4547,-4.874,-5.2933,-5.578,-5.6857,-5.8165,-6.0512,-6.0781,-6.0781,-6.0781,-6.0781,-6.1512,-6.3166,-6.332,-6.4051,-6.582,-6.5897,-6.5897,-6.5897,-6.5897,-6.5897,-6.5897,-6.5897,-6.5897,-6.5897,-6.5897,-6.5897,-6.5897,-6.6013,-6.6436,-6.709,-6.7321,-6.8282,-6.9706,-6.9821,-7.0283,-7.0898,-7.0898,-7.1014,-7.1206,-7.1168,-7.1325,-7.1493,-7.1491,-7.1503,-7.1503,-7.1321,-7.1481,-7.1702,-7.1746,-7.1719,-7.1784,-7.1963,-7.1992,-7.1992,-7.1992,-7.1992,-7.1992,-7.1992,-7.1992,-7.1992,-7.1992,-7.2109,-7.2422,-7.3281,-7.4805,-7.5898,-7.5898,-7.6601,-7.7187,-7.7187,-7.7187,-7.7187,-7.7187,-7.7187,-7.7187,-7.7187,-7.7187,-7.7187,-7.7187,-7.7187,-7.7187,-7.7187,-7.7187,-7.7187,-7.7187,-7.6484,-7.6445,-7.7187,-7.6445,-7.6484,-7.7383,-7.7383,-7.7422,-7.7539,-7.832,-7.8672,-4.6985,-4.7792,-4.8383,-4.8813,-4.9759,-4.9844,-4.6968,-4.6626,-4.5432,-4.0162,-3.8738,-3.7853,-3.5892,-3.8623,-4.2316,-4.5855,-4.951,-5.351,-5.8204,-5.8973,-5.9511,-6.0666,-6.0781,-6.0781,-6.0781,-6.0781,-6.1512,-6.3166,-6.332,-6.4051,-6.582,-6.5897,-6.5897,-6.5897,-6.5897,-6.5897,-6.5897,-6.5897,-6.5897,-6.5897,-6.5897,-6.5897,-6.5897,-6.659,-6.6974,-6.7167,-6.8629,-6.9436,-6.9744,-7.0437,-7.0783,-7.0898,-7.0898,-7.1014,-7.1168,-7.1014,-7.117,-7.1486,-7.1299,-7.1426,-7.1657,-7.1618,-7.1659,-7.1745,-7.1893,-7.1958,-7.1967,-7.199,-7.1992,-7.1992,-7.1992,-7.1992,-7.1992,-7.1992,-7.1992,-7.1992,-7.1992,-7.2578,-7.332,-7.4219,-7.5195,-7.5898,-7.5898,-7.6601,-7.7187,-7.7187,-7.7187,-7.7187,-7.7187,-7.7187,-7.7187,-7.7187,-7.7187,-7.7187,-7.7187,-7.7187,-7.7187,-7.7187,-7.7187,-7.7187,-7.7187,-7.7031,-7.7031,-7.7187,-7.7031,-7.7383,-7.8281,-7.8281,-7.8633,-7.9258,-7.9414,-7.9492,-4.625,-4.6764,-4.7316,-4.8327,-4.9047,-4.8537,-4.4819,-4.4113,-4.2547,-3.6584,-3.5353,-3.4968,-3.3737,-3.7007,-4.0546,-4.2624,-4.8355,-5.3433,-5.5895,-5.8511,-6.0319,-6.0742,-6.0781,-6.0781,-6.0781,-6.0781,-6.1512,-6.3166,-6.332,-6.4051,-6.582,-6.5897,-6.5897,-6.5897,-6.5897,-6.5897,-6.5897,-6.5897,-6.5897,-6.5897,-6.5897,-6.5897,-6.5936,-6.6744,-6.7359,-6.7859,-6.9129,-6.9937,-7.036,-7.0744,-7.0898,-7.0898,-7.0898,-7.1014,-7.1195,-7.1101,-7.1291,-7.1605,-7.1493,-7.1618,-7.1849,-7.1849,-7.1859,-7.1883,-7.1981,-7.1992,-7.1992,-7.1992,-7.1992,-7.1992,-7.1992,-7.1992,-7.1992,-7.1992,-7.1992,-7.2109,-7.2578,-7.3359,-7.4219,-7.5117,-7.5976,-7.6562,-7.6562,-7.6914,-7.7187,-7.7187,-7.7187,-7.7187,-7.7187,-7.7187,-7.7187,-7.7187,-7.7187,-7.7187,-7.7187,-7.7187,-7.7187,-7.7187,-7.7187,-7.7383,-7.7851,-7.789,-7.8086,-7.8476,-7.8515,-7.8711,-7.9101,-7.9101,-7.9336,-7.9726,-8.0156,-8.039,-4.5553,-4.6066,-4.6644,-4.819,-4.8758,-4.7644,-4.2675,-4.1508,-3.9738,-3.3391,-3.1968,-3.1814,-3.1814,-3.4891,-3.7738,-3.8854,-4.5316,-5.0933,-5.2933,-5.6665,-5.9511,-6.0396,-6.0704,-6.0781,-6.0781,-6.0781,-6.1512,-6.3166,-6.3666,-6.4436,-6.582,-6.5897,-6.5897,-6.5897,-6.5897,-6.5897,-6.5897,-6.5897,-6.5897,-6.5897,-6.5897,-6.5897,-6.5936,-6.6936,-6.7744,-6.8475,-6.9513,-7.0321,-7.0898,-7.0898,-7.0898,-7.0898,-7.0898,-7.1014,-7.1183,-7.1214,-7.1394,-7.1695,-7.1695,-7.1839,-7.1992,-7.1992,-7.1989,-7.1992,-7.1992,-7.1992,-7.1992,-7.1992,-7.1992,-7.1992,-7.1992,-7.1992,-7.1992,-7.1992,-7.1992,-7.2305,-7.3359,-7.4101,-7.4922,-7.5976,-7.6719,-7.7187,-7.7187,-7.7187,-7.7187,-7.7187,-7.7187,-7.7187,-7.7187,-7.7187,-7.7265,-7.7461,-7.7305,-7.7265,-7.7461,-7.7461,-7.7539,-7.7734,-7.7734,-7.8047,-7.8711,-7.875,-7.9062,-7.9687,-7.9687,-7.9805,-7.9961,-7.9961,-8.0078,-8.0273,-8.0976,-8.1289,-4.5076,-4.6683,-4.7826,-4.9085,-5.0236,-4.9205,-4.2211,-4.0623,-3.8469,-3.0968,-2.8852,-2.8352,-2.8352,-2.9929,-3.2737,-3.7353,-3.9508,-4.3508,-5.201,-5.3587,-5.5318,-5.9165,-6.0319,-6.0781,-6.0781,-6.0781,-6.1512,-6.3166,-6.4782,-6.5743,-6.5897,-6.5897,-6.5897,-6.5897,-6.5897,-6.5897,-6.5897,-6.5897,-6.5897,-6.5897,-6.5897,-6.5897,-6.5936,-6.7552,-6.8321,-6.8513,-7.009,-7.0821,-7.0898,-7.0898,-7.0898,-7.0898,-7.0898,-7.1014,-7.1195,-7.1183,-7.1414,-7.1695,-7.1695,-7.1831,-7.1984,-7.1984,-7.1989,-7.1992,-7.1992,-7.1992,-7.1992,-7.1992,-7.1992,-7.1992,-7.1992,-7.1992,-7.1992,-7.1992,-7.1992,-7.2461,-7.4101,-7.4531,-7.5078,-7.6758,-7.7148,-7.7187,-7.7187,-7.7187,-7.7187,-7.7187,-7.7187,-7.7187,-7.7187,-7.7187,-7.75,-7.8281,-7.7656,-7.7539,-7.832,-7.8398,-7.8672,-7.9414,-7.9453,-7.9492,-7.9609,-7.9609,-7.9609,-7.9687,-7.9687,-8.0078,-8.0898,-8.0898,-8.1289,-8.207,-8.2148,-8.2187,-4.5088,-4.6585,-4.7617,-4.8844,-4.7577,-4.4913,-4.0729,-3.7777,-3.4468,-2.9429,-2.8121,-2.789,-2.789,-2.8852,-3.0467,-3.3006,-3.6738,-4.0931,-4.5663,-4.9433,-5.3049,-5.678,-5.7973,-5.9127,-6.0627,-6.0781,-6.1512,-6.3166,-6.4897,-6.5897,-6.5897,-6.5897,-6.5897,-6.5897,-6.5897,-6.5897,-6.5897,-6.5897,-6.5897,-6.5897,-6.5897,-6.5897,-6.5974,-6.7628,-6.8398,-6.8513,-7.0167,-7.0898,-7.0898,-7.0898,-7.0898,-7.0898,-7.0898,-7.0937,-7.1014,-7.1168,-7.1347,-7.161,-7.1673,-7.184,-7.1992,-7.1992,-7.1992,-7.1992,-7.1992,-7.1992,-7.1992,-7.1992,-7.1992,-7.1992,-7.1992,-7.1992,-7.1992,-7.1992,-7.1992,-7.2344,-7.3555,-7.4219,-7.4961,-7.6172,-7.6836,-7.7187,-7.7187,-7.7187,-7.7187,-7.7187,-7.7187,-7.7383,-7.793,-7.7969,-7.8281,-7.914,-7.8476,-7.832,-7.914,-7.9219,-7.9375,-7.9687,-7.9687,-7.9922,-8.0469,-8.0469,-8.0742,-8.125,-8.125,-8.1445,-8.1797,-8.1797,-8.1953,-8.2304,-8.2304,-8.2304,-4.3856,-4.5734,-4.7125,-4.8196,-4.5562,-4.1953,-3.9169,-3.543,-3.1506,-2.789,-2.7121,-2.7121,-2.7121,-2.7813,-2.8736,-2.9852,-3.3968,-3.8084,-4.1008,-4.5663,-5.0164,-5.378,-5.5203,-5.6857,-5.9435,-6.0819,-6.205,-6.3205,-6.4897,-6.5897,-6.5897,-6.5897,-6.5897,-6.5897,-6.5897,-6.5897,-6.5897,-6.5897,-6.5897,-6.5897,-6.5897,-6.5897,-6.5974,-6.7628,-6.8398,-6.8513,-7.0167,-7.0898,-7.0898,-7.0898,-7.0898,-7.0898,-7.0898,-7.0898,-7.0937,-7.1129,-7.1313,-7.1534,-7.1646,-7.1827,-7.1992,-7.1992,-7.1992,-7.1992,-7.1992,-7.1992,-7.1992,-7.1992,-7.1992,-7.1992,-7.1992,-7.1992,-7.1992,-7.1992,-7.1992,-7.2305,-7.3437,-7.418,-7.4922,-7.6055,-7.6797,-7.7187,-7.7187,-7.7187,-7.7187,-7.7187,-7.7422,-7.7812,-7.8437,-7.8711,-7.918,-8.0,-7.957,-7.9453,-8.0039,-8.0078,-8.0195,-8.0469,-8.0469,-8.0742,-8.1367,-8.1367,-8.1679,-8.2304,-8.2304,-8.2304,-8.2304,-8.2304,-8.2304,-8.2304,-8.2304,-8.2304,-4.0917,-4.4118,-4.6488,-4.7304,-4.5303,-4.197,-3.77,-3.4122,-3.0506,-2.6187,-2.5341,-2.5341,-2.5341,-2.6043,-2.7159,-2.8852,-3.0621,-3.3814,-3.97,-4.2739,-4.5932,-5.024,-5.2202,-5.4241,-5.678,-6.0819,-6.3281,-6.332,-6.4897,-6.5897,-6.5897,-6.5897,-6.5897,-6.5897,-6.5897,-6.5897,-6.5897,-6.5897,-6.5897,-6.5897,-6.5897,-6.5897,-6.5974,-6.7628,-6.8398,-6.8513,-7.0167,-7.0898,-7.0898,-7.0898,-7.0898,-7.0898,-7.0898,-7.0898,-7.0937,-7.1129,-7.1313,-7.1524,-7.1662,-7.1836,-7.1992,-7.1992,-7.1992,-7.1992,-7.1992,-7.1992,-7.1992,-7.1992,-7.1992,-7.1992,-7.1992,-7.1992,-7.1992,-7.1992,-7.1992,-7.2461,-7.4219,-7.4609,-7.5117,-7.6836,-7.7187,-7.7187,-7.7187,-7.7187,-7.7187,-7.7187,-7.793,-7.8476,-7.8515,-7.9219,-8.0039,-8.0898,-8.0976,-8.0976,-8.0976,-8.0976,-8.1367,-8.2226,-8.2265,-8.2265,-8.2304,-8.2304,-8.2304,-8.2304,-8.2304,-8.2304,-8.2304,-8.2304,-8.2304,-8.2304,-8.2304,-8.2304,-3.7559,-3.9482,-4.0701,-4.0952,-3.8139,-3.4968,-3.3583,-3.0198,-2.6918,-2.5572,-2.5303,-2.5303,-2.5303,-2.6505,-2.7659,-2.8198,-3.066,-3.3583,-3.6661,-4.1239,-4.5893,-5.0202,-5.5241,-5.8704,-5.9511,-6.1858,-6.332,-6.332,-6.4897,-6.5897,-6.5897,-6.5897,-6.5897,-6.5897,-6.5897,-6.5897,-6.5897,-6.5897,-6.5897,-6.5897,-6.5897,-6.5897,-6.5974,-6.7628,-6.8398,-6.8513,-7.0167,-7.0898,-7.0898,-7.0898,-7.0898,-7.0898,-7.0898,-7.0898,-7.0937,-7.1129,-7.1326,-7.151,-7.1636,-7.1836,-7.1992,-7.1992,-7.1992,-7.1992,-7.1992,-7.1992,-7.1992,-7.1992,-7.1992,-7.1992,-7.1992,-7.1992,-7.1992,-7.1992,-7.1992,-7.2305,-7.3476,-7.418,-7.4922,-7.6094,-7.6797,-7.7187,-7.7187,-7.7187,-7.7187,-7.7187,-7.793,-7.8711,-7.9258,-8.0078,-8.0937,-8.1797,-8.1875,-8.1875,-8.1875,-8.1875,-8.1992,-8.2265,-8.2304,-8.2304,-8.2304,-8.2304,-8.2304,-8.2304,-8.2304,-8.2304,-8.2304,-8.2304,-8.2304,-8.2304,-8.2304,-8.2304,-3.393,-3.593,-3.7046,-3.7046,-3.4122,-3.1198,-3.1198,-2.8159,-2.5303,-2.5303,-2.5303,-2.5303,-2.5303,-2.6467,-2.7621,-2.8236,-3.066,-3.3583,-3.693,-4.1393,-4.6124,-5.1048,-5.6203,-5.9358,-5.9358,-6.1743,-6.332,-6.332,-6.4897,-6.5897,-6.5897,-6.5897,-6.5897,-6.5897,-6.5897,-6.5897,-6.5897,-6.5897,-6.5897,-6.5897,-6.5897,-6.5897,-6.5936,-6.7282,-6.809,-6.8475,-6.986,-7.0629,0.0,-7.0898,-7.0898,-7.0898,-7.0898,-7.0898,-7.0937,-7.1052,-7.1206,-7.1428,-7.1565,-7.1744,-7.1914,-7.1992,-7.1992,-7.1992,-7.1992,-7.1992,-7.1992,-7.1992,-7.1992,-7.1992,-7.1992,-7.1992,-7.1992,-7.1992,-7.1992,-7.2344,-7.3515,-7.4219,-7.4961,-7.6172,-7.6836,-7.7187,-7.7187,-7.7187,-7.7187,-7.7187,-7.8203,-7.914,-7.9648,-8.0742,-8.1719,-8.2226,-8.2304,-8.2304,-8.2304,-8.2304,-8.2304,-8.2304,-8.2304,-8.2304,-8.2304,-8.2304,-8.2304,-8.2304,-8.2304,-8.2304,-8.2304,-8.2304,-8.2304,-8.2304,-8.2304,-8.2304,0.0,-3.2968,-3.4762,-3.4762,-3.2378,-3.0033,-3.0033,-2.7572,0.0,-2.5303,-2.5303,-2.5303,-2.538,-2.612,-2.7236,-2.8929,-3.0698,-3.3891,-3.97,-4.3124,-4.7201,-5.3049,-5.5818,-5.728,-5.728,-6.0935,-6.332,-6.332,-6.4897,-6.5897,-6.5897,-6.5897,-6.5897,-6.5897,-6.5897,-6.5897,-6.5897,-6.5897,-6.5897,-6.5897,-6.5897,-6.5897,-6.5936,-6.6744,-6.759,-6.8475,-6.9321,-7.0167,-7.0898,-7.0898,-7.0898,-7.0898,-7.0898,-7.0898,-7.0898,-7.0898,-7.1052,-7.1236,-7.1413,-7.1581,-7.1758,-7.1953,-7.1992,-7.1992,-7.1992,-7.1992,-7.1992,-7.1992,-7.1992,-7.1992,-7.1992,-7.1992,-7.1992,-7.1992,-7.1992,-7.2461,-7.4219,-7.4609,-7.5117,-7.6875,-7.7187,-7.7187,-7.7187,-7.7187,-7.7187,-7.7187,-7.8594,-7.9648,-7.9687,-8.1172,-8.2226,-8.2304,-8.2304,-8.2304,-8.2304,-8.2304,-8.2304,-8.2304,-8.2304,-8.2304,-8.2304,-8.2304,-8.2304,-8.2304,-8.2304,-8.2304,-8.2304,-8.2304,-8.2304,-8.2304,-8.2304,-8.2304,-2.6351,0.0,-2.7687,-2.7687,-2.7072,-2.6495,0.0,-2.588,-2.5303,-2.5303,0.0,0.0,-2.6159,-2.7005,-2.8121,-2.9813,-3.2083,-3.5199,-3.9854,-4.7201,-5.3818,-5.8473,-5.955,-5.9896,-5.9896,-6.1973,-6.332,-6.332,-6.4897,-6.5897,-6.5897,-6.5897,-6.5897,-6.5897,-6.5897,-6.5897,-6.5897,-6.5897,-6.5897,-6.5897,-6.5897,-6.5897,-6.5936,-6.6744,-6.759,-6.8475,-6.9321,-7.0167,-7.0898,-7.0898,-7.0898,-7.0898,-7.0898,-7.0898,-7.0898,-7.0898,-7.1129,-7.1387,-7.1312,-7.1562,-7.1953,-7.1992,-7.1992,-7.1992,-7.1992,-7.1992,-7.1992,-7.1992,-7.1992,-7.1992,-7.1992,-7.1992,-7.1992,-7.1992,-7.1992,-7.2461,-7.4219,-7.4609,-7.5117,-7.6875,-7.7187,-7.7187,-7.7187,-7.7187,-7.7187,-7.7187,-7.8086,-7.8984,-7.9609,-8.0625,-8.1562,-8.2226,-8.2304,-8.2304,-8.2304,-8.2304,-8.2304,-8.2304,-8.2304,-8.2304,-8.2304,-8.2304,-8.2304,-8.2304,-8.2304,-8.2304,-8.2304,-8.2304,-8.2304,-8.2304,-8.2304,-8.2304,-2.4505,-2.5005,-2.5303,-2.5303,-2.5303,-2.5303,-2.5303,-2.5303,-2.5303,-2.5303,0.0,0.0,-2.6505,-2.7928,-2.9467,-3.0775,-3.4122,-3.843,-4.3816,-4.9625,-5.4741,-5.8588,-5.905,-5.9511,-6.0704,-6.232,-6.332,-6.332,-6.4897,-6.5897,-6.5897,-6.5897,-6.5897,-6.5897,-6.5897,-6.5897,-6.5897,-6.5897,-6.5897,-6.5897,-6.5897,-6.5897,-6.5897,-6.6359,-6.7013,-6.7859,-6.8744,-6.959,-7.0398,-7.0744,-7.0898,-7.0898,-7.0898,-7.0898,-7.0898,-7.0898,-7.1052,-7.1222,-7.1324,-7.1626,-7.1992,-7.1992,-7.1992,-7.1992,-7.1992,-7.1992,-7.1992,-7.1992,-7.1992,-7.1992,-7.1992,-7.1992,-7.1992,-7.1992,-7.2305,-7.2969,-7.4297,-7.4922,-7.5586,-7.6953,-7.7187,-7.7187,-7.7187,-7.7187,-7.7187,-7.7187,-7.793,-7.8789,-7.9609,-8.0469,-8.1328,-8.2226,-8.2304,-8.2304,-8.2304,-8.2304,-8.2304,-8.2304,-8.2304,-8.2304,-8.2304,-8.2304,-8.2304,-8.2304,-8.2304,-8.2304,-8.2304,-8.2304,-8.2304,-8.2304,-8.2304,-8.2304,-2.386,-2.5159,-2.611,-2.5457,-2.5303,-2.5303,-2.5303,-2.5303,-2.5341,-2.5457,0.0,-2.6736,-2.7121,-2.8929,-3.0814,-3.2083,-3.7007,-4.2893,-4.9279,-5.1856,-5.4203,-5.7203,-5.7588,-5.8434,-6.0589,-6.232,-6.332,-6.332,-6.4897,-6.5897,-6.5897,-6.5897,-6.5897,-6.5897,-6.5897,-6.5897,-6.5897,-6.5897,-6.5897,-6.5897,-6.5897,-6.5897,-6.5897,-6.5897,-6.632,-6.7128,-6.8013,-6.8898,-6.9744,-7.0552,-7.0898,-7.0898,-7.0898,-7.0898,-7.0898,-7.0898,-7.0937,-7.1005,-7.1373,-7.1737,-7.1971,-7.199,-7.1992,-7.1992,-7.1992,-7.1992,-7.1992,-7.1992,-7.1992,-7.1992,-7.1992,-7.1992,-7.1992,-7.1992,-7.2656,-7.3555,-7.4414,-7.5273,-7.6172,-7.7031,-7.7187,-7.7187,-7.7187,-7.7187,-7.7187,-7.7187,-7.7812,-7.8594,-7.9414,-8.0273,-8.1133,-8.1992,-8.2226,-8.2304,-8.2304,-8.2304,-8.2304,-8.2304,-8.2304,-8.2304,-8.2304,-8.2304,-8.2304,-8.2304,-8.2304,-8.2304,-8.2304,-8.2304,-8.2304,-8.2304,-8.2304,-8.2304,-2.386,-2.7351,-2.9852,-2.6187,-2.5303,-2.5303,-2.5303,-2.5303,-2.5495,-2.6236,-2.6505,-2.7274,-2.9429,-3.0148,-3.1379,-3.443,-4.1585,-4.8394,-5.3049,-5.6395,-5.8819,-6.005,-6.0204,-6.0358,-6.0742,-6.232,-6.332,-6.332,-6.4897,-6.5897,-6.5897,-6.5897,-6.5897,-6.5897,-6.5897,-6.5897,-6.5897,-6.5897,-6.5897,-6.5897,-6.5897,-6.5897,-6.5897,-6.5897,-6.632,-6.7128,-6.8013,-6.8898,-6.9744,-7.0552,-7.0898,-7.0898,-7.0898,-7.0898,-7.0898,-7.0898,-7.1014,-7.1197,-7.155,-7.1689,-7.1763,-7.1953,-7.1992,-7.1992,-7.1992,-7.1992,-7.1992,-7.1992,-7.1992,-7.1992,-7.1992,-7.1992,-7.1992,-7.1992,-7.2656,-7.3555,-7.4414,-7.5273,-7.6172,-7.7031,-7.7187,-7.7187,-7.7187,-7.7187,-7.7187,-7.7187,-7.7305,-7.7695,-7.8555,-7.9414,-8.0234,-8.1094,-8.1875,-8.2304,-8.2304,-8.2304,-8.2304,-8.2304,-8.2304,-8.2304,-8.2304,-8.2304,-8.2304,-8.2304,-8.2304,-8.2304,-8.2304,-8.2304,-8.2304,-8.2304,-8.2304,-8.2304,-2.3167,-2.5428,-2.7659,-2.7967,-3.0121,-3.2045,-3.1583,-3.1814,-3.1737,-3.0314,-3.0737,-3.1198,-3.0533,-3.3045,-3.7238,-4.3355,-4.6855,-5.0279,-5.4549,-5.5703,-5.6742,-5.855,-5.8742,-5.9281,-6.0666,-6.232,-6.332,-6.332,-6.4897,-6.5897,-6.5897,-6.5897,-6.5897,-6.5897,-6.5897,-6.5897,-6.5897,-6.5897,-6.5897,-6.5897,-6.5897,-6.5897,-6.5897,-6.5897,-6.609,-6.6513,-6.7321,-6.8205,-6.9052,-6.9898,-7.0514,-7.0898,-7.0898,-7.0898,-7.0898,-7.0898,-7.1014,-7.1249,-7.151,-7.1624,-7.1728,-7.1942,-7.1992,-7.1992,-7.1992,-7.1992,-7.1992,-7.1992,-7.1992,-7.1992,-7.1992,-7.1992,-7.1992,-7.1992,-7.3047,-7.4101,-7.4492,-7.5664,-7.6719,-7.7109,-7.7187,-7.7187,-7.7187,-7.7187,-7.7187,-7.7187,-7.7187,-7.75,-7.8398,-7.8828,-7.9531,-8.0859,-8.1367,-8.1797,-8.2265,-8.2304,-8.2304,-8.2304,-8.2304,-8.2304,-8.2304,-8.2304,-8.2304,-8.2304,-8.2304,-8.2304,-8.2304,-8.2304,-8.2304,-8.2304,-8.2304,-8.2304,-2.2851,-2.4476,-2.6659,-2.989,-3.3045,-3.5584,-3.6507,-3.693,-3.6661,-3.5007,-3.5892,-3.6122,-3.3276,-3.7007,-4.2777,-4.9856,-5.0933,-5.2202,-5.6049,-5.5665,-5.5703,-5.7665,-5.7896,-5.8665,-6.0589,-6.232,-6.332,-6.332,-6.4897,-6.5897,-6.5897,-6.5897,-6.5897,-6.5897,-6.5897,-6.5897,-6.5897,-6.5897,-6.5897,-6.5897,-6.5897,-6.5897,-6.5897,-6.5897,-6.5897,-6.5936,-6.6744,-6.759,-6.8475,-6.936,-7.0167,-7.0898,-7.0898,-7.0898,-7.0898,-7.0898,-7.1014,-7.121,-7.1436,-7.1585,-7.1719,-7.1914,-7.1992,-7.1992,-7.1992,-7.1992,-7.1992,-7.1992,-7.1992,-7.1992,-7.1992,-7.1992,-7.2031,-7.2265,-7.3476,-7.4648,-7.4844,-7.6094,-7.7187,-7.7187,-7.7187,-7.7187,-7.7187,-7.7187,-7.7187,-7.7187,-7.7187,-7.7422,-7.8125,-7.8359,-7.8984,-8.0273,-8.0781,-8.1367,-8.2226,-8.2304,-8.2304,-8.2304,-8.2304,-8.2304,-8.2304,-8.2304,-8.2304,-8.2304,-8.2304,-8.2304,-8.2304,-8.2304,-8.2304,-8.2304,-8.2304,-8.2304,-2.3783,-2.7505,-3.1237,-3.1545,-2.9506,-2.9044,-3.5276,-3.5545,-3.5507,-3.92,-4.07,-4.1008,-3.9969,-4.2047,-4.4893,-4.7894,-5.2241,-5.6165,-5.8858,-5.9819,-6.0319,-6.0512,-6.0512,-6.0589,-6.0781,-6.232,-6.332,-6.332,-6.4897,-6.5897,-6.5897,-6.5897,-6.5897,-6.5897,-6.5897,-6.5897,-6.5897,-6.5897,-6.5897,-6.5897,-6.5897,-6.5897,-6.5897,-6.5897,-6.5897,-6.5936,-6.6744,-6.759,-6.8475,-6.936,-7.0167,-7.0898,-7.0898,-7.0898,-7.0898,-7.0898,-7.1014,-7.1233,-7.1441,-7.1598,-7.1719,-7.1914,-7.1992,-7.1992,-7.1992,-7.1992,-7.1992,-7.1992,-7.1992,-7.1992,-7.1992,-7.1992,-7.2187,-7.3008,-7.3906,-7.4805,-7.5625,-7.6523,-7.7187,-7.7187,-7.7187,-7.7187,-7.7187,-7.7187,-7.7187,-7.7187,-7.7187,-7.7226,-7.7305,-7.8008,-7.8555,-7.8672,-8.0078,-8.1367,-8.2226,-8.2304,-8.2304,-8.2304,-8.2304,-8.2304,-8.2304,-8.2304,-8.2304,-8.2304,-8.2304,-8.2304,-8.2304,-8.2304,-8.2304,-8.2304,-8.2304,-8.2304,-2.386,-2.7428,-3.1006,-3.1545,-3.1506,-3.3237,-4.0585,-4.2162,-4.2701,-4.4778,-4.5932,-4.6278,-4.5393,-4.7317,-4.9856,-5.2395,-5.578,-5.8588,-6.0089,-6.0589,-6.0781,-6.0781,-6.0781,-6.0781,-6.0781,-6.232,-6.332,-6.332,-6.4897,-6.5897,-6.5897,-6.5897,-6.5897,-6.5897,-6.5897,-6.5897,-6.5897,-6.5897,-6.5897,-6.5897,-6.5897,-6.5897,-6.5897,-6.5897,-6.5897,-6.5897,-6.6205,-6.6821,-6.7667,-6.8552,-6.9398,-7.0206,-7.0706,-7.0898,-7.0898,-7.0898,-7.0937,-7.1052,-7.1387,-7.1533,-7.1636,-7.191,-7.1992,-7.1992,-7.1992,-7.1992,-7.1992,-7.1992,-7.1992,-7.1992,-7.1992,-7.1992,-7.2226,-7.3086,-7.3984,-7.4844,-7.5703,-7.6562,-7.7187,-7.7187,-7.7187,-7.7187,-7.7187,-7.7187,-7.7187,-7.7187,-7.7187,-7.7187,-7.7187,-7.75,-7.789,-7.8437,-7.9492,-8.0547,-8.1406,-8.1484,-8.1719,-8.2265,-8.2304,-8.2304,-8.2304,-8.2304,-8.2304,-8.2304,-8.2304,-8.2304,-8.2304,-8.2304,-8.2304,-8.2304,-8.2304,-8.2304,-2.4159,-2.6774,-2.966,-3.1583,-3.3353,-3.6622,-4.4278,-4.5855,-4.6547,-4.951,-5.0394,-5.0433,-4.9817,-5.1587,-5.3664,-5.5434,-5.805,-6.0127,-6.0704,-6.0781,-6.0781,-6.0781,-6.0781,-6.0781,-6.0781,-6.232,-6.332,-6.332,-6.4897,-6.5897,-6.5897,-6.5897,-6.5897,-6.5897,-6.5897,-6.5897,-6.5897,-6.5897,-6.5897,-6.5897,-6.5897,-6.5897,-6.5897,-6.5897,-6.5897,-6.5897,-6.5897,-6.6359,-6.7167,-6.8052,-6.9052,-7.0129,-7.0667,-7.0898,-7.0898,-7.0898,-7.0898,-7.0975,-7.1387,-7.1489,-7.1575,-7.19,-7.1992,-7.1992,-7.1992,-7.1992,-7.1992,-7.1992,-7.1992,-7.1992,-7.1992,-7.1992,-7.2226,-7.3086,-7.3984,-7.4844,-7.5703,-7.6562,-7.7187,-7.7187,-7.7187,-7.7187,-7.7187,-7.7187,-7.7187,-7.7187,-7.7187,-7.7187,-7.7187,-7.7187,-7.7539,-7.8398,-7.8984,-7.9687,-8.0508,-8.0586,-8.0976,-8.1836,-8.1875,-8.1992,-8.2304,-8.2304,-8.2304,-8.2304,-8.2304,-8.2304,-8.2304,-8.2304,-8.2304,-8.2304,-8.2304,-8.2304,-2.4841,-2.5967,-2.7698,-3.1852,-3.4276,-3.7584,-4.5163,-4.497,-4.5316,-5.2933,-5.3857,-5.3241,-5.3241,-5.4587,-5.5742,-5.5703,-5.855,-6.0781,-6.0781,-6.0781,-6.0781,-6.0781,-6.0781,-6.0781,-6.0781,-6.232,-6.3281,-6.332,-6.4897,-6.5897,-6.5897,-6.5897,-6.5897,-6.5897,-6.5897,-6.5897,-6.5897,-6.5897,-6.5897,-6.5897,-6.5897,-6.5897,-6.5897,-6.5897,-6.5897,-6.5897,-6.5897,-6.6359,-6.7167,-6.8052,-6.9398,-7.0898,-7.0898,-7.0898,-7.0898,-7.0898,-7.0898,-7.0975,-7.1387,-7.1528,-7.1536,-7.19,-7.1992,-7.1992,-7.1992,-7.1992,-7.1992,-7.1992,-7.1992,-7.1992,-7.1992,-7.1992,-7.2226,-7.3086,-7.3984,-7.4844,-7.5703,-7.6562,-7.7187,-7.7187,-7.7187,-7.7187,-7.7187,-7.7187,-7.7187,-7.7187,-7.7187,-7.7187,-7.7187,-7.7187,-7.7539,-7.8398,-7.8476,-7.8828,-7.9609,-7.9687,-8.0078,-8.0937,-8.0976,-8.1367,-8.2265,-8.2304,-8.2304,-8.2304,-8.2304,-8.2304,-8.2304,-8.2304,-8.2304,-8.2304,-8.2304,-8.2304,-2.4841,-2.9429,-3.3583,-3.3045,-3.7777,-4.3355,-4.624,-4.7702,-4.9933,-5.5164,-5.6049,-5.5511,-5.4318,-5.6434,-5.7973,-5.6819,-5.8973,-6.0781,-6.0781,-6.0781,-6.0781,-6.0781,-6.0781,-6.0781,-6.0781,-6.1781,-6.2704,-6.3281,-6.4359,-6.5243,-6.5859,-6.5897,-6.5897,-6.5897,-6.5897,-6.5897,-6.5897,-6.5897,-6.5897,-6.5897,-6.5897,-6.5897,-6.5897,-6.5897,-6.5897,-6.5897,-6.5897,-6.6051,-6.6359,-6.7821,-6.9052,-7.0129,-7.0667,-7.0898,-7.0898,-7.0898,-7.0975,-7.1129,-7.1245,-7.1403,-7.1531,-7.1719,-7.1797,-7.1836,-7.1953,-7.1992,-7.1992,-7.1992,-7.1992,-7.1992,-7.1992,-7.1992,-7.2226,-7.3086,-7.3984,-7.4844,-7.5703,-7.6562,-7.7187,-7.7187,-7.7187,-7.7187,-7.7187,-7.7187,-7.7187,-7.7187,-7.7187,-7.7187,-7.7187,-7.7187,-7.7305,-7.7578,-7.7578,-7.793,-7.8789,-7.8867,-7.9219,-8.0039,-8.0078,-8.0742,-8.2226,-8.2304,-8.2304,-8.2304,-8.2304,-8.2304,-8.2304,-8.2304,-8.2304,-8.2304,-8.2304,-8.2304,-2.6505,-3.1198,-3.5468,-3.6661,-4.1585,-4.6855,-4.974,-5.1356,-5.301,-5.5895,-5.7011,-5.7319,-5.6626,-5.8434,-5.9704,-5.8665,-5.9781,-6.0781,-6.0781,-6.0781,-6.0781,-6.0781,-6.0781,-6.0781,-6.0781,-6.1589,-6.2435,-6.3243,-6.4128,-6.4974,-6.5859,-6.5897,-6.5897,-6.5897,-6.5897,-6.5897,-6.5897,-6.5897,-6.5897,-6.5897,-6.5897,-6.5897,-6.5897,-6.5897,-6.5897,-6.5897,-6.5897,-6.609,-6.6474,-6.7859,-6.8898,-6.9783,-7.0591,-7.0898,-7.0898,-7.0898,-7.0975,-7.1079,-7.1144,-7.1287,-7.1441,-7.1651,-7.1708,-7.1758,-7.1953,-7.1992,-7.1992,-7.1992,-7.1992,-7.1992,-7.1992,-7.2265,-7.2578,-7.2734,-7.3711,-7.4726,-7.5273,-7.6328,-7.7187,-7.7187,-7.7187,-7.7187,-7.7187,-7.7187,-7.7187,-7.7187,-7.7187,-7.7187,-7.7187,-7.7187,-7.7187,-7.7187,-7.7187,-7.7422,-7.793,-7.7969,-7.8359,-7.918,-7.9219,-7.9844,-8.1211,-8.1601,-8.1797,-8.1797,-8.2109,-8.2304,-8.2304,-8.2304,-8.2304,-8.2304,-8.2304,-8.2304,-2.9236,-3.2199,-3.543,-4.1662,-4.524,-4.8702,-5.4203,-5.4895,-5.4664,-5.5703,-5.7203,-5.855,-5.9358,-6.0204,-6.0781,-6.0781,-6.0781,-6.0781,-6.0781,-6.0781,-6.0781,-6.0781,-6.0781,-6.0781,-6.0781,-6.1512,-6.232,-6.3128,-6.3974,-6.4859,-6.5743,-6.5859,-6.5897,-6.5897,-6.5897,-6.5897,-6.5897,-6.5897,-6.5897,-6.5897,-6.5897,-6.5897,-6.5897,-6.5897,-6.5897,-6.5897,-6.5897,-6.632,-6.7051,-6.7936,-6.8821,-6.9667,-7.0475,-7.0821,-7.0898,-7.0898,-7.0898,-7.0952,-7.1123,-7.1208,-7.1245,-7.158,-7.1692,-7.1712,-7.1914,-7.1992,-7.1992,-7.1992,-7.1992,-7.1992,-7.1992,-7.2578,-7.3008,-7.2305,-7.3398,-7.4609,-7.4687,-7.5976,-7.7109,-7.7187,-7.7187,-7.7187,-7.7187,-7.7187,-7.7187,-7.7187,-7.7187,-7.7187,-7.7187,-7.7187,-7.7187,-7.7187,-7.7187,-7.7187,-7.7187,-7.7187,-7.7539,-7.832,-7.8398,-7.8711,-7.9453,-8.039,-8.0898,-8.0898,-8.164,-8.2109,-8.2187,-8.2187,-8.2226,-8.2304,-8.2304,-8.2304,-3.0737,-3.6507,0.0,-4.3662,-4.6971,-5.0548,-5.3164,-5.3587,-5.428,-5.7165,-5.805,-5.855,-5.9358,-6.0204,-6.0781,-6.0781,-6.0781,-6.0781,-6.0781,-6.0781,-6.0781,-6.0781,-6.0781,-6.0781,-6.0781,-6.0973,-6.1435,-6.2281,-6.3128,-6.3974,-6.482,-6.5513,-6.5897,-6.5897,-6.5897,-6.5897,-6.5897,-6.5897,-6.5897,-6.5897,-6.5897,-6.5897,-6.5897,-6.5897,-6.5897,-6.5897,-6.5897,-6.6013,-6.6205,-6.7051,-6.7898,-6.8783,-6.9629,-7.036,-7.0898,-7.0898,-7.1014,-7.1118,-7.1005,-7.1171,-7.1426,-7.1321,-7.1491,-7.1707,-7.1768,-7.1875,-7.1992,-7.1992,-7.1992,-7.1992,-7.1992,-7.2148,-7.2383,-7.289,-7.3828,-7.4805,-7.5469,-7.5898,-7.6367,-7.707,-7.7187,-7.7187,-7.7187,-7.7187,-7.7187,-7.7187,-7.7187,-7.7187,-7.7187,-7.7187,-7.7187,-7.7187,-7.7187,-7.7187,-7.7187,-7.7187,-7.7265,-7.7461,-7.7461,-7.7578,-7.7734,-7.918,-7.9961,-7.9961,-8.0156,-8.0586,-8.1289,-8.1289,-8.164,-8.2304,-8.2304,-8.2304,0.0,0.0,0.0,-4.624,-4.9356,-5.1702,-5.3433,-5.3818,-5.4664,-5.7665,-5.8319,-5.8665,-5.9896,-6.0473,-6.0781,-6.0781,-6.0781,-6.0781,-6.0781,-6.0781,-6.0781,-6.0781,-6.0781,-6.0781,-6.0781,-6.0781,-6.1166,-6.2012,-6.2858,-6.3666,-6.4551,-6.5436,-6.5897,-6.5897,-6.5897,-6.5897,-6.5897,-6.5897,-6.5897,-6.5897,-6.5897,-6.5897,-6.5897,-6.5897,-6.5897,-6.5897,-6.5897,-6.5897,-6.5974,-6.6782,-6.7628,-6.8513,-6.936,-7.0206,-7.0898,-7.0898,-7.0975,-7.1052,-7.0937,-7.1052,-7.1222,-7.1193,-7.1312,-7.1491,-7.1583,-7.1696,-7.1786,-7.1833,-7.1875,-7.1875,-7.1953,-7.2305,-7.2851,-7.3711,-7.4258,-7.4844,-7.5703,-7.6211,-7.664,-7.7109,-7.7187,-7.7187,-7.7187,-7.7187,-7.7187,-7.7187,-7.7187,-7.7187,-7.7187,-7.7187,-7.7187,-7.7187,-7.7187,-7.7187,-7.7187,-7.7187,-7.7187,-7.7187,-7.7187,-7.7187,-7.7187,-7.8047,-7.8711,-7.9101,-7.9492,-7.9922,-8.039,-8.039,-8.0625,-8.1054,-8.1054,-8.1054,0.0,0.0,-4.0046,-4.8548,-5.1202,-5.2164,-5.3895,-5.428,-5.5011,-5.755,-5.8204,-5.8819,-6.0473,-6.0781,-6.0781,-6.0781,-6.0781,-6.0781,-6.0781,-6.0781,-6.0781,-6.0781,-6.0781,-6.0781,-6.0781,-6.0781,-6.1089,-6.182,-6.2627,-6.3474,-6.432,-6.5205,-6.5743,-6.5897,-6.5897,-6.5897,-6.5897,-6.5897,-6.5897,-6.5897,-6.5897,-6.5897,-6.5897,-6.5897,-6.5897,-6.5897,-6.5897,-6.5897,-6.5936,-6.6628,-6.7475,-6.8475,-6.9206,-7.0052,-7.0898,-7.0898,-7.0898,-7.0898,-7.0898,-7.0937,-7.0952,-7.112,-7.1201,-7.1274,-7.1415,-7.1458,-7.1534,-7.165,-7.171,-7.1758,-7.1953,-7.2539,-7.332,-7.4375,-7.4609,-7.4883,-7.5898,-7.6562,-7.7031,-7.7187,-7.7187,-7.7187,-7.7187,-7.7187,-7.7187,-7.7187,-7.7187,-7.7187,-7.7187,-7.7187,-7.7187,-7.7187,-7.7187,-7.7187,-7.7187,-7.7187,-7.7187,-7.7187,-7.7187,-7.7187,-7.7187,-7.7187,-7.7539,-7.8242,-7.8945,-7.9336,-7.9492,-7.9492,-7.957,-7.9687,-7.9687,-7.9687,0.0,0.0,-4.447,0.0,-5.0779,-5.1279,-5.301,-5.3356,-5.4087,-5.6626,-5.778,-5.8819,-6.0473,-6.0781,-6.0781,-6.0781,-6.0781,-6.0781,-6.0781,-6.0781,-6.0781,-6.0781,-6.0781,-6.0781,-6.0781,-6.0781,-6.0858,-6.0973,-6.1781,-6.2627,-6.3435,-6.432,-6.5128,-6.5859,-6.5897,-6.5897,-6.5897,-6.5897,-6.5897,-6.5897,-6.5897,-6.5897,-6.5897,-6.5897,-6.5897,-6.5897,-6.5897,-6.5897,-6.5897,-6.6013,-6.6974,-6.8398,-6.8552,-6.9552,-7.0898,-7.0898,-7.0898,-7.0898,-7.0898,-7.1014,-7.1156,-7.0979,-7.1183,-7.1426,-7.13,-7.1364,-7.1544,-7.1656,-7.1692,-7.1758,-7.1953,-7.2109,-7.2578,-7.4219,-7.4609,-7.5039,-7.668,-7.6523,-7.6289,-7.7031,-7.7187,-7.7187,-7.7187,-7.7187,-7.7187,-7.7187,-7.7187,-7.7187,-7.7187,-7.7187,-7.7187,-7.7187,-7.7187,-7.7187,-7.7187,-7.7187,-7.7187,-7.7187,-7.7187,-7.7187,-7.7187,-7.7187,-7.7265,-7.7383,-7.7461,-7.789,-7.8672,-7.8672,-7.9023,-7.9687,-7.9687,-7.9687,-3.1737,-3.8661,-4.5316,0.0,-5.1048,-5.1702,-5.2933,-5.3587,-5.4357,-5.5934,-5.7357,-5.8665,-5.9858,-6.0473,-6.0781,-6.0781,-6.0781,-6.0781,-6.0781,-6.0781,-6.0781,-6.0781,-6.0781,-6.0781,-6.0781,-6.0781,-6.0781,-6.0781,-6.1589,-6.2435,-6.3281,-6.4128,-6.5013,-6.5859,-6.5897,-6.5897,-6.5897,-6.5897,-6.5897,-6.5897,-6.5897,-6.5897,-6.5897,-6.5897,-6.5897,-6.5897,-6.5897,-6.5897,-6.5897,-6.5897,-6.659,-6.7705,-6.8205,-6.9167,-7.0283,-7.0744,-7.0898,-7.0898,-7.0898,-7.0975,-7.1014,-7.0937,-7.1014,-7.1129,-7.1052,-7.1091,-7.1206,-7.1387,-7.1417,-7.1495,-7.1753,-7.2187,-7.2879,-7.4145,-7.4874,-7.5625,-7.6797,-7.6836,-7.6758,-7.7148,-7.7187,-7.7187,-7.7187,-7.7187,-7.7187,-7.7187,-7.7187,-7.7187,-7.7187,-7.7187,-7.7187,-7.7187,-7.7187,-7.7187,-7.7187,-7.7187,-7.7187,-7.7187,-7.7187,-7.7187,-7.7187,-7.7072,-7.7089,-7.7187,-7.7187,-7.7383,-7.7773,-7.7773,-7.7969,-7.8281,-7.8281,-7.8281,0.0,0.0,-4.2085,-4.7663,-4.951,-5.0548,-5.2702,-5.3549,-5.4203,-5.5434,-5.6742,-5.7896,-5.8704,-5.9935,-6.0781,-6.0781,-6.0781,-6.0781,-6.0781,-6.0781,-6.0781,-6.0781,-6.0781,-6.0781,-6.0781,-6.0781,-6.0781,-6.0781,-6.1396,-6.2127,-6.2935,-6.382,-6.4666,-6.5551,-6.5782,-6.5897,-6.5897,-6.5897,-6.5897,-6.5897,-6.5897,-6.5897,-6.5897,-6.5897,-6.5897,-6.5897,-6.5897,-6.5897,-6.5897,-6.5897,-6.6359,-6.7167,-6.8052,-6.8936,-6.9821,-7.0591,-7.0898,-7.0898,-7.0898,-7.0898,-7.0898,-7.0898,-7.0898,-7.0898,-7.0898,-7.0898,-7.0937,-7.1129,-7.1193,-7.126,-7.1555,-7.2266,-7.3126,-7.4005,-7.4989,-7.5975,-7.6724,-7.7052,-7.7187,-7.7148,-7.7187,-7.7187,-7.7187,-7.7165,-7.714,-7.7187,-7.7148,-7.7148,-7.7187,-7.7187,-7.7183,-7.7121,-7.7114,-7.7095,-7.7048,-7.7106,-7.7108,-7.7052,-7.7101,-7.7095,-7.7052,-7.692,-7.6885,-7.7028,-7.7034,-7.71,-7.7187,-7.7187,-7.7187,-7.7187,-7.7187,-7.7187,-2.8994,-3.0879,0.0,-4.2354,-4.4662,-4.6201,-5.1895,-5.2587,-5.2741,-5.5203,-5.578,-5.6088,-5.6973,-5.9127,-6.0781,-6.0781,-6.0781,-6.0781,-6.0781,-6.0781,-6.0781,-6.0781,-6.0781,-6.0781,-6.0781,-6.0781,-6.0781,-6.0781,-6.0819,-6.1243,-6.2127,-6.2935,-6.3782,-6.4628,-6.5474,-6.5897,-6.5897,-6.5897,-6.5897,-6.5897,-6.5897,-6.5897,-6.5897,-6.5897,-6.5897,-6.5897,-6.5897,-6.5897,-6.5897,-6.5897,-6.6359,-6.7167,-6.8052,-6.8936,-6.9821,-7.0591,-7.0898,-7.0898,-7.0898,-7.0898,-7.0898,-7.0898,-7.0898,-7.0898,-7.0898,-7.0898,-7.0937,-7.1129,-7.1195,-7.126,-7.1467,-7.2114,-7.2949,-7.3814,-7.4685,-7.5628,-7.6657,-7.7066,-7.7148,-7.6953,-7.707,-7.7187,-7.7187,-7.7019,-7.6996,-7.7176,-7.7031,-7.6992,-7.7187,-7.7187,-7.7121,-7.6945,-7.6927,-7.6838,-7.666,-7.6795,-7.6814,-7.6638,-7.6815,-7.6823,-7.6636,-7.6606,-7.6594,-7.6619,-7.6632,-7.6839,-7.7187,-7.7187,-7.7187,-7.7187,-7.7187,-7.7187,-2.8082,0.0,0.0,-3.8623,-4.2701,-4.5547,-4.7124,-5.0625,-5.3664,-5.401,-5.5395,-5.6626,-5.6934,-5.8627,-5.9973,-5.9973,-6.0435,-6.0781,-6.0781,-6.0781,-6.0781,-6.0781,-6.0781,-6.0781,-6.0781,-6.0781,-6.0781,-6.0781,-6.0781,-6.1166,-6.205,-6.2358,-6.3166,-6.4551,-6.4897,-6.532,-6.5897,-6.5897,-6.5897,-6.5897,-6.5897,-6.5897,-6.5897,-6.5897,-6.5897,-6.5897,-6.5897,-6.5897,-6.5897,-6.5897,-6.6051,-6.6474,-6.7859,-6.859,-6.9052,-7.0398,-7.0898,-7.0898,-7.0898,-7.0898,-7.0898,-7.0898,-7.0898,-7.0898,-7.0898,-7.0898,-7.0937,-7.0975,-7.1014,-7.1052,-7.1245,-7.1954,-7.2948,-7.4471,-7.5374,-7.6053,-7.6399,-7.6645,-7.6799,-7.6721,-7.6751,-7.679,-7.679,-7.6747,-7.675,-7.6826,-7.6741,-7.6712,-7.679,-7.679,-7.6793,-7.673,-7.6701,-7.6668,-7.662,-7.6669,-7.6687,-7.6621,-7.6683,-7.6696,-7.6582,-7.649,-7.6482,-7.6621,-7.6482,-7.6536,-7.679,-7.679,-7.679,-7.679,-7.679,-7.6867,-2.5543,-2.7198,-2.9083,-3.4199,-3.82,-4.1585,-4.4162,-4.8009,-5.1548,-5.328,-5.4741,-5.5895,-5.6434,-5.7703,-5.8858,-5.9396,-5.9973,-6.0473,-6.0742,-6.0781,-6.0781,-6.0781,-6.0781,-6.0781,-6.0781,-6.0781,-6.0781,-6.0781,-6.0781,-6.105,-6.1627,-6.1935,-6.2858,-6.4551,-6.4589,-6.5013,-6.5897,-6.5897,-6.5897,-6.5897,-6.5897,-6.5897,-6.5897,-6.5897,-6.5897,-6.5897,-6.5897,-6.5897,-6.5897,-6.5897,-6.5897,-6.6051,-6.7436,-6.8129,-6.859,-6.9975,-7.0667,-7.0898,-7.0898,-7.0898,-7.0898,-7.0898,-7.0898,-7.0898,-7.0898,-7.0898,-7.0898,-7.0898,-7.0898,-7.0937,-7.1052,-7.1964,-7.3234,-7.4745,-7.5668,-7.6207,-7.6207,-7.6399,-7.6569,-7.6514,-7.6555,-7.6594,-7.6594,-7.6555,-7.651,-7.6601,-7.6529,-7.6517,-7.6594,-7.6594,-7.6594,-7.6517,-7.6508,-7.6438,-7.6399,-7.6438,-7.6469,-7.64,-7.6443,-7.6438,-7.6399,-7.6245,-7.6245,-7.6399,-7.6245,-7.6263,-7.64,-7.6555,-7.6594,-7.6594,-7.6594,-7.6675,0.0,0.0,0.0,-2.8967,-3.0968,-3.4083,-4.3124,-4.4662,-4.6086,-5.2856,-5.3626,-5.3626,-5.5357,-5.6357,-5.7511,-5.9165,-5.9435,-5.9781,-6.0627,-6.0742,-6.0781,-6.0781,-6.0781,-6.0781,-6.0781,-6.0781,-6.0781,-6.0781,-6.0781,-6.0781,-6.0781,-6.1627,-6.2858,-6.4474,-6.4589,-6.5013,-6.5859,-6.5897,-6.5897,-6.5897,-6.5897,-6.5897,-6.5897,-6.5897,-6.5897,-6.5897,-6.5897,-6.5897,-6.5897,-6.5897,-6.5897,-6.5974,-6.6782,-6.7628,-6.8513,-6.9398,-7.0206,-7.0898,-7.0898,-7.0898,-7.0898,-7.0898,-7.0898,-7.0898,-7.0898,-7.0898,-7.0898,-7.0898,-7.0898,-7.0898,-7.0937,-7.2245,-7.3745,-7.4514,-7.5361,-7.6015,-7.6015,-7.6284,-7.6544,-7.6322,-7.6438,-7.6583,-7.6583,-7.6399,-7.6361,-7.6544,-7.6399,-7.6361,-7.6583,-7.6583,-7.6506,-7.6284,-7.6284,-7.6207,-7.6015,-7.6169,-7.6207,-7.6015,-7.6169,-7.6207,-7.6015,-7.6015,-7.6015,-7.6015,-7.6015,-7.6015,-7.6015,-7.6361,-7.6583,-7.6583,-7.6583,-7.6582,-2.1273,0.0,0.0,0.0,0.0,0.0,-3.4968,-3.8661,-4.2777,-4.7163,-4.9356,-5.1356,-5.428,-5.5511,-5.6395,-5.7511,-5.8204,-5.8934,-5.9742,-5.9858,-6.0089,-6.0742,-6.0781,-6.0781,-6.0781,-6.0781,-6.0781,-6.0781,-6.0781,-6.0781,-6.0781,-6.1627,-6.232,-6.2781,-6.3974,-6.4705,-6.4974,-6.559,-6.5897,-6.5897,-6.5897,-6.5897,-6.5897,-6.5897,-6.5897,-6.5897,-6.5897,-6.5897,-6.5897,-6.5897,-6.5897,-6.5974,-6.6782,-6.7628,-6.8513,-6.9398,-7.0206,-7.0898,-7.0898,-7.0898,-7.0898,-7.0898,-7.0898,-7.0898,-7.0898,-7.0898,-7.0898,-7.0898,-7.0898,-7.1052,-7.1668,-7.3091,-7.4437,-7.4668,-7.5361,-7.6015,-7.6015,-7.6092,-7.613,-7.6092,-7.613,-7.6169,-7.6169,-7.613,-7.6092,-7.6169,-7.613,-7.6092,-7.6169,-7.6169,-7.613,-7.6092,-7.6092,-7.6053,-7.6015,-7.6053,-7.6053,-7.6015,-7.6053,-7.6053,-7.6015,-7.6015,-7.6015,-7.6015,-7.6015,-7.6015,-7.6015,-7.6092,-7.6169,-7.6169,-7.6322,-7.636,-2.0966,-2.162,-2.2466,-2.336,0.0,0.0,-3.343,-3.7007,-4.1239,-4.7471,-4.9933,-5.1702,-5.4087,-5.5164,-5.5742,-5.5934,-5.6665,-5.7742,-5.9281,-5.9819,-6.0242,-6.0742,-6.1127,-6.1204,-6.0819,-6.1127,-6.1166,-6.0819,-6.0781,-6.0781,-6.0781,-6.1281,-6.1704,-6.2089,-6.3358,-6.4243,-6.4589,-6.5474,-6.5897,-6.5897,-6.5897,-6.5897,-6.5897,-6.5897,-6.5897,-6.5897,-6.5897,-6.5897,-6.5897,-6.5897,-6.5897,-6.5936,-6.6397,-6.709,-6.7975,-6.8859,-6.9667,-7.0437,-7.0783,-7.0898,-7.0898,-7.0898,-7.0898,-7.0898,-7.0898,-7.0898,-7.0898,-7.0898,-7.1168,-7.1552,-7.2052,-7.3437,-7.4707,-7.4707,-7.5361,-7.6015,-7.6015,-7.6015,-7.6015,-7.6015,-7.6015,-7.6015,-7.6015,-7.6015,-7.6015,-7.6015,-7.6015,-7.6015,-7.6015,-7.6015,-7.6015,-7.6015,-7.6015,-7.6015,-7.6015,-7.6015,-7.6015,-7.6015,-7.6015,-7.6015,-7.6015,-7.6015,-7.6015,-7.6015,-7.6015,-7.6015,-7.6015,-7.6015,-7.6015,-7.6015,-7.613,-7.6169,-2.0773,-2.0966,-2.1696,-2.2581,-2.3475,0.0,-3.4661,-3.6661,-3.9392,-4.8856,-5.0971,-5.1471,-5.2702,-5.3626,-5.3933,-5.3318,-5.4318,-5.6088,-5.8858,-5.9973,-6.055,-6.0666,-6.1435,-6.1627,-6.0858,-6.1512,-6.1627,-6.0858,-6.0781,-6.0781,-6.0781,-6.0781,-6.1166,-6.1935,-6.2743,-6.3589,-6.4436,-6.532,-6.5782,-6.5897,-6.5897,-6.5897,-6.5897,-6.5897,-6.5897,-6.5897,-6.5897,-6.5897,-6.5897,-6.5897,-6.5897,-6.5897,-6.5897,-6.6397,-6.7205,-6.809,-6.8936,-6.9821,-7.0629,-7.0898,-7.0898,-7.0898,-7.0898,-7.0898,-7.0898,-7.0898,-7.0898,-7.0898,-7.1514,-7.2206,-7.2322,-7.3514,-7.4707,-7.4822,-7.5438,-7.6015,-7.6015,-7.6015,-7.6015,-7.6015,-7.6015,-7.6015,-7.6015,-7.6015,-7.6015,-7.6015,-7.6015,-7.6015,-7.6015,-7.6015,-7.6015,-7.6015,-7.6015,-7.6015,-7.6015,-7.6015,-7.6015,-7.6015,-7.6015,-7.6015,-7.6015,-7.6015,-7.6015,-7.6015,-7.6015,-7.6015,-7.6015,-7.6015,-7.6015,-7.6015,-7.6015,-7.6015,-2.2235,-2.1389,-2.1696,-2.2581,-2.3475,0.0,-2.7236,-2.8313,-3.016,-3.493,-3.6969,-3.9008,-4.2547,-4.3932,-4.4701,-4.524,-4.8894,-5.3049,-5.6934,-5.8242,-5.905,-5.9665,-6.0512,-6.0973,-6.0819,-6.0935,-6.0973,-6.0819,-6.0781,-6.0781,-6.0781,-6.0781,-6.0858,-6.105,-6.1897,-6.2743,-6.3551,-6.4436,-6.5205,-6.5897,-6.5897,-6.5897,-6.5897,-6.5897,-6.5897,-6.5897,-6.5897,-6.5897,-6.5897,-6.5897,-6.5897,-6.5897,-6.5897,-6.6397,-6.7205,-6.809,-6.8936,-6.9821,-7.0629,-7.0898,-7.0898,-7.0898,-7.0898,-7.0898,-7.0898,-7.0898,-7.0898,-7.0898,-7.1514,-7.236,-7.3053,-7.3976,-7.4899,-7.5592,-7.5861,-7.6015,-7.6015,-7.6015,-7.6015,-7.6015,-7.6015,-7.6015,-7.6015,-7.6015,-7.6015,-7.6015,-7.6015,-7.6015,-7.6015,-7.6015,-7.6015,-7.6015,-7.6015,-7.6015,-7.6015,-7.6015,-7.6015,-7.6015,-7.6015,-7.6015,-7.6015,-7.6015,-7.6015,-7.6015,-7.6015,-7.6015,-7.6015,-7.6015,-7.6015,-7.6015,-7.6015,-7.6015,-2.3543,-2.2158,-2.235,-2.3244,-2.3783,0.0,0.0,-2.8852,-3.0352,-3.4622,-3.6161,-3.7392,-3.9508,-4.0585,-4.1162,-4.12,-4.5817,-4.9394,-4.9433,-5.4549,-5.8434,-5.8858,-6.0012,-6.0627,-6.0204,-6.0935,-6.1435,-6.1435,-6.182,-6.205,-6.205,-6.1666,-6.1627,-6.205,-6.2089,-6.2704,-6.3935,-6.4397,-6.5051,-6.5897,-6.5897,-6.609,-6.6474,-6.609,-6.6128,-6.6474,-6.6051,-6.5897,-6.5897,-6.5897,-6.5897,-6.5897,-6.5897,-6.6128,-6.6667,-6.7936,-6.8667,-6.9244,-7.0475,-7.0898,-7.0898,-7.0898,-7.0898,-7.0898,-7.0898,-7.0898,-7.0898,-7.0898,-7.1822,-7.2937,-7.3399,-7.4437,-7.5476,-7.5899,-7.6015,-7.6015,-7.6015,-7.6015,-7.6015,-7.6015,-7.6015,-7.6015,-7.6015,-7.6015,-7.6015,-7.6015,-7.6015,-7.6015,-7.6015,-7.6015,-7.6015,-7.6015,-7.6015,-7.6015,-7.6015,-7.6015,-7.6015,-7.6015,-7.6015,-7.6015,-7.6015,-7.6015,-7.6015,-7.6015,-7.6015,-7.6015,-7.6015,-7.6015,-7.6015,-7.6015,-7.6015,-7.6015,-2.5043,-2.3043,-2.3004,-2.3898,-2.4091,-2.5207,0.0,0.0,0.0,-3.5776,-3.6584,-3.6661,-3.6815,-3.7392,-3.7546,-3.6738,-4.1585,-4.4124,-4.0392,-4.8509,-5.5049,-5.5549,-5.8396,-5.9704,-5.8165,-5.9588,-6.105,-6.2012,-6.2089,-6.2435,-6.3281,-6.2666,-6.2627,-6.3281,-6.2666,-6.3051,-6.4589,-6.4589,-6.5051,-6.5897,-6.5897,-6.632,-6.7051,-6.6282,-6.6436,-6.7282,-6.632,-6.5974,-6.6128,-6.5974,-6.5897,-6.5897,-6.5897,-6.5897,-6.609,-6.759,-6.8282,-6.8629,-7.0129,-7.0783,-7.0898,-7.0898,-7.0898,-7.0898,-7.0898,-7.0898,-7.0937,-7.1091,-7.2168,-7.3322,-7.3668,-7.4745,-7.5784,-7.5976,-7.6015,-7.6015,-7.6015,-7.6015,-7.6015,-7.6015,-7.6015,-7.6015,-7.6015,-7.6015,-7.6015,-7.6015,-7.6015,-7.6015,-7.6015,-7.6015,-7.6015,-7.6015,-7.6015,-7.6015,-7.6015,-7.6015,-7.6015,-7.6015,-7.6015,-7.6015,-7.6015,-7.6015,-7.6015,-7.6015,-7.6015,-7.6015,-7.6015,-7.6015,-7.6015,-7.6015,-7.5822,-7.5822,-2.7236,-2.3928,-2.3004,-2.3898,-2.4091,-2.4437,-2.5736,0.0,-2.6187,-2.6764,0.0,-2.7121,-2.789,0.0,0.0,-2.7044,-3.1891,-3.5084,-3.3122,-3.843,-4.3355,-4.5624,-5.3395,-5.7049,-5.3164,-5.4357,-5.7242,-6.1743,-5.9396,-5.9358,-6.3089,-6.3205,-6.3205,-6.332,-6.3205,-6.3628,-6.4589,-6.4589,-6.5051,-6.5897,-6.5897,-6.632,-6.7051,-6.6282,-6.6744,-6.8167,-6.659,-6.6282,-6.6898,-6.6205,-6.5897,-6.5897,-6.5897,-6.5897,-6.6013,-6.6898,-6.7744,-6.8552,-6.9513,-7.0283,-7.0898,-7.0898,-7.0898,-7.0898,-7.0898,-7.0898,-7.1052,-7.1822,-7.2168,-7.2668,-7.4168,-7.4707,-7.5053,-7.5822,-7.6015,-7.6015,-7.6015,-7.6015,-7.6015,-7.6015,-7.6015,-7.6015,-7.6015,-7.6015,-7.6015,-7.6015,-7.6015,-7.6015,-7.6015,-7.6015,-7.6015,-7.6015,-7.6015,-7.6015,-7.6015,-7.6015,-7.6015,-7.6015,-7.6015,-7.6015,-7.6015,-7.6015,-7.6015,-7.6015,-7.6015,-7.6015,-7.6015,-7.6015,-7.6015,-7.5976,-7.5207,-7.5245,-2.9275,-2.8429,-2.8775,-2.6197,-2.739,-2.8506,-2.589,-2.5303,-2.5303,-2.5303,0.0,0.0,0.0,0.0,0.0,0.0,-2.989,-3.2352,-2.9198,-3.5545,-4.0893,-4.197,-4.6471,-5.0125,-5.1741,-5.3895,-5.6896,-6.105,-5.955,-6.0089,-6.3858,-6.4051,-6.4282,-6.4782,-6.382,-6.3974,-6.532,-6.5359,-6.5551,-6.5897,-6.6898,-6.7513,-6.7859,-6.7513,-6.8013,-6.909,-6.7898,-6.7244,-6.7051,-6.6744,-6.632,-6.5897,-6.5897,-6.5897,-6.6013,-6.6782,-6.7667,-6.8513,-6.9398,-7.0244,-7.0898,-7.0898,-7.0898,-7.0898,-7.0898,-7.0898,-7.0975,-7.1321,-7.2168,-7.3129,-7.3822,-7.4745,-7.5553,-7.5899,-7.6015,-7.6015,-7.6015,-7.6015,-7.6015,-7.6015,-7.6015,-7.6015,-7.6015,-7.6015,-7.6015,-7.6015,-7.6015,-7.6015,-7.6015,-7.6015,-7.6015,-7.6015,-7.6015,-7.6015,-7.6015,-7.6015,-7.6015,-7.6015,-7.6015,-7.6015,-7.6015,-7.6015,-7.6015,-7.6015,-7.6015,-7.6015,-7.6015,-7.6015,-7.5745,-7.5245,-7.5399,-7.5399,-3.2506,-3.2468,-3.3045,-2.8159,-2.9083,-3.0198,-2.6505,-2.5457,-2.5303,-2.5303,-2.5303,0.0,0.0,0.0,-2.5149,-2.4697,0.0,-2.9313,-2.6005,-3.1583,-3.6238,-3.6969,-3.9392,-4.3316,-4.924,-5.0856,-5.3703,-5.9011,-5.7973,-5.9281,-6.432,-6.4589,-6.5013,-6.5859,-6.4666,-6.4628,-6.5897,-6.5897,-6.5897,-6.5897,-6.7359,-6.8167,-6.8398,-6.8398,-6.9013,-6.9975,-6.8859,-6.8052,-6.7436,-6.7205,-6.6628,-6.5897,-6.5897,-6.5897,-6.5974,-6.6551,-6.7321,-6.8167,-6.9052,-7.0014,-7.0898,-7.0898,-7.0898,-7.0898,-7.0898,-7.1052,-7.1245,-7.1245,-7.236,-7.3553,-7.3783,-7.4745,-7.5707,-7.5938,-7.6015,-7.6015,-7.6015,-7.6015,-7.6015,-7.6015,-7.6015,-7.6015,-7.6015,-7.6015,-7.6015,-7.6015,-7.6015,-7.6015,-7.6015,-7.6015,-7.6015,-7.6015,-7.6015,-7.6015,-7.6015,-7.6015,-7.6015,-7.6015,-7.6015,-7.6015,-7.6015,-7.6015,-7.6015,-7.6015,-7.6015,-7.6015,-7.6015,-7.6015,-7.5553,-7.4707,-7.513,-7.4976,-3.7584,-3.4776,-3.316,-2.8929,-2.7313,-2.6774,-2.6621,-2.5928,-2.5303,-2.5303,-2.5303,-2.5303,-2.5303,-2.5303,-2.4774,-2.312,-2.3744,0.0,0.0,-2.3898,-2.5553,-2.8005,-3.2699,-3.8046,-4.397,-4.2393,-4.5124,-5.5088,-5.2818,-5.4972,-6.4128,-6.4589,-6.5013,-6.5859,-6.5859,-6.582,-6.5897,-6.5897,-6.5897,-6.5897,-6.6744,-6.759,-6.8398,-6.8398,-6.9321,-7.0783,-6.9129,-6.8398,-6.8282,-6.7436,-6.6628,-6.5897,-6.5897,-6.5897,-6.5897,-6.5936,-6.6436,-6.7282,-6.8129,-6.9513,-7.0898,-7.0898,-7.0898,-7.0898,-7.0898,-7.1475,-7.2168,-7.2168,-7.2822,-7.3668,-7.4476,-7.4707,-7.4938,-7.5784,-7.6015,-7.6015,-7.6015,-7.6015,-7.6015,-7.6015,-7.6015,-7.6015,-7.6015,-7.6015,-7.6015,-7.6015,-7.6015,-7.6015,-7.6015,-7.6015,-7.6015,-7.6015,-7.6015,-7.6015,-7.6015,-7.6015,-7.6015,-7.6015,-7.6015,-7.6015,-7.6015,-7.6015,-7.6015,-7.6015,-7.6015,-7.6015,-7.6015,-7.6015,-7.5553,-7.4668,-7.3937,-7.3591,-4.297,-4.3201,-4.2431,-3.4814,-3.4814,-3.5045,-2.8852,-2.6774,-2.6159,-2.6159,-2.5687,-2.5303,-2.5303,-2.5303,-2.5111,-2.4543,-2.4274,-2.4014,0.0,-2.3898,-2.4437,-2.5284,-3.0352,0.0,0.0,0.0,0.0,0.0,-5.4241,0.0,-6.3435,-6.4282,-6.5013,-6.5859,-6.5897,-6.5897,-6.5897,-6.6436,-6.6667,-6.6705,-6.7552,-6.8436,-6.9244,-6.9244,-6.986,-7.086,-7.0283,-6.9436,-6.8398,-6.809,-6.7167,-6.5897,-6.5897,-6.5897,-6.5897,-6.5897,-6.6397,-6.7321,-6.8744,-6.9975,-7.1014,-7.1552,-7.2168,-7.2629,-7.2629,-7.2822,-7.3053,-7.3053,-7.3668,-7.4361,-7.463,-7.513,-7.563,-7.5938,-7.6015,-7.6015,-7.6015,-7.6015,-7.6015,-7.6015,-7.6015,-7.6015,-7.6015,-7.6015,-7.6015,-7.6015,-7.6015,-7.6015,-7.6015,-7.6015,-7.6015,-7.6015,-7.6015,-7.6015,-7.6015,-7.6015,-7.6015,-7.6015,-7.6015,-7.6015,-7.6015,-7.6015,-7.6015,-7.6015,-7.6015,-7.5707,-7.513,-7.513,-7.4437,-7.3053,-7.2783,-7.2629,-4.8022,-4.8792,-4.8179,-4.0325,-4.0351,-4.0277,-3.2737,-3.0121,-2.8967,-2.7736,-2.6582,-2.5851,-2.6159,-2.5736,-2.538,-2.5687,-2.4812,-2.4091,0.0,-2.436,-2.4543,-2.4543,0.0,0.0,0.0,0.0,0.0,0.0,0.0,0.0,0.0,-6.2858,-6.4551,-6.5397,-6.5743,-6.5897,-6.5897,-6.6397,-6.6821,-6.709,-6.7975,-6.8859,-6.9706,-7.0014,-7.0398,-7.0898,-7.0898,-7.0129,-6.8859,-6.8859,-6.7859,-6.632,-6.632,-6.6128,-6.5897,-6.5897,-6.6397,-6.7282,-6.8744,-6.9975,-7.1052,-7.1898,-7.2591,-7.3053,-7.3053,-7.3245,-7.3322,-7.2399,-7.3399,-7.4553,-7.3976,-7.4668,-7.563,-7.5938,-7.6015,-7.6015,-7.6015,-7.6015,-7.6015,-7.6015,-7.6015,-7.6015,-7.6015,-7.6015,-7.6015,-7.6015,-7.6015,-7.6015,-7.6015,-7.6015,-7.6015,-7.6015,-7.6015,-7.6015,-7.6015,-7.6015,-7.6015,-7.6015,-7.6015,-7.6015,-7.6015,-7.6015,-7.6015,-7.6015,-7.5707,-7.5245,-7.4707,-7.4399,-7.3553,-7.2206,-7.2206,-7.2014]}]]